<?xml version='1.0' encoding='UTF-8'?><gpx version="1.1" creator="JPX - https://github.com/jenetics/jpx" xmlns="http://www.topografix.com/GPX/1/1"><trk><trkseg><trkpt lat="45.2357153" lon="9.0370486"><ele>66.0</ele><time>2026-04-26T07:18:17.653Z</time></trkpt><trkpt lat="45.2357734" lon="9.0369804"><ele>66.0</ele><time>2026-04-26T07:18:20.666Z</time></trkpt><trkpt lat="45.235823" lon="9.0369033"><ele>66.0</ele><time>2026-04-26T07:18:23.667Z</time></trkpt><trkpt lat="45.2358843" lon="9.0368268"><ele>66.0</ele><time>2026-04-26T07:18:26.651Z</time></trkpt><trkpt lat="45.2359179" lon="9.0367492"><ele>66.0</ele><time>2026-04-26T07:18:28.649Z</time></trkpt><trkpt lat="45.2359609" lon="9.0366624"><ele>66.0</ele><time>2026-04-26T07:18:31.653Z</time></trkpt><trkpt lat="45.2360125" lon="9.0366049"><ele>66.0</ele><time>2026-04-26T07:18:34.647Z</time></trkpt><trkpt lat="45.2360733" lon="9.0365441"><ele>66.14285714285714</ele><time>2026-04-26T07:18:38.726Z</time></trkpt><trkpt lat="45.2361355" lon="9.0364807"><ele>66.28571428571429</ele><time>2026-04-26T07:18:41.652Z</time></trkpt><trkpt lat="45.2361685" lon="9.0364006"><ele>66.42857142857143</ele><time>2026-04-26T07:18:43.65Z</time></trkpt><trkpt lat="45.236219" lon="9.0363055"><ele>66.57142857142857</ele><time>2026-04-26T07:18:46.651Z</time></trkpt><trkpt lat="45.2362744" lon="9.0362188"><ele>66.71428571428571</ele><time>2026-04-26T07:18:49.65Z</time></trkpt><trkpt lat="45.2363225" lon="9.0361556"><ele>66.85714285714286</ele><time>2026-04-26T07:18:51.722Z</time></trkpt><trkpt lat="45.2363755" lon="9.0360821"><ele>67.0</ele><time>2026-04-26T07:18:54.659Z</time></trkpt><trkpt lat="45.2364332" lon="9.0360018"><ele>67.16666666666666</ele><time>2026-04-26T07:18:57.65Z</time></trkpt><trkpt lat="45.2365053" lon="9.0359158"><ele>67.33333333333333</ele><time>2026-04-26T07:19:00.657Z</time></trkpt><trkpt lat="45.2365682" lon="9.035851"><ele>67.5</ele><time>2026-04-26T07:19:03.652Z</time></trkpt><trkpt lat="45.2366238" lon="9.0357811"><ele>67.66666666666667</ele><time>2026-04-26T07:19:06.654Z</time></trkpt><trkpt lat="45.2366949" lon="9.0356943"><ele>67.83333333333334</ele><time>2026-04-26T07:19:09.651Z</time></trkpt><trkpt lat="45.2367489" lon="9.0356472"><ele>68.0</ele><time>2026-04-26T07:19:11.648Z</time></trkpt><trkpt lat="45.2367909" lon="9.0355682"><ele>68.16666666666667</ele><time>2026-04-26T07:19:13.644Z</time></trkpt><trkpt lat="45.2368455" lon="9.0355039"><ele>68.33333333333334</ele><time>2026-04-26T07:19:17.649Z</time></trkpt><trkpt lat="45.2369287" lon="9.0355566"><ele>68.5</ele><time>2026-04-26T07:19:21.652Z</time></trkpt><trkpt lat="45.2369996" lon="9.0355996"><ele>68.66666666666667</ele><time>2026-04-26T07:19:24.652Z</time></trkpt><trkpt lat="45.2370846" lon="9.0356811"><ele>68.83333333333333</ele><time>2026-04-26T07:19:27.67Z</time></trkpt><trkpt lat="45.237159" lon="9.0357447"><ele>69.0</ele><time>2026-04-26T07:19:30.656Z</time></trkpt><trkpt lat="45.2372322" lon="9.035787"><ele>68.83333333333333</ele><time>2026-04-26T07:19:32.655Z</time></trkpt><trkpt lat="45.2372866" lon="9.035836"><ele>68.66666666666667</ele><time>2026-04-26T07:19:34.654Z</time></trkpt><trkpt lat="45.2373288" lon="9.0359121"><ele>68.5</ele><time>2026-04-26T07:19:36.653Z</time></trkpt><trkpt lat="45.2373858" lon="9.0359928"><ele>68.33333333333334</ele><time>2026-04-26T07:19:39.655Z</time></trkpt><trkpt lat="45.2374514" lon="9.0360743"><ele>68.16666666666667</ele><time>2026-04-26T07:19:42.663Z</time></trkpt><trkpt lat="45.2375308" lon="9.0361366"><ele>68.0</ele><time>2026-04-26T07:19:44.727Z</time></trkpt><trkpt lat="45.2376212" lon="9.0362266"><ele>68.0</ele><time>2026-04-26T07:19:46.648Z</time></trkpt><trkpt lat="45.2376976" lon="9.0363065"><ele>68.0</ele><time>2026-04-26T07:19:48.656Z</time></trkpt><trkpt lat="45.2377733" lon="9.036377"><ele>68.0</ele><time>2026-04-26T07:19:50.647Z</time></trkpt><trkpt lat="45.2378517" lon="9.0364462"><ele>68.0</ele><time>2026-04-26T07:19:52.658Z</time></trkpt><trkpt lat="45.2379197" lon="9.0365146"><ele>68.0</ele><time>2026-04-26T07:19:54.663Z</time></trkpt><trkpt lat="45.2379981" lon="9.0365587"><ele>68.0</ele><time>2026-04-26T07:19:56.653Z</time></trkpt><trkpt lat="45.2380957" lon="9.0365648"><ele>69.0</ele><time>2026-04-26T07:19:58.651Z</time></trkpt><trkpt lat="45.2382272" lon="9.0365498"><ele>70.0</ele><time>2026-04-26T07:20:00.65Z</time></trkpt><trkpt lat="45.238352" lon="9.0365612"><ele>71.0</ele><time>2026-04-26T07:20:02.649Z</time></trkpt><trkpt lat="45.2384548" lon="9.0366104"><ele>72.0</ele><time>2026-04-26T07:20:04.648Z</time></trkpt><trkpt lat="45.238531" lon="9.0366697"><ele>72.0</ele><time>2026-04-26T07:20:06.652Z</time></trkpt><trkpt lat="45.2385966" lon="9.0367352"><ele>72.0</ele><time>2026-04-26T07:20:08.651Z</time></trkpt><trkpt lat="45.2386654" lon="9.0367936"><ele>72.0</ele><time>2026-04-26T07:20:10.649Z</time></trkpt><trkpt lat="45.2387884" lon="9.0368719"><ele>72.0</ele><time>2026-04-26T07:20:13.65Z</time></trkpt><trkpt lat="45.2388565" lon="9.0369352"><ele>72.0</ele><time>2026-04-26T07:20:15.649Z</time></trkpt><trkpt lat="45.238921" lon="9.0369865"><ele>73.16666666666667</ele><time>2026-04-26T07:20:17.643Z</time></trkpt><trkpt lat="45.2389808" lon="9.0370487"><ele>74.33333333333333</ele><time>2026-04-26T07:20:19.645Z</time></trkpt><trkpt lat="45.2390366" lon="9.0371153"><ele>75.5</ele><time>2026-04-26T07:20:21.647Z</time></trkpt><trkpt lat="45.239103" lon="9.0371879"><ele>76.66666666666666</ele><time>2026-04-26T07:20:24.651Z</time></trkpt><trkpt lat="45.2391589" lon="9.0372441"><ele>77.83333333333333</ele><time>2026-04-26T07:20:26.652Z</time></trkpt><trkpt lat="45.239238" lon="9.0373072"><ele>79.0</ele><time>2026-04-26T07:20:29.649Z</time></trkpt><trkpt lat="45.239299" lon="9.0373486"><ele>79.0</ele><time>2026-04-26T07:20:31.65Z</time></trkpt><trkpt lat="45.239382" lon="9.0374195"><ele>79.0</ele><time>2026-04-26T07:20:34.65Z</time></trkpt><trkpt lat="45.2394517" lon="9.0374767"><ele>79.0</ele><time>2026-04-26T07:20:36.73Z</time></trkpt><trkpt lat="45.2395169" lon="9.0375437"><ele>79.0</ele><time>2026-04-26T07:20:38.645Z</time></trkpt><trkpt lat="45.2395536" lon="9.0376355"><ele>79.0</ele><time>2026-04-26T07:20:40.652Z</time></trkpt><trkpt lat="45.2395514" lon="9.0377507"><ele>79.0</ele><time>2026-04-26T07:20:42.653Z</time></trkpt><trkpt lat="45.2395371" lon="9.0378479"><ele>79.33333333333333</ele><time>2026-04-26T07:20:44.653Z</time></trkpt><trkpt lat="45.2395058" lon="9.0379856"><ele>79.66666666666666</ele><time>2026-04-26T07:20:47.663Z</time></trkpt><trkpt lat="45.2395032" lon="9.0380988"><ele>80.0</ele><time>2026-04-26T07:20:49.66Z</time></trkpt><trkpt lat="45.239528" lon="9.0381962"><ele>80.33333333333333</ele><time>2026-04-26T07:20:51.647Z</time></trkpt><trkpt lat="45.2395633" lon="9.0383156"><ele>80.66666666666667</ele><time>2026-04-26T07:20:53.653Z</time></trkpt><trkpt lat="45.23959" lon="9.0384266"><ele>81.0</ele><time>2026-04-26T07:20:55.655Z</time></trkpt><trkpt lat="45.2396207" lon="9.0385391"><ele>81.71428571428572</ele><time>2026-04-26T07:20:57.648Z</time></trkpt><trkpt lat="45.2396494" lon="9.0386449"><ele>82.42857142857143</ele><time>2026-04-26T07:20:59.651Z</time></trkpt><trkpt lat="45.239679" lon="9.0387486"><ele>83.14285714285714</ele><time>2026-04-26T07:21:01.658Z</time></trkpt><trkpt lat="45.239714" lon="9.0388543"><ele>83.85714285714286</ele><time>2026-04-26T07:21:03.669Z</time></trkpt><trkpt lat="45.2397571" lon="9.0389335"><ele>84.57142857142857</ele><time>2026-04-26T07:21:05.647Z</time></trkpt><trkpt lat="45.2397969" lon="9.0390114"><ele>85.28571428571429</ele><time>2026-04-26T07:21:07.645Z</time></trkpt><trkpt lat="45.2398332" lon="9.0390952"><ele>86.0</ele><time>2026-04-26T07:21:09.651Z</time></trkpt><trkpt lat="45.2398733" lon="9.0391798"><ele>86.16666666666667</ele><time>2026-04-26T07:21:11.65Z</time></trkpt><trkpt lat="45.2399205" lon="9.0392623"><ele>86.33333333333334</ele><time>2026-04-26T07:21:14.65Z</time></trkpt><trkpt lat="45.2399654" lon="9.0393263"><ele>86.5</ele><time>2026-04-26T07:21:16.657Z</time></trkpt><trkpt lat="45.2399518" lon="9.0394466"><ele>86.66666666666667</ele><time>2026-04-26T07:21:19.65Z</time></trkpt><trkpt lat="45.2398959" lon="9.0395399"><ele>86.83333333333333</ele><time>2026-04-26T07:21:22.647Z</time></trkpt><trkpt lat="45.2398267" lon="9.0395988"><ele>87.0</ele><time>2026-04-26T07:21:24.651Z</time></trkpt><trkpt lat="45.2397692" lon="9.0396647"><ele>87.0</ele><time>2026-04-26T07:21:26.657Z</time></trkpt><trkpt lat="45.2397181" lon="9.0397193"><ele>87.0</ele><time>2026-04-26T07:21:28.745Z</time></trkpt><trkpt lat="45.2396552" lon="9.0397774"><ele>87.0</ele><time>2026-04-26T07:21:30.667Z</time></trkpt><trkpt lat="45.2396031" lon="9.0398512"><ele>87.0</ele><time>2026-04-26T07:21:32.656Z</time></trkpt><trkpt lat="45.2395532" lon="9.0399272"><ele>87.0</ele><time>2026-04-26T07:21:34.653Z</time></trkpt><trkpt lat="45.2394974" lon="9.0399999"><ele>87.0</ele><time>2026-04-26T07:21:36.652Z</time></trkpt><trkpt lat="45.2394399" lon="9.0400666"><ele>87.0</ele><time>2026-04-26T07:21:38.65Z</time></trkpt><trkpt lat="45.2393809" lon="9.0401375"><ele>87.0</ele><time>2026-04-26T07:21:40.65Z</time></trkpt><trkpt lat="45.2393185" lon="9.0402181"><ele>87.0</ele><time>2026-04-26T07:21:42.651Z</time></trkpt><trkpt lat="45.2392579" lon="9.0403056"><ele>87.0</ele><time>2026-04-26T07:21:44.66Z</time></trkpt><trkpt lat="45.2392054" lon="9.0403846"><ele>87.0</ele><time>2026-04-26T07:21:46.654Z</time></trkpt><trkpt lat="45.2391462" lon="9.0404555"><ele>87.0</ele><time>2026-04-26T07:21:48.657Z</time></trkpt><trkpt lat="45.2390914" lon="9.0405316"><ele>87.0</ele><time>2026-04-26T07:21:50.654Z</time></trkpt><trkpt lat="45.2390294" lon="9.0406115"><ele>87.0</ele><time>2026-04-26T07:21:52.657Z</time></trkpt><trkpt lat="45.2389689" lon="9.0406884"><ele>87.0</ele><time>2026-04-26T07:21:54.745Z</time></trkpt><trkpt lat="45.2389127" lon="9.0407669"><ele>87.0</ele><time>2026-04-26T07:21:56.658Z</time></trkpt><trkpt lat="45.2388513" lon="9.0408399"><ele>87.0</ele><time>2026-04-26T07:21:58.652Z</time></trkpt><trkpt lat="45.2387888" lon="9.040916"><ele>87.0</ele><time>2026-04-26T07:22:00.66Z</time></trkpt><trkpt lat="45.2387291" lon="9.0409935"><ele>87.0</ele><time>2026-04-26T07:22:02.646Z</time></trkpt><trkpt lat="45.2386706" lon="9.0410741"><ele>86.66666666666667</ele><time>2026-04-26T07:22:04.654Z</time></trkpt><trkpt lat="45.2386112" lon="9.0411582"><ele>86.33333333333333</ele><time>2026-04-26T07:22:06.659Z</time></trkpt><trkpt lat="45.2385532" lon="9.0412324"><ele>86.0</ele><time>2026-04-26T07:22:08.658Z</time></trkpt><trkpt lat="45.238493" lon="9.041307"><ele>85.66666666666666</ele><time>2026-04-26T07:22:10.65Z</time></trkpt><trkpt lat="45.2384344" lon="9.041387"><ele>85.33333333333333</ele><time>2026-04-26T07:22:12.646Z</time></trkpt><trkpt lat="45.2383736" lon="9.0414687"><ele>85.0</ele><time>2026-04-26T07:22:14.649Z</time></trkpt><trkpt lat="45.2383151" lon="9.0415549"><ele>85.16666666666666</ele><time>2026-04-26T07:22:16.654Z</time></trkpt><trkpt lat="45.2382499" lon="9.0416366"><ele>85.33333333333333</ele><time>2026-04-26T07:22:18.651Z</time></trkpt><trkpt lat="45.2381817" lon="9.0417114"><ele>85.5</ele><time>2026-04-26T07:22:20.752Z</time></trkpt><trkpt lat="45.2381225" lon="9.041802"><ele>85.66666666666667</ele><time>2026-04-26T07:22:22.659Z</time></trkpt><trkpt lat="45.2380624" lon="9.0418872"><ele>85.83333333333334</ele><time>2026-04-26T07:22:24.64Z</time></trkpt><trkpt lat="45.2380072" lon="9.04196"><ele>86.0</ele><time>2026-04-26T07:22:26.653Z</time></trkpt><trkpt lat="45.2379474" lon="9.0420316"><ele>86.0</ele><time>2026-04-26T07:22:28.645Z</time></trkpt><trkpt lat="45.2378896" lon="9.0421087"><ele>86.0</ele><time>2026-04-26T07:22:30.655Z</time></trkpt><trkpt lat="45.2378285" lon="9.0421961"><ele>86.0</ele><time>2026-04-26T07:22:32.653Z</time></trkpt><trkpt lat="45.2377695" lon="9.0422742"><ele>86.0</ele><time>2026-04-26T07:22:34.662Z</time></trkpt><trkpt lat="45.2377094" lon="9.042356"><ele>86.0</ele><time>2026-04-26T07:22:36.659Z</time></trkpt><trkpt lat="45.2376509" lon="9.0424441"><ele>86.0</ele><time>2026-04-26T07:22:38.653Z</time></trkpt><trkpt lat="45.2375893" lon="9.0425288"><ele>86.0</ele><time>2026-04-26T07:22:40.654Z</time></trkpt><trkpt lat="45.2375345" lon="9.042609"><ele>86.0</ele><time>2026-04-26T07:22:42.648Z</time></trkpt><trkpt lat="45.2374835" lon="9.0427018"><ele>86.0</ele><time>2026-04-26T07:22:44.646Z</time></trkpt><trkpt lat="45.2374346" lon="9.0427935"><ele>86.0</ele><time>2026-04-26T07:22:46.647Z</time></trkpt><trkpt lat="45.2373878" lon="9.0428892"><ele>86.0</ele><time>2026-04-26T07:22:48.752Z</time></trkpt><trkpt lat="45.2373475" lon="9.0429923"><ele>86.0</ele><time>2026-04-26T07:22:50.657Z</time></trkpt><trkpt lat="45.2373109" lon="9.0430843"><ele>85.83333333333334</ele><time>2026-04-26T07:22:52.653Z</time></trkpt><trkpt lat="45.2372841" lon="9.043191"><ele>85.66666666666667</ele><time>2026-04-26T07:22:54.648Z</time></trkpt><trkpt lat="45.237258" lon="9.0433023"><ele>85.5</ele><time>2026-04-26T07:22:56.644Z</time></trkpt><trkpt lat="45.2372241" lon="9.0434201"><ele>85.33333333333333</ele><time>2026-04-26T07:22:58.656Z</time></trkpt><trkpt lat="45.2371849" lon="9.0435325"><ele>85.16666666666666</ele><time>2026-04-26T07:23:00.654Z</time></trkpt><trkpt lat="45.2371537" lon="9.0436384"><ele>85.0</ele><time>2026-04-26T07:23:02.647Z</time></trkpt><trkpt lat="45.2371205" lon="9.0437527"><ele>85.5</ele><time>2026-04-26T07:23:04.654Z</time></trkpt><trkpt lat="45.2370909" lon="9.043861"><ele>86.0</ele><time>2026-04-26T07:23:06.655Z</time></trkpt><trkpt lat="45.2370647" lon="9.0439671"><ele>86.5</ele><time>2026-04-26T07:23:08.663Z</time></trkpt><trkpt lat="45.2370331" lon="9.0440718"><ele>87.0</ele><time>2026-04-26T07:23:10.653Z</time></trkpt><trkpt lat="45.2369997" lon="9.0441882"><ele>87.5</ele><time>2026-04-26T07:23:12.652Z</time></trkpt><trkpt lat="45.2369755" lon="9.0442949"><ele>88.0</ele><time>2026-04-26T07:23:14.65Z</time></trkpt><trkpt lat="45.2369543" lon="9.0444056"><ele>88.16666666666666</ele><time>2026-04-26T07:23:16.651Z</time></trkpt><trkpt lat="45.2369339" lon="9.0445194"><ele>88.33333333333333</ele><time>2026-04-26T07:23:18.65Z</time></trkpt><trkpt lat="45.2369071" lon="9.0446194"><ele>88.5</ele><time>2026-04-26T07:23:20.656Z</time></trkpt><trkpt lat="45.2368866" lon="9.0447338"><ele>88.66666666666667</ele><time>2026-04-26T07:23:22.656Z</time></trkpt><trkpt lat="45.2368763" lon="9.0448508"><ele>88.83333333333334</ele><time>2026-04-26T07:23:24.653Z</time></trkpt><trkpt lat="45.23688" lon="9.0449654"><ele>89.0</ele><time>2026-04-26T07:23:26.651Z</time></trkpt><trkpt lat="45.2368772" lon="9.0450658"><ele>89.0</ele><time>2026-04-26T07:23:28.654Z</time></trkpt><trkpt lat="45.2368784" lon="9.0451805"><ele>89.0</ele><time>2026-04-26T07:23:30.666Z</time></trkpt><trkpt lat="45.2368772" lon="9.0452924"><ele>89.0</ele><time>2026-04-26T07:23:32.651Z</time></trkpt><trkpt lat="45.2368675" lon="9.0453914"><ele>89.0</ele><time>2026-04-26T07:23:34.656Z</time></trkpt><trkpt lat="45.2368655" lon="9.0455173"><ele>89.0</ele><time>2026-04-26T07:23:36.654Z</time></trkpt><trkpt lat="45.2368651" lon="9.045624"><ele>89.0</ele><time>2026-04-26T07:23:38.652Z</time></trkpt><trkpt lat="45.2368675" lon="9.045726"><ele>88.83333333333334</ele><time>2026-04-26T07:23:40.733Z</time></trkpt><trkpt lat="45.2368743" lon="9.0458415"><ele>88.66666666666667</ele><time>2026-04-26T07:23:42.741Z</time></trkpt><trkpt lat="45.2368834" lon="9.04595"><ele>88.5</ele><time>2026-04-26T07:23:44.646Z</time></trkpt><trkpt lat="45.2368904" lon="9.0460719"><ele>88.33333333333333</ele><time>2026-04-26T07:23:46.653Z</time></trkpt><trkpt lat="45.2368929" lon="9.0461865"><ele>88.16666666666666</ele><time>2026-04-26T07:23:48.642Z</time></trkpt><trkpt lat="45.236887" lon="9.0462991"><ele>88.0</ele><time>2026-04-26T07:23:50.647Z</time></trkpt><trkpt lat="45.2368914" lon="9.0464097"><ele>88.0</ele><time>2026-04-26T07:23:52.654Z</time></trkpt><trkpt lat="45.2368911" lon="9.04653"><ele>88.0</ele><time>2026-04-26T07:23:54.653Z</time></trkpt><trkpt lat="45.2368944" lon="9.0466492"><ele>88.0</ele><time>2026-04-26T07:23:56.733Z</time></trkpt><trkpt lat="45.2368954" lon="9.0467697"><ele>88.0</ele><time>2026-04-26T07:23:58.656Z</time></trkpt><trkpt lat="45.2368971" lon="9.0468837"><ele>88.0</ele><time>2026-04-26T07:24:00.648Z</time></trkpt><trkpt lat="45.2368999" lon="9.0470024"><ele>88.0</ele><time>2026-04-26T07:24:02.649Z</time></trkpt><trkpt lat="45.2368968" lon="9.0471066"><ele>88.2</ele><time>2026-04-26T07:24:04.654Z</time></trkpt><trkpt lat="45.2368981" lon="9.0472236"><ele>88.4</ele><time>2026-04-26T07:24:06.652Z</time></trkpt><trkpt lat="45.2368991" lon="9.0473391"><ele>88.60000000000001</ele><time>2026-04-26T07:24:08.651Z</time></trkpt><trkpt lat="45.2369012" lon="9.0474609"><ele>88.80000000000001</ele><time>2026-04-26T07:24:10.651Z</time></trkpt><trkpt lat="45.2369052" lon="9.0475699"><ele>89.0</ele><time>2026-04-26T07:24:12.648Z</time></trkpt><trkpt lat="45.2369139" lon="9.0477587"><ele>88.66666666666667</ele><time>2026-04-26T07:24:15.651Z</time></trkpt><trkpt lat="45.2369152" lon="9.0478956"><ele>88.33333333333334</ele><time>2026-04-26T07:24:17.647Z</time></trkpt><trkpt lat="45.2369183" lon="9.0480152"><ele>88.0</ele><time>2026-04-26T07:24:19.669Z</time></trkpt><trkpt lat="45.2369139" lon="9.0481364"><ele>87.66666666666667</ele><time>2026-04-26T07:24:21.658Z</time></trkpt><trkpt lat="45.2369036" lon="9.0482494"><ele>87.33333333333333</ele><time>2026-04-26T07:24:23.649Z</time></trkpt><trkpt lat="45.2369025" lon="9.0483785"><ele>87.0</ele><time>2026-04-26T07:24:25.654Z</time></trkpt><trkpt lat="45.2369024" lon="9.0485161"><ele>87.0</ele><time>2026-04-26T07:24:27.655Z</time></trkpt><trkpt lat="45.2368931" lon="9.0486365"><ele>87.0</ele><time>2026-04-26T07:24:29.654Z</time></trkpt><trkpt lat="45.2368757" lon="9.0487329"><ele>87.0</ele><time>2026-04-26T07:24:31.668Z</time></trkpt><trkpt lat="45.2367942" lon="9.0487795"><ele>87.0</ele><time>2026-04-26T07:24:34.726Z</time></trkpt><trkpt lat="45.2367304" lon="9.0487467"><ele>87.0</ele><time>2026-04-26T07:24:36.65Z</time></trkpt><trkpt lat="45.2366633" lon="9.0486905"><ele>87.0</ele><time>2026-04-26T07:24:38.653Z</time></trkpt><trkpt lat="45.2365985" lon="9.0486223"><ele>87.0</ele><time>2026-04-26T07:24:40.653Z</time></trkpt><trkpt lat="45.2365411" lon="9.0485623"><ele>87.0</ele><time>2026-04-26T07:24:42.651Z</time></trkpt><trkpt lat="45.2364749" lon="9.048479"><ele>87.0</ele><time>2026-04-26T07:24:44.653Z</time></trkpt><trkpt lat="45.236411" lon="9.0484089"><ele>87.0</ele><time>2026-04-26T07:24:46.651Z</time></trkpt><trkpt lat="45.2363562" lon="9.0483244"><ele>87.0</ele><time>2026-04-26T07:24:48.648Z</time></trkpt><trkpt lat="45.236292" lon="9.0482513"><ele>87.0</ele><time>2026-04-26T07:24:50.651Z</time></trkpt><trkpt lat="45.2362301" lon="9.048166"><ele>87.0</ele><time>2026-04-26T07:24:52.654Z</time></trkpt><trkpt lat="45.2361721" lon="9.0480883"><ele>87.0</ele><time>2026-04-26T07:24:54.662Z</time></trkpt><trkpt lat="45.2361226" lon="9.0480183"><ele>87.0</ele><time>2026-04-26T07:24:56.662Z</time></trkpt><trkpt lat="45.2360699" lon="9.0479573"><ele>87.0</ele><time>2026-04-26T07:24:58.648Z</time></trkpt><trkpt lat="45.2360156" lon="9.0479037"><ele>87.0</ele><time>2026-04-26T07:25:00.65Z</time></trkpt><trkpt lat="45.2359637" lon="9.0478429"><ele>87.0</ele><time>2026-04-26T07:25:02.654Z</time></trkpt><trkpt lat="45.2359104" lon="9.0477879"><ele>87.0</ele><time>2026-04-26T07:25:04.652Z</time></trkpt><trkpt lat="45.2358547" lon="9.0477303"><ele>87.0</ele><time>2026-04-26T07:25:06.653Z</time></trkpt><trkpt lat="45.2358018" lon="9.0476589"><ele>87.0</ele><time>2026-04-26T07:25:08.652Z</time></trkpt><trkpt lat="45.2357308" lon="9.0476011"><ele>87.0</ele><time>2026-04-26T07:25:10.661Z</time></trkpt><trkpt lat="45.2356609" lon="9.0475417"><ele>87.0</ele><time>2026-04-26T07:25:12.652Z</time></trkpt><trkpt lat="45.2355837" lon="9.0474913"><ele>87.0</ele><time>2026-04-26T07:25:14.649Z</time></trkpt><trkpt lat="45.2355154" lon="9.0474612"><ele>87.0</ele><time>2026-04-26T07:25:16.654Z</time></trkpt><trkpt lat="45.23544" lon="9.0474292"><ele>86.5</ele><time>2026-04-26T07:25:19.65Z</time></trkpt><trkpt lat="45.2353709" lon="9.0473958"><ele>86.0</ele><time>2026-04-26T07:25:22.642Z</time></trkpt><trkpt lat="45.2352844" lon="9.047381"><ele>85.5</ele><time>2026-04-26T07:25:25.651Z</time></trkpt><trkpt lat="45.2352193" lon="9.0473695"><ele>85.0</ele><time>2026-04-26T07:25:27.647Z</time></trkpt><trkpt lat="45.2351382" lon="9.0473389"><ele>84.5</ele><time>2026-04-26T07:25:29.648Z</time></trkpt><trkpt lat="45.2350665" lon="9.0472934"><ele>84.0</ele><time>2026-04-26T07:25:31.65Z</time></trkpt><trkpt lat="45.2350181" lon="9.0472097"><ele>84.0</ele><time>2026-04-26T07:25:33.651Z</time></trkpt><trkpt lat="45.2349517" lon="9.0471343"><ele>84.0</ele><time>2026-04-26T07:25:36.651Z</time></trkpt><trkpt lat="45.2348888" lon="9.0471198"><ele>84.0</ele><time>2026-04-26T07:25:41.649Z</time></trkpt><trkpt lat="45.234822" lon="9.0470984"><ele>84.0</ele><time>2026-04-26T07:25:44.656Z</time></trkpt><trkpt lat="45.2347417" lon="9.0470252"><ele>84.0</ele><time>2026-04-26T07:25:47.655Z</time></trkpt><trkpt lat="45.2346773" lon="9.0469706"><ele>84.0</ele><time>2026-04-26T07:25:49.643Z</time></trkpt><trkpt lat="45.2346129" lon="9.0469238"><ele>83.42857142857143</ele><time>2026-04-26T07:25:51.648Z</time></trkpt><trkpt lat="45.2345488" lon="9.0468823"><ele>82.85714285714286</ele><time>2026-04-26T07:25:53.648Z</time></trkpt><trkpt lat="45.234489" lon="9.0468279"><ele>82.28571428571428</ele><time>2026-04-26T07:25:55.656Z</time></trkpt><trkpt lat="45.2344196" lon="9.0467712"><ele>81.71428571428572</ele><time>2026-04-26T07:25:57.646Z</time></trkpt><trkpt lat="45.2343449" lon="9.0467246"><ele>81.14285714285714</ele><time>2026-04-26T07:25:59.646Z</time></trkpt><trkpt lat="45.2342901" lon="9.0466715"><ele>80.57142857142857</ele><time>2026-04-26T07:26:01.669Z</time></trkpt><trkpt lat="45.2342306" lon="9.0466106"><ele>80.0</ele><time>2026-04-26T07:26:03.642Z</time></trkpt><trkpt lat="45.2341611" lon="9.0465529"><ele>79.83333333333334</ele><time>2026-04-26T07:26:05.649Z</time></trkpt><trkpt lat="45.2340969" lon="9.0464925"><ele>79.66666666666667</ele><time>2026-04-26T07:26:07.651Z</time></trkpt><trkpt lat="45.2340252" lon="9.0464411"><ele>79.5</ele><time>2026-04-26T07:26:09.66Z</time></trkpt><trkpt lat="45.2339617" lon="9.0463878"><ele>79.33333333333333</ele><time>2026-04-26T07:26:11.648Z</time></trkpt><trkpt lat="45.2338945" lon="9.0463306"><ele>79.16666666666666</ele><time>2026-04-26T07:26:13.652Z</time></trkpt><trkpt lat="45.2338271" lon="9.0462722"><ele>79.0</ele><time>2026-04-26T07:26:15.643Z</time></trkpt><trkpt lat="45.2337621" lon="9.0462047"><ele>79.0</ele><time>2026-04-26T07:26:17.73Z</time></trkpt><trkpt lat="45.2337006" lon="9.0461345"><ele>79.0</ele><time>2026-04-26T07:26:19.662Z</time></trkpt><trkpt lat="45.2336428" lon="9.0460641"><ele>79.0</ele><time>2026-04-26T07:26:21.641Z</time></trkpt><trkpt lat="45.2335844" lon="9.0459943"><ele>79.0</ele><time>2026-04-26T07:26:23.651Z</time></trkpt><trkpt lat="45.233522" lon="9.045921"><ele>79.0</ele><time>2026-04-26T07:26:25.654Z</time></trkpt><trkpt lat="45.2334607" lon="9.0458473"><ele>79.0</ele><time>2026-04-26T07:26:27.652Z</time></trkpt><trkpt lat="45.2334006" lon="9.0457823"><ele>79.16666666666666</ele><time>2026-04-26T07:26:29.648Z</time></trkpt><trkpt lat="45.2333363" lon="9.0457124"><ele>79.33333333333333</ele><time>2026-04-26T07:26:31.653Z</time></trkpt><trkpt lat="45.2332642" lon="9.0456919"><ele>79.5</ele><time>2026-04-26T07:26:33.646Z</time></trkpt><trkpt lat="45.2331973" lon="9.0457184"><ele>79.66666666666667</ele><time>2026-04-26T07:26:35.66Z</time></trkpt><trkpt lat="45.2331395" lon="9.0457894"><ele>79.83333333333334</ele><time>2026-04-26T07:26:37.644Z</time></trkpt><trkpt lat="45.2330987" lon="9.0458768"><ele>80.0</ele><time>2026-04-26T07:26:39.655Z</time></trkpt><trkpt lat="45.2330486" lon="9.0459599"><ele>80.16666666666667</ele><time>2026-04-26T07:26:41.643Z</time></trkpt><trkpt lat="45.2330025" lon="9.0460542"><ele>80.33333333333334</ele><time>2026-04-26T07:26:43.726Z</time></trkpt><trkpt lat="45.2329508" lon="9.0461408"><ele>80.5</ele><time>2026-04-26T07:26:45.669Z</time></trkpt><trkpt lat="45.2328994" lon="9.0462273"><ele>80.66666666666667</ele><time>2026-04-26T07:26:47.658Z</time></trkpt><trkpt lat="45.2328512" lon="9.046303"><ele>80.83333333333333</ele><time>2026-04-26T07:26:49.649Z</time></trkpt><trkpt lat="45.2327917" lon="9.0463754"><ele>81.0</ele><time>2026-04-26T07:26:52.641Z</time></trkpt><trkpt lat="45.2327137" lon="9.0463398"><ele>81.0</ele><time>2026-04-26T07:26:55.647Z</time></trkpt><trkpt lat="45.232665" lon="9.046274"><ele>81.0</ele><time>2026-04-26T07:26:57.645Z</time></trkpt><trkpt lat="45.2326194" lon="9.046204"><ele>81.0</ele><time>2026-04-26T07:26:59.649Z</time></trkpt><trkpt lat="45.2325651" lon="9.0461244"><ele>81.0</ele><time>2026-04-26T07:27:01.646Z</time></trkpt><trkpt lat="45.2325075" lon="9.0460501"><ele>81.0</ele><time>2026-04-26T07:27:03.645Z</time></trkpt><trkpt lat="45.2324588" lon="9.0459762"><ele>81.0</ele><time>2026-04-26T07:27:05.645Z</time></trkpt><trkpt lat="45.2324003" lon="9.0459023"><ele>81.0</ele><time>2026-04-26T07:27:07.643Z</time></trkpt><trkpt lat="45.2323423" lon="9.045827"><ele>80.33333333333333</ele><time>2026-04-26T07:27:09.646Z</time></trkpt><trkpt lat="45.2322837" lon="9.0457553"><ele>79.66666666666667</ele><time>2026-04-26T07:27:11.647Z</time></trkpt><trkpt lat="45.232227" lon="9.0456759"><ele>79.0</ele><time>2026-04-26T07:27:13.659Z</time></trkpt><trkpt lat="45.2321683" lon="9.0456017"><ele>78.33333333333334</ele><time>2026-04-26T07:27:15.648Z</time></trkpt><trkpt lat="45.232105" lon="9.045525"><ele>77.66666666666667</ele><time>2026-04-26T07:27:17.651Z</time></trkpt><trkpt lat="45.2320514" lon="9.0454466"><ele>77.0</ele><time>2026-04-26T07:27:19.646Z</time></trkpt><trkpt lat="45.2319933" lon="9.0453679"><ele>77.0</ele><time>2026-04-26T07:27:21.646Z</time></trkpt><trkpt lat="45.2319331" lon="9.0452858"><ele>77.0</ele><time>2026-04-26T07:27:23.642Z</time></trkpt><trkpt lat="45.2318779" lon="9.0452107"><ele>77.0</ele><time>2026-04-26T07:27:25.649Z</time></trkpt><trkpt lat="45.2318188" lon="9.0451413"><ele>77.0</ele><time>2026-04-26T07:27:27.64Z</time></trkpt><trkpt lat="45.2317613" lon="9.0450642"><ele>77.0</ele><time>2026-04-26T07:27:29.651Z</time></trkpt><trkpt lat="45.2317008" lon="9.0449878"><ele>77.0</ele><time>2026-04-26T07:27:31.655Z</time></trkpt><trkpt lat="45.2316426" lon="9.0449038"><ele>77.16666666666667</ele><time>2026-04-26T07:27:33.65Z</time></trkpt><trkpt lat="45.2315792" lon="9.0448245"><ele>77.33333333333334</ele><time>2026-04-26T07:27:35.65Z</time></trkpt><trkpt lat="45.2315267" lon="9.0447419"><ele>77.5</ele><time>2026-04-26T07:27:37.643Z</time></trkpt><trkpt lat="45.2314704" lon="9.0446681"><ele>77.66666666666667</ele><time>2026-04-26T07:27:39.655Z</time></trkpt><trkpt lat="45.2314079" lon="9.0445944"><ele>77.83333333333333</ele><time>2026-04-26T07:27:41.643Z</time></trkpt><trkpt lat="45.2313506" lon="9.0445163"><ele>78.0</ele><time>2026-04-26T07:27:43.643Z</time></trkpt><trkpt lat="45.2312922" lon="9.044436"><ele>78.16666666666667</ele><time>2026-04-26T07:27:45.656Z</time></trkpt><trkpt lat="45.2312331" lon="9.044358"><ele>78.33333333333333</ele><time>2026-04-26T07:27:47.668Z</time></trkpt><trkpt lat="45.2311739" lon="9.0442731"><ele>78.5</ele><time>2026-04-26T07:27:49.646Z</time></trkpt><trkpt lat="45.2311146" lon="9.044195"><ele>78.66666666666666</ele><time>2026-04-26T07:27:51.653Z</time></trkpt><trkpt lat="45.2310509" lon="9.0441161"><ele>78.83333333333333</ele><time>2026-04-26T07:27:53.654Z</time></trkpt><trkpt lat="45.2309847" lon="9.0440329"><ele>79.0</ele><time>2026-04-26T07:27:55.659Z</time></trkpt><trkpt lat="45.23092" lon="9.0439454"><ele>79.0</ele><time>2026-04-26T07:27:57.642Z</time></trkpt><trkpt lat="45.2308556" lon="9.0438594"><ele>79.0</ele><time>2026-04-26T07:27:59.642Z</time></trkpt><trkpt lat="45.2307965" lon="9.0437755"><ele>79.0</ele><time>2026-04-26T07:28:01.651Z</time></trkpt><trkpt lat="45.2307317" lon="9.0436975"><ele>79.0</ele><time>2026-04-26T07:28:03.646Z</time></trkpt><trkpt lat="45.230667" lon="9.0436041"><ele>79.0</ele><time>2026-04-26T07:28:05.657Z</time></trkpt><trkpt lat="45.2306002" lon="9.0435162"><ele>79.0</ele><time>2026-04-26T07:28:07.651Z</time></trkpt><trkpt lat="45.2305286" lon="9.0434281"><ele>79.0</ele><time>2026-04-26T07:28:09.665Z</time></trkpt><trkpt lat="45.2304589" lon="9.0433485"><ele>79.0</ele><time>2026-04-26T07:28:11.647Z</time></trkpt><trkpt lat="45.2303854" lon="9.0432624"><ele>79.0</ele><time>2026-04-26T07:28:13.655Z</time></trkpt><trkpt lat="45.2303049" lon="9.0431829"><ele>79.0</ele><time>2026-04-26T07:28:15.65Z</time></trkpt><trkpt lat="45.2302315" lon="9.0430855"><ele>79.0</ele><time>2026-04-26T07:28:17.65Z</time></trkpt><trkpt lat="45.2301518" lon="9.0430033"><ele>79.0</ele><time>2026-04-26T07:28:19.667Z</time></trkpt><trkpt lat="45.2300675" lon="9.0429638"><ele>79.0</ele><time>2026-04-26T07:28:21.65Z</time></trkpt><trkpt lat="45.22998" lon="9.0429647"><ele>79.0</ele><time>2026-04-26T07:28:23.654Z</time></trkpt><trkpt lat="45.2299036" lon="9.0430089"><ele>79.0</ele><time>2026-04-26T07:28:25.65Z</time></trkpt><trkpt lat="45.2298297" lon="9.0430878"><ele>79.0</ele><time>2026-04-26T07:28:27.739Z</time></trkpt><trkpt lat="45.2297657" lon="9.0431898"><ele>79.0</ele><time>2026-04-26T07:28:29.652Z</time></trkpt><trkpt lat="45.229703" lon="9.043272"><ele>79.0</ele><time>2026-04-26T07:28:31.646Z</time></trkpt><trkpt lat="45.2296368" lon="9.0433671"><ele>79.0</ele><time>2026-04-26T07:28:33.645Z</time></trkpt><trkpt lat="45.2295669" lon="9.0434622"><ele>79.0</ele><time>2026-04-26T07:28:35.653Z</time></trkpt><trkpt lat="45.2295005" lon="9.0435474"><ele>79.0</ele><time>2026-04-26T07:28:37.652Z</time></trkpt><trkpt lat="45.229437" lon="9.0436411"><ele>79.0</ele><time>2026-04-26T07:28:39.654Z</time></trkpt><trkpt lat="45.2293764" lon="9.0437371"><ele>79.0</ele><time>2026-04-26T07:28:41.643Z</time></trkpt><trkpt lat="45.2293089" lon="9.0438209"><ele>79.0</ele><time>2026-04-26T07:28:43.652Z</time></trkpt><trkpt lat="45.2292433" lon="9.0439117"><ele>79.0</ele><time>2026-04-26T07:28:45.664Z</time></trkpt><trkpt lat="45.2291732" lon="9.0439998"><ele>79.0</ele><time>2026-04-26T07:28:47.655Z</time></trkpt><trkpt lat="45.2291081" lon="9.0440967"><ele>79.0</ele><time>2026-04-26T07:28:49.657Z</time></trkpt><trkpt lat="45.2290484" lon="9.0441885"><ele>78.83333333333333</ele><time>2026-04-26T07:28:51.645Z</time></trkpt><trkpt lat="45.2289884" lon="9.0442811"><ele>78.66666666666666</ele><time>2026-04-26T07:28:53.731Z</time></trkpt><trkpt lat="45.2289278" lon="9.0443777"><ele>78.5</ele><time>2026-04-26T07:28:55.67Z</time></trkpt><trkpt lat="45.2288722" lon="9.0444656"><ele>78.33333333333333</ele><time>2026-04-26T07:28:57.652Z</time></trkpt><trkpt lat="45.2288085" lon="9.0445619"><ele>78.16666666666667</ele><time>2026-04-26T07:28:59.649Z</time></trkpt><trkpt lat="45.22875" lon="9.0446537"><ele>78.0</ele><time>2026-04-26T07:29:01.642Z</time></trkpt><trkpt lat="45.2286945" lon="9.0447467"><ele>78.0</ele><time>2026-04-26T07:29:03.65Z</time></trkpt><trkpt lat="45.2286363" lon="9.0448555"><ele>78.0</ele><time>2026-04-26T07:29:05.652Z</time></trkpt><trkpt lat="45.2285823" lon="9.0449806"><ele>78.0</ele><time>2026-04-26T07:29:07.646Z</time></trkpt><trkpt lat="45.228535" lon="9.0451073"><ele>78.0</ele><time>2026-04-26T07:29:09.647Z</time></trkpt><trkpt lat="45.2285065" lon="9.0452311"><ele>78.0</ele><time>2026-04-26T07:29:11.646Z</time></trkpt><trkpt lat="45.2284968" lon="9.0453595"><ele>78.0</ele><time>2026-04-26T07:29:13.652Z</time></trkpt><trkpt lat="45.2284924" lon="9.0454887"><ele>78.0</ele><time>2026-04-26T07:29:15.67Z</time></trkpt><trkpt lat="45.2284962" lon="9.0456487"><ele>78.0</ele><time>2026-04-26T07:29:17.646Z</time></trkpt><trkpt lat="45.2284967" lon="9.0457996"><ele>78.0</ele><time>2026-04-26T07:29:19.725Z</time></trkpt><trkpt lat="45.2284982" lon="9.0459252"><ele>78.0</ele><time>2026-04-26T07:29:21.668Z</time></trkpt><trkpt lat="45.2284966" lon="9.0460338"><ele>78.0</ele><time>2026-04-26T07:29:23.646Z</time></trkpt><trkpt lat="45.228499" lon="9.0461352"><ele>78.0</ele><time>2026-04-26T07:29:25.651Z</time></trkpt><trkpt lat="45.2284981" lon="9.0462471"><ele>78.0</ele><time>2026-04-26T07:29:27.651Z</time></trkpt><trkpt lat="45.2285081" lon="9.0463562"><ele>78.0</ele><time>2026-04-26T07:29:29.644Z</time></trkpt><trkpt lat="45.22851" lon="9.0464928"><ele>78.0</ele><time>2026-04-26T07:29:31.647Z</time></trkpt><trkpt lat="45.2285198" lon="9.046618"><ele>78.0</ele><time>2026-04-26T07:29:33.67Z</time></trkpt><trkpt lat="45.2285321" lon="9.0467448"><ele>77.5</ele><time>2026-04-26T07:29:35.654Z</time></trkpt><trkpt lat="45.2285711" lon="9.0468442"><ele>77.0</ele><time>2026-04-26T07:29:37.645Z</time></trkpt><trkpt lat="45.2286324" lon="9.0469147"><ele>76.5</ele><time>2026-04-26T07:29:39.644Z</time></trkpt><trkpt lat="45.2286676" lon="9.0470188"><ele>76.0</ele><time>2026-04-26T07:29:41.651Z</time></trkpt><trkpt lat="45.2286835" lon="9.0471537"><ele>75.5</ele><time>2026-04-26T07:29:43.674Z</time></trkpt><trkpt lat="45.2286752" lon="9.0472824"><ele>75.0</ele><time>2026-04-26T07:29:45.653Z</time></trkpt><trkpt lat="45.2286612" lon="9.047405"><ele>75.2</ele><time>2026-04-26T07:29:47.644Z</time></trkpt><trkpt lat="45.2286491" lon="9.0475325"><ele>75.4</ele><time>2026-04-26T07:29:49.647Z</time></trkpt><trkpt lat="45.2286351" lon="9.0476601"><ele>75.6</ele><time>2026-04-26T07:29:51.65Z</time></trkpt><trkpt lat="45.2286212" lon="9.0477883"><ele>75.8</ele><time>2026-04-26T07:29:53.641Z</time></trkpt><trkpt lat="45.2286002" lon="9.047914"><ele>76.0</ele><time>2026-04-26T07:29:55.649Z</time></trkpt><trkpt lat="45.2285888" lon="9.0480427"><ele>76.0</ele><time>2026-04-26T07:29:57.666Z</time></trkpt><trkpt lat="45.2285738" lon="9.0481612"><ele>76.0</ele><time>2026-04-26T07:29:59.641Z</time></trkpt><trkpt lat="45.228558" lon="9.0482838"><ele>76.0</ele><time>2026-04-26T07:30:01.646Z</time></trkpt><trkpt lat="45.2285406" lon="9.0484084"><ele>76.0</ele><time>2026-04-26T07:30:03.642Z</time></trkpt><trkpt lat="45.2285292" lon="9.0485391"><ele>76.0</ele><time>2026-04-26T07:30:05.646Z</time></trkpt><trkpt lat="45.2285191" lon="9.0486584"><ele>76.0</ele><time>2026-04-26T07:30:07.647Z</time></trkpt><trkpt lat="45.2285088" lon="9.0487934"><ele>76.33333333333333</ele><time>2026-04-26T07:30:09.649Z</time></trkpt><trkpt lat="45.2284939" lon="9.0489255"><ele>76.66666666666666</ele><time>2026-04-26T07:30:11.673Z</time></trkpt><trkpt lat="45.2284792" lon="9.0490573"><ele>77.0</ele><time>2026-04-26T07:30:13.643Z</time></trkpt><trkpt lat="45.2284662" lon="9.0491902"><ele>77.33333333333333</ele><time>2026-04-26T07:30:15.641Z</time></trkpt><trkpt lat="45.2284515" lon="9.0493154"><ele>77.66666666666667</ele><time>2026-04-26T07:30:17.648Z</time></trkpt><trkpt lat="45.2284418" lon="9.0494225"><ele>78.0</ele><time>2026-04-26T07:30:19.646Z</time></trkpt><trkpt lat="45.2284378" lon="9.0495191"><ele>78.0</ele><time>2026-04-26T07:30:21.65Z</time></trkpt><trkpt lat="45.2284202" lon="9.049639"><ele>78.0</ele><time>2026-04-26T07:30:23.649Z</time></trkpt><trkpt lat="45.2284038" lon="9.0497552"><ele>78.0</ele><time>2026-04-26T07:30:25.643Z</time></trkpt><trkpt lat="45.2283909" lon="9.049873"><ele>78.0</ele><time>2026-04-26T07:30:27.645Z</time></trkpt><trkpt lat="45.2284212" lon="9.0499602"><ele>78.0</ele><time>2026-04-26T07:30:29.639Z</time></trkpt><trkpt lat="45.2284752" lon="9.050011"><ele>78.0</ele><time>2026-04-26T07:30:31.65Z</time></trkpt><trkpt lat="45.2285479" lon="9.0500331"><ele>78.16666666666667</ele><time>2026-04-26T07:30:33.669Z</time></trkpt><trkpt lat="45.2286277" lon="9.0500567"><ele>78.33333333333333</ele><time>2026-04-26T07:30:35.724Z</time></trkpt><trkpt lat="45.2286852" lon="9.0501109"><ele>78.5</ele><time>2026-04-26T07:30:37.659Z</time></trkpt><trkpt lat="45.228733" lon="9.0502188"><ele>78.66666666666666</ele><time>2026-04-26T07:30:39.646Z</time></trkpt><trkpt lat="45.2287358" lon="9.0503151"><ele>78.83333333333333</ele><time>2026-04-26T07:30:41.643Z</time></trkpt><trkpt lat="45.228704" lon="9.0504179"><ele>79.0</ele><time>2026-04-26T07:30:43.651Z</time></trkpt><trkpt lat="45.2286735" lon="9.0505259"><ele>79.0</ele><time>2026-04-26T07:30:45.648Z</time></trkpt><trkpt lat="45.228645" lon="9.0506368"><ele>79.0</ele><time>2026-04-26T07:30:47.656Z</time></trkpt><trkpt lat="45.2286227" lon="9.0507561"><ele>79.0</ele><time>2026-04-26T07:30:49.665Z</time></trkpt><trkpt lat="45.2285979" lon="9.0508766"><ele>79.0</ele><time>2026-04-26T07:30:51.652Z</time></trkpt><trkpt lat="45.2285747" lon="9.0509998"><ele>79.0</ele><time>2026-04-26T07:30:53.654Z</time></trkpt><trkpt lat="45.2285525" lon="9.0511244"><ele>79.0</ele><time>2026-04-26T07:30:55.646Z</time></trkpt><trkpt lat="45.2285289" lon="9.0512608"><ele>79.0</ele><time>2026-04-26T07:30:57.653Z</time></trkpt><trkpt lat="45.2285251" lon="9.0513865"><ele>79.0</ele><time>2026-04-26T07:30:59.653Z</time></trkpt><trkpt lat="45.2285667" lon="9.0514673"><ele>79.0</ele><time>2026-04-26T07:31:01.639Z</time></trkpt><trkpt lat="45.2286368" lon="9.0514855"><ele>79.0</ele><time>2026-04-26T07:31:03.648Z</time></trkpt><trkpt lat="45.2287147" lon="9.0514985"><ele>79.0</ele><time>2026-04-26T07:31:05.654Z</time></trkpt><trkpt lat="45.2287746" lon="9.051569"><ele>79.0</ele><time>2026-04-26T07:31:07.663Z</time></trkpt><trkpt lat="45.2287952" lon="9.0516664"><ele>78.5</ele><time>2026-04-26T07:31:09.653Z</time></trkpt><trkpt lat="45.228784" lon="9.051792"><ele>78.0</ele><time>2026-04-26T07:31:11.646Z</time></trkpt><trkpt lat="45.22877" lon="9.0519145"><ele>77.5</ele><time>2026-04-26T07:31:13.718Z</time></trkpt><trkpt lat="45.2287605" lon="9.0520488"><ele>77.0</ele><time>2026-04-26T07:31:15.652Z</time></trkpt><trkpt lat="45.2287524" lon="9.0521741"><ele>76.5</ele><time>2026-04-26T07:31:17.651Z</time></trkpt><trkpt lat="45.2287408" lon="9.0522994"><ele>76.0</ele><time>2026-04-26T07:31:19.647Z</time></trkpt><trkpt lat="45.2287315" lon="9.0524304"><ele>76.0</ele><time>2026-04-26T07:31:21.655Z</time></trkpt><trkpt lat="45.2287221" lon="9.0525553"><ele>76.0</ele><time>2026-04-26T07:31:23.649Z</time></trkpt><trkpt lat="45.2287147" lon="9.0526905"><ele>76.0</ele><time>2026-04-26T07:31:25.655Z</time></trkpt><trkpt lat="45.2287066" lon="9.0528117"><ele>76.0</ele><time>2026-04-26T07:31:27.649Z</time></trkpt><trkpt lat="45.2286965" lon="9.0529321"><ele>76.0</ele><time>2026-04-26T07:31:29.65Z</time></trkpt><trkpt lat="45.2286787" lon="9.0530591"><ele>76.0</ele><time>2026-04-26T07:31:31.64Z</time></trkpt><trkpt lat="45.2286656" lon="9.0531913"><ele>76.5</ele><time>2026-04-26T07:31:33.675Z</time></trkpt><trkpt lat="45.2286467" lon="9.0533161"><ele>77.0</ele><time>2026-04-26T07:31:35.654Z</time></trkpt><trkpt lat="45.2286183" lon="9.053421"><ele>77.5</ele><time>2026-04-26T07:31:37.652Z</time></trkpt><trkpt lat="45.2285756" lon="9.0535334"><ele>78.0</ele><time>2026-04-26T07:31:39.647Z</time></trkpt><trkpt lat="45.2285262" lon="9.0536311"><ele>78.5</ele><time>2026-04-26T07:31:41.668Z</time></trkpt><trkpt lat="45.2284902" lon="9.0537373"><ele>79.0</ele><time>2026-04-26T07:31:43.651Z</time></trkpt><trkpt lat="45.2284441" lon="9.0538433"><ele>79.0</ele><time>2026-04-26T07:31:46.649Z</time></trkpt><trkpt lat="45.2284061" lon="9.0539167"><ele>79.0</ele><time>2026-04-26T07:31:48.644Z</time></trkpt><trkpt lat="45.2283507" lon="9.0539705"><ele>79.0</ele><time>2026-04-26T07:31:50.651Z</time></trkpt><trkpt lat="45.2282697" lon="9.053969"><ele>79.0</ele><time>2026-04-26T07:31:52.654Z</time></trkpt><trkpt lat="45.2281641" lon="9.0539"><ele>79.0</ele><time>2026-04-26T07:31:54.646Z</time></trkpt><trkpt lat="45.2280545" lon="9.0538386"><ele>79.0</ele><time>2026-04-26T07:31:56.65Z</time></trkpt><trkpt lat="45.2279611" lon="9.0537804"><ele>78.60000000000001</ele><time>2026-04-26T07:31:58.65Z</time></trkpt><trkpt lat="45.2278648" lon="9.0537304"><ele>78.2</ele><time>2026-04-26T07:32:00.655Z</time></trkpt><trkpt lat="45.2277669" lon="9.0536753"><ele>77.80000000000001</ele><time>2026-04-26T07:32:02.652Z</time></trkpt><trkpt lat="45.2276754" lon="9.0536291"><ele>77.4</ele><time>2026-04-26T07:32:04.652Z</time></trkpt><trkpt lat="45.2275864" lon="9.0535763"><ele>77.0</ele><time>2026-04-26T07:32:06.662Z</time></trkpt><trkpt lat="45.2275033" lon="9.0535421"><ele>77.0</ele><time>2026-04-26T07:32:08.654Z</time></trkpt><trkpt lat="45.2274173" lon="9.0535339"><ele>77.0</ele><time>2026-04-26T07:32:10.653Z</time></trkpt><trkpt lat="45.2273302" lon="9.0535897"><ele>77.0</ele><time>2026-04-26T07:32:12.647Z</time></trkpt><trkpt lat="45.2272712" lon="9.0536794"><ele>77.0</ele><time>2026-04-26T07:32:14.646Z</time></trkpt><trkpt lat="45.2272206" lon="9.0537817"><ele>77.0</ele><time>2026-04-26T07:32:16.655Z</time></trkpt><trkpt lat="45.2271764" lon="9.0538881"><ele>77.0</ele><time>2026-04-26T07:32:18.658Z</time></trkpt><trkpt lat="45.227132" lon="9.0540147"><ele>76.6</ele><time>2026-04-26T07:32:20.649Z</time></trkpt><trkpt lat="45.2270881" lon="9.0541362"><ele>76.2</ele><time>2026-04-26T07:32:22.656Z</time></trkpt><trkpt lat="45.2270473" lon="9.0542554"><ele>75.8</ele><time>2026-04-26T07:32:24.659Z</time></trkpt><trkpt lat="45.2270111" lon="9.0543753"><ele>75.4</ele><time>2026-04-26T07:32:26.652Z</time></trkpt><trkpt lat="45.2269741" lon="9.0545011"><ele>75.0</ele><time>2026-04-26T07:32:28.647Z</time></trkpt><trkpt lat="45.2269363" lon="9.0546178"><ele>75.0</ele><time>2026-04-26T07:32:30.66Z</time></trkpt><trkpt lat="45.2268935" lon="9.0547361"><ele>75.0</ele><time>2026-04-26T07:32:32.65Z</time></trkpt><trkpt lat="45.2268492" lon="9.054867"><ele>75.0</ele><time>2026-04-26T07:32:34.65Z</time></trkpt><trkpt lat="45.2268061" lon="9.0549819"><ele>75.0</ele><time>2026-04-26T07:32:36.646Z</time></trkpt><trkpt lat="45.2267636" lon="9.0550937"><ele>75.0</ele><time>2026-04-26T07:32:38.644Z</time></trkpt><trkpt lat="45.2267177" lon="9.0552213"><ele>75.2</ele><time>2026-04-26T07:32:40.651Z</time></trkpt><trkpt lat="45.2266768" lon="9.05535"><ele>75.4</ele><time>2026-04-26T07:32:42.658Z</time></trkpt><trkpt lat="45.2266453" lon="9.0554672"><ele>75.6</ele><time>2026-04-26T07:32:44.648Z</time></trkpt><trkpt lat="45.2266052" lon="9.0555944"><ele>75.8</ele><time>2026-04-26T07:32:46.644Z</time></trkpt><trkpt lat="45.2265561" lon="9.0557224"><ele>76.0</ele><time>2026-04-26T07:32:48.642Z</time></trkpt><trkpt lat="45.226511" lon="9.0558348"><ele>75.66666666666666</ele><time>2026-04-26T07:32:50.65Z</time></trkpt><trkpt lat="45.2264715" lon="9.055934"><ele>75.33333333333333</ele><time>2026-04-26T07:32:52.655Z</time></trkpt><trkpt lat="45.2264325" lon="9.0560358"><ele>75.0</ele><time>2026-04-26T07:32:54.641Z</time></trkpt><trkpt lat="45.2263779" lon="9.0561509"><ele>74.66666666666667</ele><time>2026-04-26T07:32:56.649Z</time></trkpt><trkpt lat="45.2263283" lon="9.056273"><ele>74.33333333333334</ele><time>2026-04-26T07:32:58.646Z</time></trkpt><trkpt lat="45.2262907" lon="9.0563817"><ele>74.0</ele><time>2026-04-26T07:33:00.648Z</time></trkpt><trkpt lat="45.2262536" lon="9.0564777"><ele>74.0</ele><time>2026-04-26T07:33:02.641Z</time></trkpt><trkpt lat="45.2262043" lon="9.0565945"><ele>74.0</ele><time>2026-04-26T07:33:04.727Z</time></trkpt><trkpt lat="45.2261401" lon="9.0566647"><ele>74.0</ele><time>2026-04-26T07:33:06.658Z</time></trkpt><trkpt lat="45.2260638" lon="9.0567236"><ele>74.0</ele><time>2026-04-26T07:33:08.652Z</time></trkpt><trkpt lat="45.2259765" lon="9.0567692"><ele>74.0</ele><time>2026-04-26T07:33:10.651Z</time></trkpt><trkpt lat="45.2258964" lon="9.0568459"><ele>74.0</ele><time>2026-04-26T07:33:12.651Z</time></trkpt><trkpt lat="45.2258455" lon="9.0569214"><ele>74.0</ele><time>2026-04-26T07:33:14.643Z</time></trkpt><trkpt lat="45.2258" lon="9.0570053"><ele>74.0</ele><time>2026-04-26T07:33:16.649Z</time></trkpt><trkpt lat="45.2257521" lon="9.0570904"><ele>74.0</ele><time>2026-04-26T07:33:18.657Z</time></trkpt><trkpt lat="45.2257045" lon="9.0572064"><ele>74.0</ele><time>2026-04-26T07:33:20.74Z</time></trkpt><trkpt lat="45.2256519" lon="9.0573161"><ele>74.0</ele><time>2026-04-26T07:33:22.654Z</time></trkpt><trkpt lat="45.2256154" lon="9.0574027"><ele>74.16666666666667</ele><time>2026-04-26T07:33:24.654Z</time></trkpt><trkpt lat="45.2255786" lon="9.0575005"><ele>74.33333333333334</ele><time>2026-04-26T07:33:26.648Z</time></trkpt><trkpt lat="45.2255367" lon="9.0575935"><ele>74.5</ele><time>2026-04-26T07:33:28.644Z</time></trkpt><trkpt lat="45.225496" lon="9.057695"><ele>74.66666666666667</ele><time>2026-04-26T07:33:30.646Z</time></trkpt><trkpt lat="45.2254539" lon="9.0577827"><ele>74.83333333333333</ele><time>2026-04-26T07:33:32.648Z</time></trkpt><trkpt lat="45.2254104" lon="9.0578806"><ele>75.0</ele><time>2026-04-26T07:33:34.642Z</time></trkpt><trkpt lat="45.2253778" lon="9.0579592"><ele>75.0</ele><time>2026-04-26T07:33:35.657Z</time></trkpt><trkpt lat="45.2253308" lon="9.0580834"><ele>75.0</ele><time>2026-04-26T07:33:37.644Z</time></trkpt><trkpt lat="45.2252646" lon="9.0581897"><ele>75.0</ele><time>2026-04-26T07:33:39.648Z</time></trkpt><trkpt lat="45.2251863" lon="9.0583031"><ele>75.0</ele><time>2026-04-26T07:33:41.645Z</time></trkpt><trkpt lat="45.2251315" lon="9.0583656"><ele>75.0</ele><time>2026-04-26T07:33:42.651Z</time></trkpt><trkpt lat="45.2250777" lon="9.0584393"><ele>75.16666666666667</ele><time>2026-04-26T07:33:43.651Z</time></trkpt><trkpt lat="45.2250269" lon="9.0585143"><ele>75.33333333333333</ele><time>2026-04-26T07:33:44.644Z</time></trkpt><trkpt lat="45.224977" lon="9.0585854"><ele>75.5</ele><time>2026-04-26T07:33:45.653Z</time></trkpt><trkpt lat="45.2248891" lon="9.0586901"><ele>75.66666666666666</ele><time>2026-04-26T07:33:47.666Z</time></trkpt><trkpt lat="45.224807" lon="9.0587759"><ele>75.83333333333333</ele><time>2026-04-26T07:33:49.643Z</time></trkpt><trkpt lat="45.2247407" lon="9.0587476"><ele>76.0</ele><time>2026-04-26T07:33:52.652Z</time></trkpt><trkpt lat="45.2247223" lon="9.0586523"><ele>75.66666666666666</ele><time>2026-04-26T07:33:54.656Z</time></trkpt><trkpt lat="45.2247419" lon="9.0585549"><ele>75.33333333333333</ele><time>2026-04-26T07:33:56.649Z</time></trkpt><trkpt lat="45.22475" lon="9.0584653"><ele>75.0</ele><time>2026-04-26T07:33:58.647Z</time></trkpt><trkpt lat="45.2246826" lon="9.0583853"><ele>74.66666666666667</ele><time>2026-04-26T07:34:01.649Z</time></trkpt><trkpt lat="45.224584" lon="9.0583584"><ele>74.33333333333334</ele><time>2026-04-26T07:34:03.645Z</time></trkpt><trkpt lat="45.2244738" lon="9.0583829"><ele>74.0</ele><time>2026-04-26T07:34:05.647Z</time></trkpt><trkpt lat="45.2243828" lon="9.0583921"><ele>74.0</ele><time>2026-04-26T07:34:07.643Z</time></trkpt><trkpt lat="45.2242693" lon="9.0583901"><ele>74.0</ele><time>2026-04-26T07:34:09.65Z</time></trkpt><trkpt lat="45.2241688" lon="9.0583652"><ele>74.0</ele><time>2026-04-26T07:34:11.667Z</time></trkpt><trkpt lat="45.2240664" lon="9.0583591"><ele>74.0</ele><time>2026-04-26T07:34:13.651Z</time></trkpt><trkpt lat="45.2239642" lon="9.0583644"><ele>74.0</ele><time>2026-04-26T07:34:15.654Z</time></trkpt><trkpt lat="45.2238693" lon="9.0583347"><ele>74.0</ele><time>2026-04-26T07:34:17.651Z</time></trkpt><trkpt lat="45.2237792" lon="9.0583142"><ele>74.0</ele><time>2026-04-26T07:34:19.65Z</time></trkpt><trkpt lat="45.2236896" lon="9.0582875"><ele>74.0</ele><time>2026-04-26T07:34:21.649Z</time></trkpt><trkpt lat="45.2236057" lon="9.0582594"><ele>74.0</ele><time>2026-04-26T07:34:23.654Z</time></trkpt><trkpt lat="45.2235185" lon="9.058247"><ele>74.0</ele><time>2026-04-26T07:34:25.66Z</time></trkpt><trkpt lat="45.2234494" lon="9.0582302"><ele>74.0</ele><time>2026-04-26T07:34:27.643Z</time></trkpt><trkpt lat="45.2233679" lon="9.0582091"><ele>73.16666666666667</ele><time>2026-04-26T07:34:29.653Z</time></trkpt><trkpt lat="45.2232865" lon="9.0581774"><ele>72.33333333333334</ele><time>2026-04-26T07:34:31.649Z</time></trkpt><trkpt lat="45.2232119" lon="9.0581508"><ele>71.5</ele><time>2026-04-26T07:34:33.743Z</time></trkpt><trkpt lat="45.2231295" lon="9.0581111"><ele>70.66666666666667</ele><time>2026-04-26T07:34:35.674Z</time></trkpt><trkpt lat="45.2230468" lon="9.058083"><ele>69.83333333333333</ele><time>2026-04-26T07:34:37.65Z</time></trkpt><trkpt lat="45.2229732" lon="9.0581188"><ele>69.0</ele><time>2026-04-26T07:34:39.651Z</time></trkpt><trkpt lat="45.2229215" lon="9.0582223"><ele>69.33333333333333</ele><time>2026-04-26T07:34:41.653Z</time></trkpt><trkpt lat="45.2228778" lon="9.0583202"><ele>69.66666666666667</ele><time>2026-04-26T07:34:43.652Z</time></trkpt><trkpt lat="45.2228304" lon="9.058429"><ele>70.0</ele><time>2026-04-26T07:34:45.647Z</time></trkpt><trkpt lat="45.222787" lon="9.0585337"><ele>70.33333333333334</ele><time>2026-04-26T07:34:47.646Z</time></trkpt><trkpt lat="45.2227508" lon="9.0586338"><ele>70.66666666666667</ele><time>2026-04-26T07:34:49.646Z</time></trkpt><trkpt lat="45.2227117" lon="9.058729"><ele>71.0</ele><time>2026-04-26T07:34:51.652Z</time></trkpt><trkpt lat="45.2226691" lon="9.0588102"><ele>71.0</ele><time>2026-04-26T07:34:53.641Z</time></trkpt><trkpt lat="45.2225964" lon="9.0588926"><ele>71.0</ele><time>2026-04-26T07:34:56.649Z</time></trkpt><trkpt lat="45.2225353" lon="9.0589236"><ele>71.0</ele><time>2026-04-26T07:34:58.655Z</time></trkpt><trkpt lat="45.2224691" lon="9.0589663"><ele>71.0</ele><time>2026-04-26T07:35:00.647Z</time></trkpt><trkpt lat="45.2223646" lon="9.0591091"><ele>71.0</ele><time>2026-04-26T07:35:03.642Z</time></trkpt><trkpt lat="45.2223106" lon="9.0591961"><ele>71.2</ele><time>2026-04-26T07:35:05.644Z</time></trkpt><trkpt lat="45.2222537" lon="9.0592816"><ele>71.39999999999999</ele><time>2026-04-26T07:35:07.651Z</time></trkpt><trkpt lat="45.2221927" lon="9.0593581"><ele>71.6</ele><time>2026-04-26T07:35:09.647Z</time></trkpt><trkpt lat="45.2221217" lon="9.0594389"><ele>71.8</ele><time>2026-04-26T07:35:11.647Z</time></trkpt><trkpt lat="45.2220554" lon="9.0595132"><ele>72.0</ele><time>2026-04-26T07:35:13.644Z</time></trkpt><trkpt lat="45.2219492" lon="9.059622"><ele>72.0</ele><time>2026-04-26T07:35:16.655Z</time></trkpt><trkpt lat="45.2218726" lon="9.0597015"><ele>72.0</ele><time>2026-04-26T07:35:18.648Z</time></trkpt><trkpt lat="45.2218073" lon="9.0597706"><ele>72.0</ele><time>2026-04-26T07:35:20.641Z</time></trkpt><trkpt lat="45.2217319" lon="9.0598512"><ele>72.0</ele><time>2026-04-26T07:35:22.65Z</time></trkpt><trkpt lat="45.2216619" lon="9.0599394"><ele>72.0</ele><time>2026-04-26T07:35:24.657Z</time></trkpt><trkpt lat="45.221586" lon="9.0600179"><ele>72.66666666666667</ele><time>2026-04-26T07:35:26.749Z</time></trkpt><trkpt lat="45.2215244" lon="9.060093"><ele>73.33333333333333</ele><time>2026-04-26T07:35:28.653Z</time></trkpt><trkpt lat="45.2214601" lon="9.0601631"><ele>74.0</ele><time>2026-04-26T07:35:30.648Z</time></trkpt><trkpt lat="45.2213894" lon="9.0602414"><ele>74.66666666666666</ele><time>2026-04-26T07:35:32.649Z</time></trkpt><trkpt lat="45.2213158" lon="9.0603228"><ele>75.33333333333333</ele><time>2026-04-26T07:35:34.646Z</time></trkpt><trkpt lat="45.2212445" lon="9.0603923"><ele>76.0</ele><time>2026-04-26T07:35:36.642Z</time></trkpt><trkpt lat="45.2211869" lon="9.0604627"><ele>76.0</ele><time>2026-04-26T07:35:38.649Z</time></trkpt><trkpt lat="45.2211248" lon="9.0605261"><ele>76.0</ele><time>2026-04-26T07:35:40.652Z</time></trkpt><trkpt lat="45.2210546" lon="9.0606103"><ele>76.0</ele><time>2026-04-26T07:35:42.645Z</time></trkpt><trkpt lat="45.2209817" lon="9.0606855"><ele>76.0</ele><time>2026-04-26T07:35:44.644Z</time></trkpt><trkpt lat="45.2209119" lon="9.0607616"><ele>76.0</ele><time>2026-04-26T07:35:46.65Z</time></trkpt><trkpt lat="45.2208473" lon="9.0608409"><ele>76.0</ele><time>2026-04-26T07:35:48.651Z</time></trkpt><trkpt lat="45.2207819" lon="9.0609095"><ele>76.16666666666666</ele><time>2026-04-26T07:35:50.643Z</time></trkpt><trkpt lat="45.2207097" lon="9.0609821"><ele>76.33333333333333</ele><time>2026-04-26T07:35:52.648Z</time></trkpt><trkpt lat="45.2206336" lon="9.0610693"><ele>76.5</ele><time>2026-04-26T07:35:54.65Z</time></trkpt><trkpt lat="45.2205588" lon="9.061142"><ele>76.66666666666667</ele><time>2026-04-26T07:35:56.657Z</time></trkpt><trkpt lat="45.2204858" lon="9.0612187"><ele>76.83333333333334</ele><time>2026-04-26T07:35:58.648Z</time></trkpt><trkpt lat="45.2204337" lon="9.0612793"><ele>77.0</ele><time>2026-04-26T07:36:00.65Z</time></trkpt><trkpt lat="45.2203562" lon="9.0612552"><ele>77.0</ele><time>2026-04-26T07:36:05.639Z</time></trkpt><trkpt lat="45.2203085" lon="9.0611493"><ele>77.0</ele><time>2026-04-26T07:36:08.651Z</time></trkpt><trkpt lat="45.2202697" lon="9.0610403"><ele>77.0</ele><time>2026-04-26T07:36:11.647Z</time></trkpt><trkpt lat="45.2202081" lon="9.06095"><ele>77.0</ele><time>2026-04-26T07:36:15.718Z</time></trkpt><trkpt lat="45.2201691" lon="9.0608661"><ele>77.0</ele><time>2026-04-26T07:36:17.655Z</time></trkpt><trkpt lat="45.2201324" lon="9.0607681"><ele>77.0</ele><time>2026-04-26T07:36:19.639Z</time></trkpt><trkpt lat="45.2201077" lon="9.0606589"><ele>77.0</ele><time>2026-04-26T07:36:21.642Z</time></trkpt><trkpt lat="45.2200772" lon="9.0605572"><ele>77.0</ele><time>2026-04-26T07:36:23.648Z</time></trkpt><trkpt lat="45.2200522" lon="9.0604415"><ele>77.0</ele><time>2026-04-26T07:36:25.647Z</time></trkpt><trkpt lat="45.2200266" lon="9.0603221"><ele>77.0</ele><time>2026-04-26T07:36:27.641Z</time></trkpt><trkpt lat="45.2199998" lon="9.0602039"><ele>77.0</ele><time>2026-04-26T07:36:29.722Z</time></trkpt><trkpt lat="45.2199748" lon="9.060086"><ele>77.0</ele><time>2026-04-26T07:36:31.632Z</time></trkpt><trkpt lat="45.2199508" lon="9.0599644"><ele>76.33333333333334</ele><time>2026-04-26T07:36:33.649Z</time></trkpt><trkpt lat="45.2199239" lon="9.059839"><ele>75.66666666666667</ele><time>2026-04-26T07:36:35.654Z</time></trkpt><trkpt lat="45.2198995" lon="9.0597261"><ele>75.0</ele><time>2026-04-26T07:36:37.634Z</time></trkpt><trkpt lat="45.2198754" lon="9.0596124"><ele>74.33333333333333</ele><time>2026-04-26T07:36:39.64Z</time></trkpt><trkpt lat="45.2198609" lon="9.0595178"><ele>73.66666666666666</ele><time>2026-04-26T07:36:41.646Z</time></trkpt><trkpt lat="45.219783" lon="9.0594536"><ele>73.0</ele><time>2026-04-26T07:36:45.643Z</time></trkpt><trkpt lat="45.2196989" lon="9.0594333"><ele>72.83333333333333</ele><time>2026-04-26T07:36:48.647Z</time></trkpt><trkpt lat="45.2196136" lon="9.0594562"><ele>72.66666666666666</ele><time>2026-04-26T07:36:51.654Z</time></trkpt><trkpt lat="45.2195282" lon="9.0594505"><ele>72.5</ele><time>2026-04-26T07:36:54.653Z</time></trkpt><trkpt lat="45.2194449" lon="9.059471"><ele>72.33333333333333</ele><time>2026-04-26T07:36:57.651Z</time></trkpt><trkpt lat="45.2193954" lon="9.0594133"><ele>72.16666666666667</ele><time>2026-04-26T07:36:59.637Z</time></trkpt><trkpt lat="45.2193024" lon="9.059392"><ele>72.0</ele><time>2026-04-26T07:37:02.638Z</time></trkpt><trkpt lat="45.2192335" lon="9.0594054"><ele>72.0</ele><time>2026-04-26T07:37:04.637Z</time></trkpt><trkpt lat="45.2191483" lon="9.0594297"><ele>72.0</ele><time>2026-04-26T07:37:06.646Z</time></trkpt><trkpt lat="45.2190752" lon="9.0594645"><ele>72.0</ele><time>2026-04-26T07:37:08.644Z</time></trkpt><trkpt lat="45.2190082" lon="9.0594743"><ele>72.0</ele><time>2026-04-26T07:37:10.646Z</time></trkpt><trkpt lat="45.2189308" lon="9.0594106"><ele>72.0</ele><time>2026-04-26T07:37:13.647Z</time></trkpt><trkpt lat="45.2188594" lon="9.059357"><ele>72.0</ele><time>2026-04-26T07:37:15.672Z</time></trkpt><trkpt lat="45.2188131" lon="9.0592822"><ele>72.28571428571429</ele><time>2026-04-26T07:37:17.647Z</time></trkpt><trkpt lat="45.2187611" lon="9.0592286"><ele>72.57142857142857</ele><time>2026-04-26T07:37:19.634Z</time></trkpt><trkpt lat="45.2186963" lon="9.0592047"><ele>72.85714285714286</ele><time>2026-04-26T07:37:21.648Z</time></trkpt><trkpt lat="45.2186309" lon="9.0591604"><ele>73.14285714285714</ele><time>2026-04-26T07:37:23.646Z</time></trkpt><trkpt lat="45.2185492" lon="9.0591377"><ele>73.42857142857143</ele><time>2026-04-26T07:37:25.643Z</time></trkpt><trkpt lat="45.2184718" lon="9.0591239"><ele>73.71428571428572</ele><time>2026-04-26T07:37:27.645Z</time></trkpt><trkpt lat="45.218407" lon="9.0591276"><ele>74.0</ele><time>2026-04-26T07:37:29.646Z</time></trkpt><trkpt lat="45.2183138" lon="9.0591371"><ele>74.0</ele><time>2026-04-26T07:37:32.647Z</time></trkpt><trkpt lat="45.2182245" lon="9.0591498"><ele>74.0</ele><time>2026-04-26T07:37:35.644Z</time></trkpt><trkpt lat="45.2181577" lon="9.0591521"><ele>74.0</ele><time>2026-04-26T07:37:37.643Z</time></trkpt><trkpt lat="45.2180899" lon="9.0591514"><ele>74.0</ele><time>2026-04-26T07:37:39.647Z</time></trkpt><trkpt lat="45.2180278" lon="9.0591791"><ele>74.0</ele><time>2026-04-26T07:37:41.64Z</time></trkpt><trkpt lat="45.2179586" lon="9.0592352"><ele>74.0</ele><time>2026-04-26T07:37:43.644Z</time></trkpt><trkpt lat="45.217884" lon="9.0592847"><ele>73.83333333333334</ele><time>2026-04-26T07:37:45.645Z</time></trkpt><trkpt lat="45.2178177" lon="9.0593259"><ele>73.66666666666667</ele><time>2026-04-26T07:37:47.646Z</time></trkpt><trkpt lat="45.2177492" lon="9.0593652"><ele>73.5</ele><time>2026-04-26T07:37:49.651Z</time></trkpt><trkpt lat="45.2176725" lon="9.059433"><ele>73.33333333333333</ele><time>2026-04-26T07:37:51.648Z</time></trkpt><trkpt lat="45.2176266" lon="9.0595152"><ele>73.16666666666666</ele><time>2026-04-26T07:37:53.639Z</time></trkpt><trkpt lat="45.2176217" lon="9.059617"><ele>73.0</ele><time>2026-04-26T07:37:56.644Z</time></trkpt><trkpt lat="45.2176301" lon="9.0597194"><ele>73.0</ele><time>2026-04-26T07:37:58.646Z</time></trkpt><trkpt lat="45.2176442" lon="9.0598342"><ele>73.0</ele><time>2026-04-26T07:38:00.648Z</time></trkpt><trkpt lat="45.2176634" lon="9.0599493"><ele>73.0</ele><time>2026-04-26T07:38:02.654Z</time></trkpt><trkpt lat="45.2176861" lon="9.060047"><ele>73.0</ele><time>2026-04-26T07:38:04.646Z</time></trkpt><trkpt lat="45.2177194" lon="9.0601246"><ele>73.0</ele><time>2026-04-26T07:38:06.64Z</time></trkpt><trkpt lat="45.2177903" lon="9.0601723"><ele>73.0</ele><time>2026-04-26T07:38:08.65Z</time></trkpt><trkpt lat="45.2178793" lon="9.0602187"><ele>73.5</ele><time>2026-04-26T07:38:10.655Z</time></trkpt><trkpt lat="45.2179651" lon="9.0602674"><ele>74.0</ele><time>2026-04-26T07:38:13.643Z</time></trkpt><trkpt lat="45.21802" lon="9.0603125"><ele>74.5</ele><time>2026-04-26T07:38:15.642Z</time></trkpt><trkpt lat="45.218086" lon="9.0603741"><ele>75.0</ele><time>2026-04-26T07:38:17.651Z</time></trkpt><trkpt lat="45.2181453" lon="9.060442"><ele>75.5</ele><time>2026-04-26T07:38:19.668Z</time></trkpt><trkpt lat="45.218204" lon="9.0605381"><ele>76.0</ele><time>2026-04-26T07:38:22.643Z</time></trkpt><trkpt lat="45.2181969" lon="9.0606353"><ele>76.0</ele><time>2026-04-26T07:38:24.726Z</time></trkpt><trkpt lat="45.2181395" lon="9.0607066"><ele>76.0</ele><time>2026-04-26T07:38:26.636Z</time></trkpt><trkpt lat="45.218077" lon="9.0607423"><ele>76.0</ele><time>2026-04-26T07:38:28.649Z</time></trkpt><trkpt lat="45.2180147" lon="9.0607903"><ele>76.0</ele><time>2026-04-26T07:38:30.649Z</time></trkpt><trkpt lat="45.2179438" lon="9.0608481"><ele>76.0</ele><time>2026-04-26T07:38:32.648Z</time></trkpt><trkpt lat="45.217868" lon="9.0609022"><ele>76.0</ele><time>2026-04-26T07:38:34.647Z</time></trkpt><trkpt lat="45.2177896" lon="9.0609588"><ele>76.0</ele><time>2026-04-26T07:38:36.649Z</time></trkpt><trkpt lat="45.2177218" lon="9.0610241"><ele>76.0</ele><time>2026-04-26T07:38:38.664Z</time></trkpt><trkpt lat="45.2176512" lon="9.0610981"><ele>76.0</ele><time>2026-04-26T07:38:40.653Z</time></trkpt><trkpt lat="45.2175803" lon="9.0611601"><ele>76.0</ele><time>2026-04-26T07:38:42.643Z</time></trkpt><trkpt lat="45.2175339" lon="9.061228"><ele>76.0</ele><time>2026-04-26T07:38:44.647Z</time></trkpt><trkpt lat="45.2175069" lon="9.0613212"><ele>76.0</ele><time>2026-04-26T07:38:46.651Z</time></trkpt><trkpt lat="45.2174772" lon="9.0614193"><ele>76.0</ele><time>2026-04-26T07:38:48.645Z</time></trkpt><trkpt lat="45.2174379" lon="9.0615194"><ele>76.0</ele><time>2026-04-26T07:38:50.648Z</time></trkpt><trkpt lat="45.2173802" lon="9.0615965"><ele>76.0</ele><time>2026-04-26T07:38:52.649Z</time></trkpt><trkpt lat="45.2173128" lon="9.0616461"><ele>76.0</ele><time>2026-04-26T07:38:54.649Z</time></trkpt><trkpt lat="45.2172408" lon="9.0616712"><ele>76.0</ele><time>2026-04-26T07:38:56.654Z</time></trkpt><trkpt lat="45.2172051" lon="9.0617619"><ele>76.0</ele><time>2026-04-26T07:38:58.645Z</time></trkpt><trkpt lat="45.2172329" lon="9.0618836"><ele>76.0</ele><time>2026-04-26T07:39:01.712Z</time></trkpt><trkpt lat="45.2172618" lon="9.061969"><ele>76.0</ele><time>2026-04-26T07:39:03.648Z</time></trkpt><trkpt lat="45.2172864" lon="9.062058"><ele>76.0</ele><time>2026-04-26T07:39:05.644Z</time></trkpt><trkpt lat="45.2173062" lon="9.0621626"><ele>76.0</ele><time>2026-04-26T07:39:07.652Z</time></trkpt><trkpt lat="45.2173378" lon="9.062261"><ele>76.0</ele><time>2026-04-26T07:39:09.646Z</time></trkpt><trkpt lat="45.217367" lon="9.0623504"><ele>76.0</ele><time>2026-04-26T07:39:11.65Z</time></trkpt><trkpt lat="45.217391" lon="9.0624513"><ele>76.0</ele><time>2026-04-26T07:39:13.642Z</time></trkpt><trkpt lat="45.2173947" lon="9.0625418"><ele>76.0</ele><time>2026-04-26T07:39:15.639Z</time></trkpt><trkpt lat="45.2173694" lon="9.0626289"><ele>76.0</ele><time>2026-04-26T07:39:17.664Z</time></trkpt><trkpt lat="45.2173424" lon="9.062758"><ele>76.0</ele><time>2026-04-26T07:39:20.643Z</time></trkpt><trkpt lat="45.217365" lon="9.062867"><ele>76.0</ele><time>2026-04-26T07:39:22.652Z</time></trkpt><trkpt lat="45.2173872" lon="9.0629647"><ele>76.0</ele><time>2026-04-26T07:39:24.642Z</time></trkpt><trkpt lat="45.2174086" lon="9.0631288"><ele>76.0</ele><time>2026-04-26T07:39:27.64Z</time></trkpt><trkpt lat="45.2174335" lon="9.0632492"><ele>75.83333333333333</ele><time>2026-04-26T07:39:29.647Z</time></trkpt><trkpt lat="45.2174558" lon="9.0633484"><ele>75.66666666666666</ele><time>2026-04-26T07:39:31.639Z</time></trkpt><trkpt lat="45.2174806" lon="9.0634609"><ele>75.5</ele><time>2026-04-26T07:39:33.64Z</time></trkpt><trkpt lat="45.2175018" lon="9.0635735"><ele>75.33333333333333</ele><time>2026-04-26T07:39:35.65Z</time></trkpt><trkpt lat="45.2175289" lon="9.0636956"><ele>75.16666666666667</ele><time>2026-04-26T07:39:37.657Z</time></trkpt><trkpt lat="45.2175515" lon="9.0638124"><ele>75.0</ele><time>2026-04-26T07:39:39.651Z</time></trkpt><trkpt lat="45.2175779" lon="9.0639313"><ele>75.0</ele><time>2026-04-26T07:39:41.648Z</time></trkpt><trkpt lat="45.2176009" lon="9.064039"><ele>75.0</ele><time>2026-04-26T07:39:43.72Z</time></trkpt><trkpt lat="45.2176276" lon="9.0641677"><ele>75.0</ele><time>2026-04-26T07:39:45.668Z</time></trkpt><trkpt lat="45.217652" lon="9.0642849"><ele>75.0</ele><time>2026-04-26T07:39:47.653Z</time></trkpt><trkpt lat="45.2176741" lon="9.0643974"><ele>75.0</ele><time>2026-04-26T07:39:49.64Z</time></trkpt><trkpt lat="45.2176921" lon="9.0645031"><ele>75.0</ele><time>2026-04-26T07:39:51.66Z</time></trkpt><trkpt lat="45.2177165" lon="9.0646099"><ele>75.16666666666667</ele><time>2026-04-26T07:39:53.659Z</time></trkpt><trkpt lat="45.2177469" lon="9.06473"><ele>75.33333333333333</ele><time>2026-04-26T07:39:55.641Z</time></trkpt><trkpt lat="45.2177709" lon="9.0648413"><ele>75.5</ele><time>2026-04-26T07:39:57.637Z</time></trkpt><trkpt lat="45.217798" lon="9.0649626"><ele>75.66666666666666</ele><time>2026-04-26T07:39:59.646Z</time></trkpt><trkpt lat="45.2178273" lon="9.0650739"><ele>75.83333333333333</ele><time>2026-04-26T07:40:01.648Z</time></trkpt><trkpt lat="45.2178535" lon="9.0651869"><ele>76.0</ele><time>2026-04-26T07:40:03.65Z</time></trkpt><trkpt lat="45.2178814" lon="9.065299"><ele>76.0</ele><time>2026-04-26T07:40:05.658Z</time></trkpt><trkpt lat="45.2179004" lon="9.0654062"><ele>76.0</ele><time>2026-04-26T07:40:07.644Z</time></trkpt><trkpt lat="45.2179249" lon="9.0655123"><ele>76.0</ele><time>2026-04-26T07:40:09.66Z</time></trkpt><trkpt lat="45.2179462" lon="9.0656159"><ele>76.0</ele><time>2026-04-26T07:40:11.645Z</time></trkpt><trkpt lat="45.2179641" lon="9.0657153"><ele>76.0</ele><time>2026-04-26T07:40:13.646Z</time></trkpt><trkpt lat="45.2179908" lon="9.0658252"><ele>76.0</ele><time>2026-04-26T07:40:15.636Z</time></trkpt><trkpt lat="45.2180176" lon="9.0659364"><ele>76.0</ele><time>2026-04-26T07:40:17.65Z</time></trkpt><trkpt lat="45.2180436" lon="9.0660366"><ele>76.0</ele><time>2026-04-26T07:40:19.647Z</time></trkpt><trkpt lat="45.2180582" lon="9.0661284"><ele>76.0</ele><time>2026-04-26T07:40:21.644Z</time></trkpt><trkpt lat="45.2180371" lon="9.0662336"><ele>76.0</ele><time>2026-04-26T07:40:24.648Z</time></trkpt><trkpt lat="45.2179695" lon="9.0663109"><ele>76.0</ele><time>2026-04-26T07:40:27.648Z</time></trkpt><trkpt lat="45.2178924" lon="9.0663832"><ele>76.0</ele><time>2026-04-26T07:40:30.646Z</time></trkpt><trkpt lat="45.2178245" lon="9.0664345"><ele>76.0</ele><time>2026-04-26T07:40:32.653Z</time></trkpt><trkpt lat="45.2177587" lon="9.0664862"><ele>76.0</ele><time>2026-04-26T07:40:34.645Z</time></trkpt><trkpt lat="45.2176977" lon="9.0665405"><ele>76.0</ele><time>2026-04-26T07:40:36.646Z</time></trkpt><trkpt lat="45.2176255" lon="9.0666067"><ele>76.0</ele><time>2026-04-26T07:40:38.638Z</time></trkpt><trkpt lat="45.2175588" lon="9.0666625"><ele>76.0</ele><time>2026-04-26T07:40:40.637Z</time></trkpt><trkpt lat="45.2174928" lon="9.0667191"><ele>76.0</ele><time>2026-04-26T07:40:42.644Z</time></trkpt><trkpt lat="45.2174218" lon="9.066781"><ele>76.0</ele><time>2026-04-26T07:40:44.641Z</time></trkpt><trkpt lat="45.217349" lon="9.0668303"><ele>76.0</ele><time>2026-04-26T07:40:46.646Z</time></trkpt><trkpt lat="45.2172855" lon="9.0668958"><ele>76.0</ele><time>2026-04-26T07:40:48.646Z</time></trkpt><trkpt lat="45.2172731" lon="9.0670111"><ele>76.0</ele><time>2026-04-26T07:40:51.65Z</time></trkpt><trkpt lat="45.2172863" lon="9.0671238"><ele>76.0</ele><time>2026-04-26T07:40:53.636Z</time></trkpt><trkpt lat="45.2173274" lon="9.0672528"><ele>76.0</ele><time>2026-04-26T07:40:55.643Z</time></trkpt><trkpt lat="45.2173424" lon="9.067369"><ele>75.66666666666666</ele><time>2026-04-26T07:40:57.64Z</time></trkpt><trkpt lat="45.2173565" lon="9.0674791"><ele>75.33333333333333</ele><time>2026-04-26T07:40:59.634Z</time></trkpt><trkpt lat="45.2173808" lon="9.0675851"><ele>75.0</ele><time>2026-04-26T07:41:01.636Z</time></trkpt><trkpt lat="45.2174052" lon="9.0677033"><ele>74.66666666666667</ele><time>2026-04-26T07:41:03.65Z</time></trkpt><trkpt lat="45.2174272" lon="9.0678284"><ele>74.33333333333334</ele><time>2026-04-26T07:41:05.665Z</time></trkpt><trkpt lat="45.2174497" lon="9.0679476"><ele>74.0</ele><time>2026-04-26T07:41:07.649Z</time></trkpt><trkpt lat="45.2174642" lon="9.0680684"><ele>74.0</ele><time>2026-04-26T07:41:09.647Z</time></trkpt><trkpt lat="45.2174789" lon="9.0681728"><ele>74.0</ele><time>2026-04-26T07:41:11.651Z</time></trkpt><trkpt lat="45.2174997" lon="9.0682906"><ele>74.0</ele><time>2026-04-26T07:41:13.644Z</time></trkpt><trkpt lat="45.2175254" lon="9.0684132"><ele>74.0</ele><time>2026-04-26T07:41:15.65Z</time></trkpt><trkpt lat="45.2175562" lon="9.0685333"><ele>74.0</ele><time>2026-04-26T07:41:17.644Z</time></trkpt><trkpt lat="45.2175955" lon="9.0686514"><ele>74.0</ele><time>2026-04-26T07:41:19.644Z</time></trkpt><trkpt lat="45.217642" lon="9.0687593"><ele>74.0</ele><time>2026-04-26T07:41:21.651Z</time></trkpt><trkpt lat="45.2176925" lon="9.0688804"><ele>74.0</ele><time>2026-04-26T07:41:23.647Z</time></trkpt><trkpt lat="45.2177413" lon="9.0689919"><ele>74.0</ele><time>2026-04-26T07:41:25.651Z</time></trkpt><trkpt lat="45.2177955" lon="9.0690999"><ele>74.0</ele><time>2026-04-26T07:41:27.665Z</time></trkpt><trkpt lat="45.2178439" lon="9.0692279"><ele>74.0</ele><time>2026-04-26T07:41:29.649Z</time></trkpt><trkpt lat="45.2178763" lon="9.0693374"><ele>74.0</ele><time>2026-04-26T07:41:31.649Z</time></trkpt><trkpt lat="45.2178953" lon="9.069447"><ele>74.0</ele><time>2026-04-26T07:41:33.64Z</time></trkpt><trkpt lat="45.2179267" lon="9.0695543"><ele>74.0</ele><time>2026-04-26T07:41:35.64Z</time></trkpt><trkpt lat="45.2179557" lon="9.0696758"><ele>74.0</ele><time>2026-04-26T07:41:37.649Z</time></trkpt><trkpt lat="45.21798" lon="9.0698006"><ele>74.0</ele><time>2026-04-26T07:41:39.641Z</time></trkpt><trkpt lat="45.2179909" lon="9.0699147"><ele>74.0</ele><time>2026-04-26T07:41:41.641Z</time></trkpt><trkpt lat="45.2180157" lon="9.070033"><ele>74.16666666666667</ele><time>2026-04-26T07:41:43.644Z</time></trkpt><trkpt lat="45.2180175" lon="9.0701392"><ele>74.33333333333334</ele><time>2026-04-26T07:41:45.647Z</time></trkpt><trkpt lat="45.2180071" lon="9.0702438"><ele>74.5</ele><time>2026-04-26T07:41:47.65Z</time></trkpt><trkpt lat="45.2179672" lon="9.0703707"><ele>74.66666666666667</ele><time>2026-04-26T07:41:49.644Z</time></trkpt><trkpt lat="45.2179273" lon="9.07049"><ele>74.83333333333333</ele><time>2026-04-26T07:41:51.644Z</time></trkpt><trkpt lat="45.2178539" lon="9.0705839"><ele>75.0</ele><time>2026-04-26T07:41:53.642Z</time></trkpt><trkpt lat="45.2177716" lon="9.0706903"><ele>75.33333333333333</ele><time>2026-04-26T07:41:55.648Z</time></trkpt><trkpt lat="45.217699" lon="9.0708033"><ele>75.66666666666667</ele><time>2026-04-26T07:41:57.645Z</time></trkpt><trkpt lat="45.217648" lon="9.0709024"><ele>76.0</ele><time>2026-04-26T07:41:59.645Z</time></trkpt><trkpt lat="45.2175989" lon="9.0709742"><ele>76.33333333333334</ele><time>2026-04-26T07:42:01.643Z</time></trkpt><trkpt lat="45.2175188" lon="9.0709955"><ele>76.66666666666667</ele><time>2026-04-26T07:42:03.643Z</time></trkpt><trkpt lat="45.2174386" lon="9.0710241"><ele>77.0</ele><time>2026-04-26T07:42:05.653Z</time></trkpt><trkpt lat="45.2173693" lon="9.0710489"><ele>76.33333333333334</ele><time>2026-04-26T07:42:07.648Z</time></trkpt><trkpt lat="45.2173063" lon="9.0710954"><ele>75.66666666666667</ele><time>2026-04-26T07:42:09.722Z</time></trkpt><trkpt lat="45.2172406" lon="9.0711321"><ele>75.0</ele><time>2026-04-26T07:42:11.655Z</time></trkpt><trkpt lat="45.2171775" lon="9.071168"><ele>74.33333333333333</ele><time>2026-04-26T07:42:13.651Z</time></trkpt><trkpt lat="45.2171038" lon="9.071207"><ele>73.66666666666666</ele><time>2026-04-26T07:42:15.649Z</time></trkpt><trkpt lat="45.2170263" lon="9.0712567"><ele>73.0</ele><time>2026-04-26T07:42:17.648Z</time></trkpt><trkpt lat="45.2169455" lon="9.0712974"><ele>73.0</ele><time>2026-04-26T07:42:19.675Z</time></trkpt><trkpt lat="45.2168668" lon="9.071344"><ele>73.0</ele><time>2026-04-26T07:42:21.648Z</time></trkpt><trkpt lat="45.2167887" lon="9.0713913"><ele>73.0</ele><time>2026-04-26T07:42:23.651Z</time></trkpt><trkpt lat="45.2167155" lon="9.0714463"><ele>73.0</ele><time>2026-04-26T07:42:25.648Z</time></trkpt><trkpt lat="45.2166518" lon="9.0715315"><ele>73.0</ele><time>2026-04-26T07:42:27.636Z</time></trkpt><trkpt lat="45.2165963" lon="9.0716021"><ele>73.0</ele><time>2026-04-26T07:42:29.641Z</time></trkpt><trkpt lat="45.2165389" lon="9.0716781"><ele>72.83333333333333</ele><time>2026-04-26T07:42:31.641Z</time></trkpt><trkpt lat="45.2164805" lon="9.071766"><ele>72.66666666666666</ele><time>2026-04-26T07:42:33.632Z</time></trkpt><trkpt lat="45.2164259" lon="9.0718489"><ele>72.5</ele><time>2026-04-26T07:42:35.644Z</time></trkpt><trkpt lat="45.2163744" lon="9.0719361"><ele>72.33333333333333</ele><time>2026-04-26T07:42:37.722Z</time></trkpt><trkpt lat="45.2163256" lon="9.0720397"><ele>72.16666666666667</ele><time>2026-04-26T07:42:39.653Z</time></trkpt><trkpt lat="45.2162633" lon="9.0721381"><ele>72.0</ele><time>2026-04-26T07:42:41.642Z</time></trkpt><trkpt lat="45.2162074" lon="9.0722129"><ele>72.0</ele><time>2026-04-26T07:42:43.643Z</time></trkpt><trkpt lat="45.2161462" lon="9.0722983"><ele>72.0</ele><time>2026-04-26T07:42:45.642Z</time></trkpt><trkpt lat="45.2160818" lon="9.0723832"><ele>72.0</ele><time>2026-04-26T07:42:47.647Z</time></trkpt><trkpt lat="45.2160219" lon="9.0724616"><ele>72.0</ele><time>2026-04-26T07:42:49.662Z</time></trkpt><trkpt lat="45.2159569" lon="9.0725511"><ele>72.0</ele><time>2026-04-26T07:42:51.646Z</time></trkpt><trkpt lat="45.2158968" lon="9.072623"><ele>72.0</ele><time>2026-04-26T07:42:53.643Z</time></trkpt><trkpt lat="45.2158328" lon="9.0727025"><ele>71.83333333333333</ele><time>2026-04-26T07:42:55.646Z</time></trkpt><trkpt lat="45.215769" lon="9.072796"><ele>71.66666666666667</ele><time>2026-04-26T07:42:57.643Z</time></trkpt><trkpt lat="45.2157084" lon="9.0728783"><ele>71.5</ele><time>2026-04-26T07:42:59.647Z</time></trkpt><trkpt lat="45.2156528" lon="9.0729552"><ele>71.33333333333334</ele><time>2026-04-26T07:43:01.648Z</time></trkpt><trkpt lat="45.2156017" lon="9.0730361"><ele>71.16666666666667</ele><time>2026-04-26T07:43:03.645Z</time></trkpt><trkpt lat="45.2155421" lon="9.0731208"><ele>71.0</ele><time>2026-04-26T07:43:05.642Z</time></trkpt><trkpt lat="45.2155025" lon="9.0732088"><ele>71.39999999999999</ele><time>2026-04-26T07:43:07.646Z</time></trkpt><trkpt lat="45.2154403" lon="9.0733028"><ele>71.8</ele><time>2026-04-26T07:43:10.638Z</time></trkpt><trkpt lat="45.21538" lon="9.0733634"><ele>72.19999999999999</ele><time>2026-04-26T07:43:12.64Z</time></trkpt><trkpt lat="45.215262" lon="9.073516"><ele>72.6</ele><time>2026-04-26T07:43:16.643Z</time></trkpt><trkpt lat="45.2152072" lon="9.0736051"><ele>73.0</ele><time>2026-04-26T07:43:18.641Z</time></trkpt><trkpt lat="45.2151489" lon="9.0736854"><ele>73.0</ele><time>2026-04-26T07:43:20.643Z</time></trkpt><trkpt lat="45.2150921" lon="9.0737677"><ele>73.0</ele><time>2026-04-26T07:43:22.643Z</time></trkpt><trkpt lat="45.2150282" lon="9.0738505"><ele>73.0</ele><time>2026-04-26T07:43:24.639Z</time></trkpt><trkpt lat="45.2149657" lon="9.0739409"><ele>73.0</ele><time>2026-04-26T07:43:26.643Z</time></trkpt><trkpt lat="45.2149047" lon="9.0740333"><ele>73.0</ele><time>2026-04-26T07:43:28.645Z</time></trkpt><trkpt lat="45.2148418" lon="9.0741222"><ele>73.0</ele><time>2026-04-26T07:43:30.644Z</time></trkpt><trkpt lat="45.2147797" lon="9.0741995"><ele>73.33333333333333</ele><time>2026-04-26T07:43:32.651Z</time></trkpt><trkpt lat="45.2147037" lon="9.0742558"><ele>73.66666666666666</ele><time>2026-04-26T07:43:34.65Z</time></trkpt><trkpt lat="45.2146118" lon="9.0742919"><ele>74.0</ele><time>2026-04-26T07:43:36.635Z</time></trkpt><trkpt lat="45.2145229" lon="9.0743337"><ele>74.33333333333333</ele><time>2026-04-26T07:43:38.649Z</time></trkpt><trkpt lat="45.2144518" lon="9.0743729"><ele>74.66666666666667</ele><time>2026-04-26T07:43:40.657Z</time></trkpt><trkpt lat="45.2143848" lon="9.0744214"><ele>75.0</ele><time>2026-04-26T07:43:42.649Z</time></trkpt><trkpt lat="45.2143257" lon="9.0744878"><ele>75.0</ele><time>2026-04-26T07:43:44.647Z</time></trkpt><trkpt lat="45.2142631" lon="9.0745576"><ele>75.0</ele><time>2026-04-26T07:43:46.64Z</time></trkpt><trkpt lat="45.2142006" lon="9.0746382"><ele>75.0</ele><time>2026-04-26T07:43:48.644Z</time></trkpt><trkpt lat="45.2141552" lon="9.0747258"><ele>75.0</ele><time>2026-04-26T07:43:50.649Z</time></trkpt><trkpt lat="45.2141026" lon="9.0748164"><ele>75.0</ele><time>2026-04-26T07:43:52.644Z</time></trkpt><trkpt lat="45.2140539" lon="9.0749039"><ele>75.0</ele><time>2026-04-26T07:43:54.648Z</time></trkpt><trkpt lat="45.2140011" lon="9.0749994"><ele>73.83333333333333</ele><time>2026-04-26T07:43:56.65Z</time></trkpt><trkpt lat="45.2139553" lon="9.075113"><ele>72.66666666666667</ele><time>2026-04-26T07:43:58.647Z</time></trkpt><trkpt lat="45.2138916" lon="9.0752116"><ele>71.5</ele><time>2026-04-26T07:44:00.653Z</time></trkpt><trkpt lat="45.2138367" lon="9.0753091"><ele>70.33333333333334</ele><time>2026-04-26T07:44:02.648Z</time></trkpt><trkpt lat="45.2137804" lon="9.0754027"><ele>69.16666666666667</ele><time>2026-04-26T07:44:04.642Z</time></trkpt><trkpt lat="45.213729" lon="9.0754917"><ele>68.0</ele><time>2026-04-26T07:44:06.656Z</time></trkpt><trkpt lat="45.2136749" lon="9.0755861"><ele>68.0</ele><time>2026-04-26T07:44:08.646Z</time></trkpt><trkpt lat="45.2136238" lon="9.0756768"><ele>68.0</ele><time>2026-04-26T07:44:10.647Z</time></trkpt><trkpt lat="45.213584" lon="9.0757711"><ele>68.0</ele><time>2026-04-26T07:44:12.651Z</time></trkpt><trkpt lat="45.2135433" lon="9.0758764"><ele>68.0</ele><time>2026-04-26T07:44:14.647Z</time></trkpt><trkpt lat="45.2135018" lon="9.0759877"><ele>68.0</ele><time>2026-04-26T07:44:16.65Z</time></trkpt><trkpt lat="45.213469" lon="9.0760978"><ele>68.0</ele><time>2026-04-26T07:44:18.647Z</time></trkpt><trkpt lat="45.2134286" lon="9.0762049"><ele>68.66666666666667</ele><time>2026-04-26T07:44:20.645Z</time></trkpt><trkpt lat="45.2133938" lon="9.0763128"><ele>69.33333333333334</ele><time>2026-04-26T07:44:22.647Z</time></trkpt><trkpt lat="45.2133557" lon="9.0764158"><ele>70.0</ele><time>2026-04-26T07:44:24.646Z</time></trkpt><trkpt lat="45.2133157" lon="9.076522"><ele>70.66666666666667</ele><time>2026-04-26T07:44:26.651Z</time></trkpt><trkpt lat="45.2132797" lon="9.0766307"><ele>71.33333333333333</ele><time>2026-04-26T07:44:28.645Z</time></trkpt><trkpt lat="45.213243" lon="9.0767408"><ele>72.0</ele><time>2026-04-26T07:44:30.645Z</time></trkpt><trkpt lat="45.2132141" lon="9.0768571"><ele>72.33333333333333</ele><time>2026-04-26T07:44:32.661Z</time></trkpt><trkpt lat="45.2131782" lon="9.0769741"><ele>72.66666666666667</ele><time>2026-04-26T07:44:34.649Z</time></trkpt><trkpt lat="45.2131588" lon="9.0770882"><ele>73.0</ele><time>2026-04-26T07:44:36.64Z</time></trkpt><trkpt lat="45.2131471" lon="9.0771993"><ele>73.33333333333334</ele><time>2026-04-26T07:44:38.647Z</time></trkpt><trkpt lat="45.2131476" lon="9.0773391"><ele>73.66666666666667</ele><time>2026-04-26T07:44:40.637Z</time></trkpt><trkpt lat="45.2131476" lon="9.0774553"><ele>74.0</ele><time>2026-04-26T07:44:42.646Z</time></trkpt><trkpt lat="45.2131467" lon="9.0775628"><ele>74.66666666666667</ele><time>2026-04-26T07:44:44.651Z</time></trkpt><trkpt lat="45.2131465" lon="9.0776775"><ele>75.33333333333334</ele><time>2026-04-26T07:44:46.727Z</time></trkpt><trkpt lat="45.2131471" lon="9.0777918"><ele>76.0</ele><time>2026-04-26T07:44:48.645Z</time></trkpt><trkpt lat="45.2131462" lon="9.077907"><ele>76.66666666666667</ele><time>2026-04-26T07:44:50.64Z</time></trkpt><trkpt lat="45.2131419" lon="9.0780106"><ele>77.33333333333333</ele><time>2026-04-26T07:44:52.641Z</time></trkpt><trkpt lat="45.2131317" lon="9.0781269"><ele>78.0</ele><time>2026-04-26T07:44:54.654Z</time></trkpt><trkpt lat="45.21312" lon="9.0782346"><ele>78.0</ele><time>2026-04-26T07:44:56.644Z</time></trkpt><trkpt lat="45.2131103" lon="9.0783357"><ele>78.0</ele><time>2026-04-26T07:44:58.647Z</time></trkpt><trkpt lat="45.2131609" lon="9.078433"><ele>78.0</ele><time>2026-04-26T07:45:01.651Z</time></trkpt><trkpt lat="45.2132177" lon="9.0784765"><ele>78.0</ele><time>2026-04-26T07:45:03.643Z</time></trkpt><trkpt lat="45.2132845" lon="9.0785252"><ele>78.0</ele><time>2026-04-26T07:45:05.645Z</time></trkpt><trkpt lat="45.2133539" lon="9.0785957"><ele>78.0</ele><time>2026-04-26T07:45:07.639Z</time></trkpt><trkpt lat="45.2134155" lon="9.0786616"><ele>77.33333333333333</ele><time>2026-04-26T07:45:09.653Z</time></trkpt><trkpt lat="45.213476" lon="9.0787367"><ele>76.66666666666667</ele><time>2026-04-26T07:45:11.65Z</time></trkpt><trkpt lat="45.2135448" lon="9.0788093"><ele>76.0</ele><time>2026-04-26T07:45:13.646Z</time></trkpt><trkpt lat="45.2136018" lon="9.0788782"><ele>75.33333333333334</ele><time>2026-04-26T07:45:15.645Z</time></trkpt><trkpt lat="45.2136533" lon="9.0789329"><ele>74.66666666666667</ele><time>2026-04-26T07:45:17.641Z</time></trkpt><trkpt lat="45.2137127" lon="9.0789951"><ele>74.0</ele><time>2026-04-26T07:45:19.646Z</time></trkpt><trkpt lat="45.2137795" lon="9.0790629"><ele>74.66666666666667</ele><time>2026-04-26T07:45:21.639Z</time></trkpt><trkpt lat="45.213839" lon="9.0791373"><ele>75.33333333333334</ele><time>2026-04-26T07:45:23.645Z</time></trkpt><trkpt lat="45.2139004" lon="9.0792058"><ele>76.0</ele><time>2026-04-26T07:45:25.646Z</time></trkpt><trkpt lat="45.2139674" lon="9.0792702"><ele>76.66666666666667</ele><time>2026-04-26T07:45:27.643Z</time></trkpt><trkpt lat="45.214029" lon="9.0793383"><ele>77.33333333333333</ele><time>2026-04-26T07:45:29.652Z</time></trkpt><trkpt lat="45.2140821" lon="9.0794068"><ele>78.0</ele><time>2026-04-26T07:45:31.662Z</time></trkpt><trkpt lat="45.2141487" lon="9.0794726"><ele>78.5</ele><time>2026-04-26T07:45:33.638Z</time></trkpt><trkpt lat="45.2142132" lon="9.0795373"><ele>79.0</ele><time>2026-04-26T07:45:35.721Z</time></trkpt><trkpt lat="45.2142723" lon="9.0796011"><ele>79.5</ele><time>2026-04-26T07:45:37.658Z</time></trkpt><trkpt lat="45.2143341" lon="9.0796672"><ele>80.0</ele><time>2026-04-26T07:45:39.644Z</time></trkpt><trkpt lat="45.214405" lon="9.0797311"><ele>80.5</ele><time>2026-04-26T07:45:41.645Z</time></trkpt><trkpt lat="45.2144726" lon="9.0797933"><ele>81.0</ele><time>2026-04-26T07:45:43.646Z</time></trkpt><trkpt lat="45.2145406" lon="9.0798575"><ele>81.0</ele><time>2026-04-26T07:45:45.65Z</time></trkpt><trkpt lat="45.2146108" lon="9.0799361"><ele>81.0</ele><time>2026-04-26T07:45:47.647Z</time></trkpt><trkpt lat="45.2146794" lon="9.0800116"><ele>81.0</ele><time>2026-04-26T07:45:49.639Z</time></trkpt><trkpt lat="45.2147399" lon="9.0800735"><ele>81.0</ele><time>2026-04-26T07:45:51.647Z</time></trkpt><trkpt lat="45.2147959" lon="9.0801295"><ele>81.0</ele><time>2026-04-26T07:45:53.663Z</time></trkpt><trkpt lat="45.2148506" lon="9.0801807"><ele>81.0</ele><time>2026-04-26T07:45:55.649Z</time></trkpt><trkpt lat="45.2149133" lon="9.0802338"><ele>81.0</ele><time>2026-04-26T07:45:57.644Z</time></trkpt><trkpt lat="45.2149491" lon="9.0803262"><ele>81.0</ele><time>2026-04-26T07:46:00.641Z</time></trkpt><trkpt lat="45.2149187" lon="9.0804073"><ele>81.0</ele><time>2026-04-26T07:46:02.636Z</time></trkpt><trkpt lat="45.2148585" lon="9.0804773"><ele>81.0</ele><time>2026-04-26T07:46:04.644Z</time></trkpt><trkpt lat="45.2148189" lon="9.080563"><ele>81.0</ele><time>2026-04-26T07:46:06.647Z</time></trkpt><trkpt lat="45.21478" lon="9.0806542"><ele>81.0</ele><time>2026-04-26T07:46:08.644Z</time></trkpt><trkpt lat="45.2147346" lon="9.0807534"><ele>81.0</ele><time>2026-04-26T07:46:10.648Z</time></trkpt><trkpt lat="45.2146926" lon="9.0808454"><ele>81.0</ele><time>2026-04-26T07:46:12.663Z</time></trkpt><trkpt lat="45.2146475" lon="9.0809461"><ele>81.0</ele><time>2026-04-26T07:46:14.649Z</time></trkpt><trkpt lat="45.2145963" lon="9.0810429"><ele>81.0</ele><time>2026-04-26T07:46:16.646Z</time></trkpt><trkpt lat="45.2145503" lon="9.0811503"><ele>81.0</ele><time>2026-04-26T07:46:18.651Z</time></trkpt><trkpt lat="45.2144992" lon="9.0812532"><ele>81.0</ele><time>2026-04-26T07:46:20.652Z</time></trkpt><trkpt lat="45.2144514" lon="9.0813574"><ele>81.0</ele><time>2026-04-26T07:46:22.645Z</time></trkpt><trkpt lat="45.2144057" lon="9.0814569"><ele>81.0</ele><time>2026-04-26T07:46:24.64Z</time></trkpt><trkpt lat="45.2143582" lon="9.0815633"><ele>81.0</ele><time>2026-04-26T07:46:26.647Z</time></trkpt><trkpt lat="45.2143055" lon="9.0816591"><ele>81.0</ele><time>2026-04-26T07:46:28.636Z</time></trkpt><trkpt lat="45.2142411" lon="9.0817639"><ele>81.0</ele><time>2026-04-26T07:46:30.641Z</time></trkpt><trkpt lat="45.2141953" lon="9.081861"><ele>81.0</ele><time>2026-04-26T07:46:32.645Z</time></trkpt><trkpt lat="45.2141551" lon="9.0819444"><ele>81.0</ele><time>2026-04-26T07:46:34.64Z</time></trkpt><trkpt lat="45.2141078" lon="9.082044"><ele>81.0</ele><time>2026-04-26T07:46:36.651Z</time></trkpt><trkpt lat="45.2140603" lon="9.0821471"><ele>81.0</ele><time>2026-04-26T07:46:38.657Z</time></trkpt><trkpt lat="45.2140004" lon="9.0822533"><ele>81.0</ele><time>2026-04-26T07:46:40.643Z</time></trkpt><trkpt lat="45.213941" lon="9.08236"><ele>81.0</ele><time>2026-04-26T07:46:42.645Z</time></trkpt><trkpt lat="45.2138855" lon="9.082458"><ele>81.0</ele><time>2026-04-26T07:46:44.647Z</time></trkpt><trkpt lat="45.2138245" lon="9.0825529"><ele>81.0</ele><time>2026-04-26T07:46:46.652Z</time></trkpt><trkpt lat="45.2137743" lon="9.0826542"><ele>81.0</ele><time>2026-04-26T07:46:48.646Z</time></trkpt><trkpt lat="45.213728" lon="9.0827421"><ele>81.0</ele><time>2026-04-26T07:46:50.641Z</time></trkpt><trkpt lat="45.2136757" lon="9.0828409"><ele>81.0</ele><time>2026-04-26T07:46:52.645Z</time></trkpt><trkpt lat="45.2136196" lon="9.0829444"><ele>81.0</ele><time>2026-04-26T07:46:54.727Z</time></trkpt><trkpt lat="45.2135641" lon="9.0830368"><ele>81.0</ele><time>2026-04-26T07:46:56.659Z</time></trkpt><trkpt lat="45.2135091" lon="9.0831314"><ele>81.0</ele><time>2026-04-26T07:46:58.642Z</time></trkpt><trkpt lat="45.2134455" lon="9.0832392"><ele>81.0</ele><time>2026-04-26T07:47:00.654Z</time></trkpt><trkpt lat="45.2133916" lon="9.0833339"><ele>81.0</ele><time>2026-04-26T07:47:02.647Z</time></trkpt><trkpt lat="45.2133357" lon="9.0834306"><ele>81.0</ele><time>2026-04-26T07:47:04.645Z</time></trkpt><trkpt lat="45.213276" lon="9.0835291"><ele>81.0</ele><time>2026-04-26T07:47:06.638Z</time></trkpt><trkpt lat="45.2132137" lon="9.0836376"><ele>81.0</ele><time>2026-04-26T07:47:08.645Z</time></trkpt><trkpt lat="45.213158" lon="9.0837418"><ele>81.0</ele><time>2026-04-26T07:47:10.647Z</time></trkpt><trkpt lat="45.2131034" lon="9.0838348"><ele>81.0</ele><time>2026-04-26T07:47:12.637Z</time></trkpt><trkpt lat="45.2130537" lon="9.0839209"><ele>81.0</ele><time>2026-04-26T07:47:14.642Z</time></trkpt><trkpt lat="45.2129981" lon="9.0840211"><ele>81.0</ele><time>2026-04-26T07:47:16.645Z</time></trkpt><trkpt lat="45.2129436" lon="9.0841197"><ele>81.0</ele><time>2026-04-26T07:47:18.637Z</time></trkpt><trkpt lat="45.2128826" lon="9.0842238"><ele>81.0</ele><time>2026-04-26T07:47:20.642Z</time></trkpt><trkpt lat="45.2128236" lon="9.0843305"><ele>81.0</ele><time>2026-04-26T07:47:22.639Z</time></trkpt><trkpt lat="45.2127576" lon="9.0844358"><ele>81.0</ele><time>2026-04-26T07:47:24.659Z</time></trkpt><trkpt lat="45.2127014" lon="9.0845303"><ele>81.0</ele><time>2026-04-26T07:47:26.642Z</time></trkpt><trkpt lat="45.2126407" lon="9.0846336"><ele>81.0</ele><time>2026-04-26T07:47:28.646Z</time></trkpt><trkpt lat="45.2125799" lon="9.0847418"><ele>81.0</ele><time>2026-04-26T07:47:30.647Z</time></trkpt><trkpt lat="45.2125236" lon="9.0848538"><ele>81.0</ele><time>2026-04-26T07:47:32.643Z</time></trkpt><trkpt lat="45.2124629" lon="9.0849518"><ele>81.0</ele><time>2026-04-26T07:47:34.643Z</time></trkpt><trkpt lat="45.2123982" lon="9.0850474"><ele>81.0</ele><time>2026-04-26T07:47:36.645Z</time></trkpt><trkpt lat="45.2123334" lon="9.0851568"><ele>81.0</ele><time>2026-04-26T07:47:38.646Z</time></trkpt><trkpt lat="45.2122679" lon="9.085266"><ele>80.6</ele><time>2026-04-26T07:47:40.647Z</time></trkpt><trkpt lat="45.2122108" lon="9.0853757"><ele>80.19999999999999</ele><time>2026-04-26T07:47:42.646Z</time></trkpt><trkpt lat="45.2121554" lon="9.0854819"><ele>79.80000000000001</ele><time>2026-04-26T07:47:44.658Z</time></trkpt><trkpt lat="45.2120942" lon="9.0855767"><ele>79.4</ele><time>2026-04-26T07:47:46.642Z</time></trkpt><trkpt lat="45.2120407" lon="9.0856688"><ele>79.0</ele><time>2026-04-26T07:47:48.643Z</time></trkpt><trkpt lat="45.2119813" lon="9.0857717"><ele>79.0</ele><time>2026-04-26T07:47:50.644Z</time></trkpt><trkpt lat="45.2119132" lon="9.0858699"><ele>79.0</ele><time>2026-04-26T07:47:52.655Z</time></trkpt><trkpt lat="45.2118556" lon="9.0859778"><ele>79.0</ele><time>2026-04-26T07:47:54.646Z</time></trkpt><trkpt lat="45.2117957" lon="9.0860874"><ele>79.0</ele><time>2026-04-26T07:47:56.644Z</time></trkpt><trkpt lat="45.2117299" lon="9.0862038"><ele>79.0</ele><time>2026-04-26T07:47:58.647Z</time></trkpt><trkpt lat="45.2116685" lon="9.0863138"><ele>79.0</ele><time>2026-04-26T07:48:00.645Z</time></trkpt><trkpt lat="45.2116176" lon="9.0864332"><ele>79.0</ele><time>2026-04-26T07:48:02.643Z</time></trkpt><trkpt lat="45.2115598" lon="9.0865302"><ele>79.0</ele><time>2026-04-26T07:48:04.64Z</time></trkpt><trkpt lat="45.211492" lon="9.086632"><ele>79.0</ele><time>2026-04-26T07:48:06.644Z</time></trkpt><trkpt lat="45.2114335" lon="9.0867433"><ele>79.0</ele><time>2026-04-26T07:48:08.653Z</time></trkpt><trkpt lat="45.211371" lon="9.0868621"><ele>79.0</ele><time>2026-04-26T07:48:10.637Z</time></trkpt><trkpt lat="45.2113039" lon="9.0869783"><ele>79.0</ele><time>2026-04-26T07:48:12.644Z</time></trkpt><trkpt lat="45.2112359" lon="9.0870917"><ele>79.0</ele><time>2026-04-26T07:48:14.651Z</time></trkpt><trkpt lat="45.2111632" lon="9.087216"><ele>79.0</ele><time>2026-04-26T07:48:16.642Z</time></trkpt><trkpt lat="45.2110956" lon="9.0873392"><ele>79.0</ele><time>2026-04-26T07:48:18.644Z</time></trkpt><trkpt lat="45.2110331" lon="9.0874537"><ele>79.0</ele><time>2026-04-26T07:48:20.649Z</time></trkpt><trkpt lat="45.2109668" lon="9.0875763"><ele>79.0</ele><time>2026-04-26T07:48:22.647Z</time></trkpt><trkpt lat="45.2108942" lon="9.0876909"><ele>79.0</ele><time>2026-04-26T07:48:24.642Z</time></trkpt><trkpt lat="45.2108256" lon="9.0878109"><ele>79.0</ele><time>2026-04-26T07:48:26.643Z</time></trkpt><trkpt lat="45.2107625" lon="9.0879294"><ele>79.0</ele><time>2026-04-26T07:48:28.645Z</time></trkpt><trkpt lat="45.2106926" lon="9.0880483"><ele>79.0</ele><time>2026-04-26T07:48:30.644Z</time></trkpt><trkpt lat="45.2106289" lon="9.0881581"><ele>79.0</ele><time>2026-04-26T07:48:32.645Z</time></trkpt><trkpt lat="45.2105693" lon="9.0882643"><ele>79.0</ele><time>2026-04-26T07:48:34.648Z</time></trkpt><trkpt lat="45.2105094" lon="9.088373"><ele>79.0</ele><time>2026-04-26T07:48:36.643Z</time></trkpt><trkpt lat="45.2104493" lon="9.088484"><ele>79.0</ele><time>2026-04-26T07:48:38.641Z</time></trkpt><trkpt lat="45.2103701" lon="9.0886228"><ele>79.0</ele><time>2026-04-26T07:48:41.65Z</time></trkpt><trkpt lat="45.2103314" lon="9.0887056"><ele>79.0</ele><time>2026-04-26T07:48:43.646Z</time></trkpt><trkpt lat="45.2102594" lon="9.0887815"><ele>79.0</ele><time>2026-04-26T07:48:46.643Z</time></trkpt><trkpt lat="45.2101761" lon="9.0887348"><ele>79.0</ele><time>2026-04-26T07:48:49.641Z</time></trkpt><trkpt lat="45.2101222" lon="9.0886738"><ele>79.0</ele><time>2026-04-26T07:48:51.708Z</time></trkpt><trkpt lat="45.2100597" lon="9.0886042"><ele>79.0</ele><time>2026-04-26T07:48:53.652Z</time></trkpt><trkpt lat="45.209999" lon="9.0885389"><ele>79.0</ele><time>2026-04-26T07:48:55.645Z</time></trkpt><trkpt lat="45.2099402" lon="9.088474"><ele>79.0</ele><time>2026-04-26T07:48:57.644Z</time></trkpt><trkpt lat="45.209876" lon="9.0884028"><ele>79.0</ele><time>2026-04-26T07:48:59.645Z</time></trkpt><trkpt lat="45.2097984" lon="9.0883302"><ele>79.0</ele><time>2026-04-26T07:49:01.64Z</time></trkpt><trkpt lat="45.209727" lon="9.0882541"><ele>79.0</ele><time>2026-04-26T07:49:03.644Z</time></trkpt><trkpt lat="45.2096552" lon="9.0881886"><ele>79.0</ele><time>2026-04-26T07:49:05.64Z</time></trkpt><trkpt lat="45.209585" lon="9.0881218"><ele>79.0</ele><time>2026-04-26T07:49:07.659Z</time></trkpt><trkpt lat="45.2095216" lon="9.0880623"><ele>79.0</ele><time>2026-04-26T07:49:09.641Z</time></trkpt><trkpt lat="45.2094667" lon="9.0880134"><ele>79.0</ele><time>2026-04-26T07:49:11.636Z</time></trkpt><trkpt lat="45.2093997" lon="9.0879541"><ele>79.0</ele><time>2026-04-26T07:49:13.635Z</time></trkpt><trkpt lat="45.2093343" lon="9.0878769"><ele>79.0</ele><time>2026-04-26T07:49:15.652Z</time></trkpt><trkpt lat="45.2092665" lon="9.0878125"><ele>79.0</ele><time>2026-04-26T07:49:17.786Z</time></trkpt><trkpt lat="45.2092007" lon="9.0877461"><ele>79.0</ele><time>2026-04-26T07:49:19.637Z</time></trkpt><trkpt lat="45.2091331" lon="9.0876755"><ele>79.0</ele><time>2026-04-26T07:49:21.638Z</time></trkpt><trkpt lat="45.2090694" lon="9.087613"><ele>79.0</ele><time>2026-04-26T07:49:23.647Z</time></trkpt><trkpt lat="45.2090037" lon="9.0875544"><ele>79.0</ele><time>2026-04-26T07:49:25.654Z</time></trkpt><trkpt lat="45.2089331" lon="9.0874865"><ele>79.0</ele><time>2026-04-26T07:49:27.645Z</time></trkpt><trkpt lat="45.2088585" lon="9.0874438"><ele>79.0</ele><time>2026-04-26T07:49:29.647Z</time></trkpt><trkpt lat="45.2087902" lon="9.0874502"><ele>78.66666666666666</ele><time>2026-04-26T07:49:31.657Z</time></trkpt><trkpt lat="45.2087252" lon="9.0874871"><ele>78.33333333333333</ele><time>2026-04-26T07:49:33.647Z</time></trkpt><trkpt lat="45.2086672" lon="9.0875592"><ele>78.0</ele><time>2026-04-26T07:49:35.641Z</time></trkpt><trkpt lat="45.2086165" lon="9.0876577"><ele>77.66666666666667</ele><time>2026-04-26T07:49:37.639Z</time></trkpt><trkpt lat="45.2085719" lon="9.0877617"><ele>77.33333333333334</ele><time>2026-04-26T07:49:39.634Z</time></trkpt><trkpt lat="45.2085273" lon="9.0878497"><ele>77.0</ele><time>2026-04-26T07:49:41.641Z</time></trkpt><trkpt lat="45.2084699" lon="9.0879069"><ele>77.0</ele><time>2026-04-26T07:49:43.649Z</time></trkpt><trkpt lat="45.2083909" lon="9.0879564"><ele>77.0</ele><time>2026-04-26T07:49:45.643Z</time></trkpt><trkpt lat="45.2083042" lon="9.0879823"><ele>77.0</ele><time>2026-04-26T07:49:47.64Z</time></trkpt><trkpt lat="45.2082133" lon="9.087985"><ele>77.0</ele><time>2026-04-26T07:49:49.646Z</time></trkpt><trkpt lat="45.2081188" lon="9.0879644"><ele>77.0</ele><time>2026-04-26T07:49:51.64Z</time></trkpt><trkpt lat="45.2080376" lon="9.0879376"><ele>77.0</ele><time>2026-04-26T07:49:53.634Z</time></trkpt><trkpt lat="45.2079502" lon="9.0879105"><ele>77.4</ele><time>2026-04-26T07:49:55.641Z</time></trkpt><trkpt lat="45.2078049" lon="9.0878908"><ele>77.80000000000001</ele><time>2026-04-26T07:49:58.647Z</time></trkpt><trkpt lat="45.2077086" lon="9.0878986"><ele>78.2</ele><time>2026-04-26T07:50:00.647Z</time></trkpt><trkpt lat="45.2076121" lon="9.0879074"><ele>78.60000000000001</ele><time>2026-04-26T07:50:02.645Z</time></trkpt><trkpt lat="45.2075234" lon="9.0879204"><ele>79.0</ele><time>2026-04-26T07:50:04.66Z</time></trkpt><trkpt lat="45.2074451" lon="9.0879659"><ele>79.0</ele><time>2026-04-26T07:50:06.643Z</time></trkpt><trkpt lat="45.2073615" lon="9.088026"><ele>79.0</ele><time>2026-04-26T07:50:08.638Z</time></trkpt><trkpt lat="45.2072953" lon="9.0881111"><ele>79.0</ele><time>2026-04-26T07:50:10.643Z</time></trkpt><trkpt lat="45.2072325" lon="9.0881949"><ele>79.0</ele><time>2026-04-26T07:50:12.645Z</time></trkpt><trkpt lat="45.2071645" lon="9.0882756"><ele>79.0</ele><time>2026-04-26T07:50:14.647Z</time></trkpt><trkpt lat="45.2070995" lon="9.0883549"><ele>79.0</ele><time>2026-04-26T07:50:16.658Z</time></trkpt><trkpt lat="45.2070348" lon="9.0884356"><ele>78.66666666666666</ele><time>2026-04-26T07:50:18.646Z</time></trkpt><trkpt lat="45.2069669" lon="9.0885167"><ele>78.33333333333333</ele><time>2026-04-26T07:50:20.644Z</time></trkpt><trkpt lat="45.2069048" lon="9.0886038"><ele>78.0</ele><time>2026-04-26T07:50:22.712Z</time></trkpt><trkpt lat="45.2068346" lon="9.0886916"><ele>77.66666666666667</ele><time>2026-04-26T07:50:24.658Z</time></trkpt><trkpt lat="45.2067669" lon="9.0887695"><ele>77.33333333333334</ele><time>2026-04-26T07:50:26.72Z</time></trkpt><trkpt lat="45.2067022" lon="9.088853"><ele>77.0</ele><time>2026-04-26T07:50:28.65Z</time></trkpt><trkpt lat="45.2066399" lon="9.0889352"><ele>77.0</ele><time>2026-04-26T07:50:30.641Z</time></trkpt><trkpt lat="45.2065804" lon="9.089005"><ele>77.0</ele><time>2026-04-26T07:50:32.653Z</time></trkpt><trkpt lat="45.2065206" lon="9.0890832"><ele>77.0</ele><time>2026-04-26T07:50:34.645Z</time></trkpt><trkpt lat="45.206455" lon="9.0891756"><ele>77.0</ele><time>2026-04-26T07:50:36.726Z</time></trkpt><trkpt lat="45.2063942" lon="9.0892504"><ele>77.0</ele><time>2026-04-26T07:50:38.724Z</time></trkpt><trkpt lat="45.2063332" lon="9.0893257"><ele>77.0</ele><time>2026-04-26T07:50:40.642Z</time></trkpt><trkpt lat="45.2062667" lon="9.0894068"><ele>76.83333333333334</ele><time>2026-04-26T07:50:42.644Z</time></trkpt><trkpt lat="45.2062069" lon="9.0894911"><ele>76.66666666666667</ele><time>2026-04-26T07:50:44.643Z</time></trkpt><trkpt lat="45.2061386" lon="9.0895734"><ele>76.5</ele><time>2026-04-26T07:50:46.644Z</time></trkpt><trkpt lat="45.2060758" lon="9.0896515"><ele>76.33333333333333</ele><time>2026-04-26T07:50:48.641Z</time></trkpt><trkpt lat="45.2060144" lon="9.089739"><ele>76.16666666666666</ele><time>2026-04-26T07:50:50.644Z</time></trkpt><trkpt lat="45.2059483" lon="9.0898299"><ele>76.0</ele><time>2026-04-26T07:50:52.643Z</time></trkpt><trkpt lat="45.2058856" lon="9.0899107"><ele>76.5</ele><time>2026-04-26T07:50:54.643Z</time></trkpt><trkpt lat="45.2058223" lon="9.0899945"><ele>77.0</ele><time>2026-04-26T07:50:56.646Z</time></trkpt><trkpt lat="45.2057636" lon="9.0900769"><ele>77.5</ele><time>2026-04-26T07:50:58.639Z</time></trkpt><trkpt lat="45.2057065" lon="9.0901488"><ele>78.0</ele><time>2026-04-26T07:51:00.652Z</time></trkpt><trkpt lat="45.205664" lon="9.0902195"><ele>78.5</ele><time>2026-04-26T07:51:02.64Z</time></trkpt><trkpt lat="45.2056228" lon="9.0902933"><ele>79.0</ele><time>2026-04-26T07:51:04.648Z</time></trkpt><trkpt lat="45.2055761" lon="9.0903871"><ele>79.0</ele><time>2026-04-26T07:51:06.641Z</time></trkpt><trkpt lat="45.2055395" lon="9.0904769"><ele>79.0</ele><time>2026-04-26T07:51:08.648Z</time></trkpt><trkpt lat="45.2055124" lon="9.0905714"><ele>79.0</ele><time>2026-04-26T07:51:10.647Z</time></trkpt><trkpt lat="45.2054738" lon="9.0906712"><ele>79.0</ele><time>2026-04-26T07:51:12.643Z</time></trkpt><trkpt lat="45.2054211" lon="9.090765"><ele>79.0</ele><time>2026-04-26T07:51:14.648Z</time></trkpt><trkpt lat="45.2053572" lon="9.0908587"><ele>79.0</ele><time>2026-04-26T07:51:16.654Z</time></trkpt><trkpt lat="45.2053096" lon="9.0909472"><ele>79.0</ele><time>2026-04-26T07:51:18.719Z</time></trkpt><trkpt lat="45.2052622" lon="9.0910336"><ele>79.0</ele><time>2026-04-26T07:51:20.646Z</time></trkpt><trkpt lat="45.2052159" lon="9.0911061"><ele>79.0</ele><time>2026-04-26T07:51:23.644Z</time></trkpt><trkpt lat="45.2051383" lon="9.091197"><ele>79.0</ele><time>2026-04-26T07:51:26.642Z</time></trkpt><trkpt lat="45.2050809" lon="9.091283"><ele>79.0</ele><time>2026-04-26T07:51:28.641Z</time></trkpt><trkpt lat="45.2050326" lon="9.0913516"><ele>79.0</ele><time>2026-04-26T07:51:30.641Z</time></trkpt><trkpt lat="45.20498" lon="9.0914563"><ele>79.0</ele><time>2026-04-26T07:51:33.651Z</time></trkpt><trkpt lat="45.2049286" lon="9.0915417"><ele>79.0</ele><time>2026-04-26T07:51:35.646Z</time></trkpt><trkpt lat="45.2048717" lon="9.0916201"><ele>79.0</ele><time>2026-04-26T07:51:37.639Z</time></trkpt><trkpt lat="45.2048225" lon="9.0917046"><ele>79.0</ele><time>2026-04-26T07:51:39.645Z</time></trkpt><trkpt lat="45.2047684" lon="9.0917867"><ele>79.0</ele><time>2026-04-26T07:51:41.649Z</time></trkpt><trkpt lat="45.204703" lon="9.0918764"><ele>79.0</ele><time>2026-04-26T07:51:43.646Z</time></trkpt><trkpt lat="45.2046396" lon="9.0919796"><ele>78.57142857142858</ele><time>2026-04-26T07:51:45.648Z</time></trkpt><trkpt lat="45.2045844" lon="9.0920582"><ele>78.14285714285714</ele><time>2026-04-26T07:51:47.658Z</time></trkpt><trkpt lat="45.2045303" lon="9.0921284"><ele>77.71428571428572</ele><time>2026-04-26T07:51:49.643Z</time></trkpt><trkpt lat="45.2044808" lon="9.0922001"><ele>77.28571428571429</ele><time>2026-04-26T07:51:51.644Z</time></trkpt><trkpt lat="45.2044663" lon="9.0922918"><ele>76.85714285714286</ele><time>2026-04-26T07:51:53.636Z</time></trkpt><trkpt lat="45.2044637" lon="9.092395"><ele>76.42857142857143</ele><time>2026-04-26T07:51:55.719Z</time></trkpt><trkpt lat="45.2044605" lon="9.0925004"><ele>76.0</ele><time>2026-04-26T07:51:57.666Z</time></trkpt><trkpt lat="45.2044637" lon="9.0926148"><ele>75.16666666666666</ele><time>2026-04-26T07:51:59.644Z</time></trkpt><trkpt lat="45.2044708" lon="9.0927395"><ele>74.33333333333333</ele><time>2026-04-26T07:52:01.647Z</time></trkpt><trkpt lat="45.2044629" lon="9.0928545"><ele>73.5</ele><time>2026-04-26T07:52:03.641Z</time></trkpt><trkpt lat="45.2044375" lon="9.0929531"><ele>72.66666666666667</ele><time>2026-04-26T07:52:05.647Z</time></trkpt><trkpt lat="45.2044301" lon="9.0930755"><ele>71.83333333333334</ele><time>2026-04-26T07:52:07.709Z</time></trkpt><trkpt lat="45.2044596" lon="9.0931999"><ele>71.0</ele><time>2026-04-26T07:52:10.652Z</time></trkpt><trkpt lat="45.204488" lon="9.0933231"><ele>70.16666666666667</ele><time>2026-04-26T07:52:13.64Z</time></trkpt><trkpt lat="45.2045242" lon="9.0934309"><ele>69.33333333333334</ele><time>2026-04-26T07:52:15.646Z</time></trkpt><trkpt lat="45.2045817" lon="9.0935518"><ele>68.5</ele><time>2026-04-26T07:52:17.648Z</time></trkpt><trkpt lat="45.2046375" lon="9.0936448"><ele>67.66666666666667</ele><time>2026-04-26T07:52:19.64Z</time></trkpt><trkpt lat="45.2046809" lon="9.093729"><ele>66.83333333333333</ele><time>2026-04-26T07:52:21.709Z</time></trkpt><trkpt lat="45.2047104" lon="9.0938376"><ele>66.0</ele><time>2026-04-26T07:52:23.658Z</time></trkpt><trkpt lat="45.2047118" lon="9.0939786"><ele>66.0</ele><time>2026-04-26T07:52:25.641Z</time></trkpt><trkpt lat="45.2047138" lon="9.0941121"><ele>66.0</ele><time>2026-04-26T07:52:27.646Z</time></trkpt><trkpt lat="45.2047211" lon="9.0942408"><ele>66.0</ele><time>2026-04-26T07:52:29.642Z</time></trkpt><trkpt lat="45.2047329" lon="9.0943535"><ele>66.0</ele><time>2026-04-26T07:52:31.643Z</time></trkpt><trkpt lat="45.2047157" lon="9.0944568"><ele>66.0</ele><time>2026-04-26T07:52:33.645Z</time></trkpt><trkpt lat="45.2046928" lon="9.0945554"><ele>66.0</ele><time>2026-04-26T07:52:35.65Z</time></trkpt><trkpt lat="45.2046624" lon="9.094671"><ele>66.0</ele><time>2026-04-26T07:52:37.653Z</time></trkpt><trkpt lat="45.2046937" lon="9.0947814"><ele>66.0</ele><time>2026-04-26T07:52:40.637Z</time></trkpt><trkpt lat="45.2047464" lon="9.0948906"><ele>66.0</ele><time>2026-04-26T07:52:43.641Z</time></trkpt><trkpt lat="45.2047913" lon="9.0949694"><ele>66.0</ele><time>2026-04-26T07:52:45.63Z</time></trkpt><trkpt lat="45.2048706" lon="9.0950513"><ele>66.0</ele><time>2026-04-26T07:52:47.635Z</time></trkpt><trkpt lat="45.2049409" lon="9.0951284"><ele>66.0</ele><time>2026-04-26T07:52:49.641Z</time></trkpt><trkpt lat="45.2050032" lon="9.095222"><ele>67.16666666666667</ele><time>2026-04-26T07:52:51.639Z</time></trkpt><trkpt lat="45.205064" lon="9.0953154"><ele>68.33333333333333</ele><time>2026-04-26T07:52:53.648Z</time></trkpt><trkpt lat="45.2051047" lon="9.0954168"><ele>69.5</ele><time>2026-04-26T07:52:55.659Z</time></trkpt><trkpt lat="45.2051424" lon="9.0955261"><ele>70.66666666666666</ele><time>2026-04-26T07:52:57.633Z</time></trkpt><trkpt lat="45.205181" lon="9.0956409"><ele>71.83333333333333</ele><time>2026-04-26T07:52:59.633Z</time></trkpt><trkpt lat="45.2051992" lon="9.0957552"><ele>73.0</ele><time>2026-04-26T07:53:01.645Z</time></trkpt><trkpt lat="45.2052063" lon="9.0958698"><ele>73.0</ele><time>2026-04-26T07:53:03.654Z</time></trkpt><trkpt lat="45.205188" lon="9.0959671"><ele>73.0</ele><time>2026-04-26T07:53:05.635Z</time></trkpt><trkpt lat="45.205149" lon="9.0960596"><ele>73.0</ele><time>2026-04-26T07:53:07.646Z</time></trkpt><trkpt lat="45.2050929" lon="9.0961496"><ele>73.0</ele><time>2026-04-26T07:53:09.644Z</time></trkpt><trkpt lat="45.2050479" lon="9.0962308"><ele>73.0</ele><time>2026-04-26T07:53:11.642Z</time></trkpt><trkpt lat="45.2049937" lon="9.0962806"><ele>73.0</ele><time>2026-04-26T07:53:13.634Z</time></trkpt><trkpt lat="45.2049494" lon="9.0963517"><ele>73.0</ele><time>2026-04-26T07:53:15.641Z</time></trkpt><trkpt lat="45.2048926" lon="9.0964518"><ele>73.0</ele><time>2026-04-26T07:53:17.641Z</time></trkpt><trkpt lat="45.2048437" lon="9.0965519"><ele>73.0</ele><time>2026-04-26T07:53:19.64Z</time></trkpt><trkpt lat="45.2047865" lon="9.0966503"><ele>73.0</ele><time>2026-04-26T07:53:21.638Z</time></trkpt><trkpt lat="45.2047401" lon="9.0967619"><ele>73.0</ele><time>2026-04-26T07:53:23.64Z</time></trkpt><trkpt lat="45.2046681" lon="9.0968938"><ele>73.0</ele><time>2026-04-26T07:53:25.659Z</time></trkpt><trkpt lat="45.204608" lon="9.0970249"><ele>72.5</ele><time>2026-04-26T07:53:27.64Z</time></trkpt><trkpt lat="45.2045484" lon="9.0971421"><ele>72.0</ele><time>2026-04-26T07:53:29.645Z</time></trkpt><trkpt lat="45.2044947" lon="9.0972452"><ele>71.5</ele><time>2026-04-26T07:53:31.641Z</time></trkpt><trkpt lat="45.2044503" lon="9.0973415"><ele>71.0</ele><time>2026-04-26T07:53:33.646Z</time></trkpt><trkpt lat="45.2044129" lon="9.0974426"><ele>70.5</ele><time>2026-04-26T07:53:35.633Z</time></trkpt><trkpt lat="45.20436" lon="9.097539"><ele>70.0</ele><time>2026-04-26T07:53:37.643Z</time></trkpt><trkpt lat="45.2043078" lon="9.0976374"><ele>70.0</ele><time>2026-04-26T07:53:39.649Z</time></trkpt><trkpt lat="45.2042611" lon="9.097732"><ele>70.0</ele><time>2026-04-26T07:53:41.643Z</time></trkpt><trkpt lat="45.2042132" lon="9.0978193"><ele>70.0</ele><time>2026-04-26T07:53:43.657Z</time></trkpt><trkpt lat="45.2041627" lon="9.0979066"><ele>70.0</ele><time>2026-04-26T07:53:45.64Z</time></trkpt><trkpt lat="45.2041134" lon="9.0980008"><ele>70.0</ele><time>2026-04-26T07:53:47.646Z</time></trkpt><trkpt lat="45.2040601" lon="9.098095"><ele>70.0</ele><time>2026-04-26T07:53:49.639Z</time></trkpt><trkpt lat="45.2040096" lon="9.0981919"><ele>68.5</ele><time>2026-04-26T07:53:51.641Z</time></trkpt><trkpt lat="45.2039558" lon="9.0983001"><ele>67.0</ele><time>2026-04-26T07:53:53.649Z</time></trkpt><trkpt lat="45.2039176" lon="9.0984027"><ele>65.5</ele><time>2026-04-26T07:53:55.658Z</time></trkpt><trkpt lat="45.2038939" lon="9.0984977"><ele>64.0</ele><time>2026-04-26T07:53:57.649Z</time></trkpt><trkpt lat="45.203865" lon="9.0986097"><ele>62.49999999999999</ele><time>2026-04-26T07:53:59.639Z</time></trkpt><trkpt lat="45.2038489" lon="9.0987151"><ele>61.0</ele><time>2026-04-26T07:54:01.648Z</time></trkpt><trkpt lat="45.2038675" lon="9.0988286"><ele>60.99999999999999</ele><time>2026-04-26T07:54:04.643Z</time></trkpt><trkpt lat="45.2039176" lon="9.0988892"><ele>61.0</ele><time>2026-04-26T07:54:07.643Z</time></trkpt><trkpt lat="45.2039952" lon="9.0989515"><ele>61.0</ele><time>2026-04-26T07:54:10.637Z</time></trkpt><trkpt lat="45.2040662" lon="9.0989947"><ele>61.0</ele><time>2026-04-26T07:54:12.634Z</time></trkpt><trkpt lat="45.2041416" lon="9.0990372"><ele>60.99999999999999</ele><time>2026-04-26T07:54:14.65Z</time></trkpt><trkpt lat="45.2042079" lon="9.0990842"><ele>61.0</ele><time>2026-04-26T07:54:16.641Z</time></trkpt><trkpt lat="45.204286" lon="9.0991384"><ele>63.57142857142856</ele><time>2026-04-26T07:54:19.64Z</time></trkpt><trkpt lat="45.2043173" lon="9.0992275"><ele>66.14285714285714</ele><time>2026-04-26T07:54:22.635Z</time></trkpt><trkpt lat="45.2042797" lon="9.0993104"><ele>68.71428571428572</ele><time>2026-04-26T07:54:24.638Z</time></trkpt><trkpt lat="45.204234" lon="9.0993931"><ele>71.28571428571428</ele><time>2026-04-26T07:54:26.64Z</time></trkpt><trkpt lat="45.2041972" lon="9.0994756"><ele>73.85714285714286</ele><time>2026-04-26T07:54:28.638Z</time></trkpt><trkpt lat="45.2041509" lon="9.0995516"><ele>76.42857142857143</ele><time>2026-04-26T07:54:30.648Z</time></trkpt><trkpt lat="45.204101" lon="9.0996434"><ele>79.0</ele><time>2026-04-26T07:54:32.706Z</time></trkpt><trkpt lat="45.2040558" lon="9.0997263"><ele>79.0</ele><time>2026-04-26T07:54:34.637Z</time></trkpt><trkpt lat="45.2040004" lon="9.0997988"><ele>79.0</ele><time>2026-04-26T07:54:36.64Z</time></trkpt><trkpt lat="45.2039472" lon="9.099884"><ele>79.0</ele><time>2026-04-26T07:54:38.646Z</time></trkpt><trkpt lat="45.2038925" lon="9.0999779"><ele>79.0</ele><time>2026-04-26T07:54:40.649Z</time></trkpt><trkpt lat="45.2038359" lon="9.1000816"><ele>79.0</ele><time>2026-04-26T07:54:42.65Z</time></trkpt><trkpt lat="45.2037824" lon="9.1001784"><ele>79.0</ele><time>2026-04-26T07:54:44.706Z</time></trkpt><trkpt lat="45.2037329" lon="9.10029"><ele>78.33333333333333</ele><time>2026-04-26T07:54:46.636Z</time></trkpt><trkpt lat="45.2036786" lon="9.1003824"><ele>77.66666666666666</ele><time>2026-04-26T07:54:48.639Z</time></trkpt><trkpt lat="45.2036356" lon="9.1004512"><ele>77.0</ele><time>2026-04-26T07:54:50.639Z</time></trkpt><trkpt lat="45.2035886" lon="9.1005293"><ele>76.33333333333333</ele><time>2026-04-26T07:54:52.645Z</time></trkpt><trkpt lat="45.2035417" lon="9.1006205"><ele>75.66666666666667</ele><time>2026-04-26T07:54:54.648Z</time></trkpt><trkpt lat="45.2034961" lon="9.1007202"><ele>75.0</ele><time>2026-04-26T07:54:56.647Z</time></trkpt><trkpt lat="45.2034508" lon="9.1008239"><ele>75.0</ele><time>2026-04-26T07:54:58.638Z</time></trkpt><trkpt lat="45.2033946" lon="9.1009245"><ele>75.0</ele><time>2026-04-26T07:55:00.635Z</time></trkpt><trkpt lat="45.2033425" lon="9.1010283"><ele>75.0</ele><time>2026-04-26T07:55:02.646Z</time></trkpt><trkpt lat="45.2032965" lon="9.1011276"><ele>75.0</ele><time>2026-04-26T07:55:04.651Z</time></trkpt><trkpt lat="45.2032428" lon="9.1012497"><ele>75.0</ele><time>2026-04-26T07:55:06.634Z</time></trkpt><trkpt lat="45.2031938" lon="9.1013658"><ele>74.2</ele><time>2026-04-26T07:55:08.641Z</time></trkpt><trkpt lat="45.2031392" lon="9.1015003"><ele>73.4</ele><time>2026-04-26T07:55:10.644Z</time></trkpt><trkpt lat="45.2030841" lon="9.1016382"><ele>72.6</ele><time>2026-04-26T07:55:12.635Z</time></trkpt><trkpt lat="45.2030291" lon="9.1017627"><ele>71.8</ele><time>2026-04-26T07:55:14.719Z</time></trkpt><trkpt lat="45.2029667" lon="9.101874"><ele>71.0</ele><time>2026-04-26T07:55:16.643Z</time></trkpt><trkpt lat="45.2029123" lon="9.1019785"><ele>71.0</ele><time>2026-04-26T07:55:18.632Z</time></trkpt><trkpt lat="45.2028576" lon="9.1020749"><ele>71.0</ele><time>2026-04-26T07:55:20.653Z</time></trkpt><trkpt lat="45.2027904" lon="9.1021754"><ele>71.0</ele><time>2026-04-26T07:55:22.645Z</time></trkpt><trkpt lat="45.2027218" lon="9.102263"><ele>71.0</ele><time>2026-04-26T07:55:24.642Z</time></trkpt><trkpt lat="45.2026546" lon="9.1023501"><ele>71.0</ele><time>2026-04-26T07:55:26.643Z</time></trkpt><trkpt lat="45.202581" lon="9.102442"><ele>71.0</ele><time>2026-04-26T07:55:28.642Z</time></trkpt><trkpt lat="45.2025053" lon="9.1025269"><ele>71.0</ele><time>2026-04-26T07:55:30.646Z</time></trkpt><trkpt lat="45.2024244" lon="9.102608"><ele>71.0</ele><time>2026-04-26T07:55:32.635Z</time></trkpt><trkpt lat="45.2023489" lon="9.1026903"><ele>71.0</ele><time>2026-04-26T07:55:34.646Z</time></trkpt><trkpt lat="45.2022732" lon="9.102761"><ele>71.0</ele><time>2026-04-26T07:55:36.647Z</time></trkpt><trkpt lat="45.2022013" lon="9.1028352"><ele>71.0</ele><time>2026-04-26T07:55:38.653Z</time></trkpt><trkpt lat="45.2021284" lon="9.1028979"><ele>71.0</ele><time>2026-04-26T07:55:40.634Z</time></trkpt><trkpt lat="45.202053" lon="9.1029686"><ele>71.0</ele><time>2026-04-26T07:55:42.642Z</time></trkpt><trkpt lat="45.2019812" lon="9.1030429"><ele>71.0</ele><time>2026-04-26T07:55:44.633Z</time></trkpt><trkpt lat="45.2019039" lon="9.1031097"><ele>71.0</ele><time>2026-04-26T07:55:46.645Z</time></trkpt><trkpt lat="45.201829" lon="9.1031914"><ele>71.0</ele><time>2026-04-26T07:55:48.642Z</time></trkpt><trkpt lat="45.2017559" lon="9.1032659"><ele>72.39999999999999</ele><time>2026-04-26T07:55:50.633Z</time></trkpt><trkpt lat="45.2016828" lon="9.1033373"><ele>73.8</ele><time>2026-04-26T07:55:52.645Z</time></trkpt><trkpt lat="45.2016085" lon="9.103408"><ele>75.19999999999999</ele><time>2026-04-26T07:55:54.645Z</time></trkpt><trkpt lat="45.2015328" lon="9.1034854"><ele>76.6</ele><time>2026-04-26T07:55:56.642Z</time></trkpt><trkpt lat="45.2014554" lon="9.1035617"><ele>78.0</ele><time>2026-04-26T07:55:58.643Z</time></trkpt><trkpt lat="45.2013761" lon="9.1036494"><ele>78.4</ele><time>2026-04-26T07:56:00.633Z</time></trkpt><trkpt lat="45.2012884" lon="9.1037378"><ele>78.8</ele><time>2026-04-26T07:56:02.647Z</time></trkpt><trkpt lat="45.2012036" lon="9.1038193"><ele>79.2</ele><time>2026-04-26T07:56:04.641Z</time></trkpt><trkpt lat="45.2011225" lon="9.1038971"><ele>79.6</ele><time>2026-04-26T07:56:06.636Z</time></trkpt><trkpt lat="45.2010412" lon="9.1039861"><ele>80.0</ele><time>2026-04-26T07:56:08.718Z</time></trkpt><trkpt lat="45.2009543" lon="9.1040753"><ele>79.8</ele><time>2026-04-26T07:56:10.649Z</time></trkpt><trkpt lat="45.2008677" lon="9.1041747"><ele>79.6</ele><time>2026-04-26T07:56:12.631Z</time></trkpt><trkpt lat="45.2007766" lon="9.1042655"><ele>79.4</ele><time>2026-04-26T07:56:14.634Z</time></trkpt><trkpt lat="45.200694" lon="9.1043525"><ele>79.2</ele><time>2026-04-26T07:56:16.633Z</time></trkpt><trkpt lat="45.2006111" lon="9.1044373"><ele>79.0</ele><time>2026-04-26T07:56:18.633Z</time></trkpt><trkpt lat="45.2005167" lon="9.1045351"><ele>79.0</ele><time>2026-04-26T07:56:20.638Z</time></trkpt><trkpt lat="45.2004304" lon="9.1046205"><ele>79.0</ele><time>2026-04-26T07:56:22.644Z</time></trkpt><trkpt lat="45.2003414" lon="9.104717"><ele>79.0</ele><time>2026-04-26T07:56:24.655Z</time></trkpt><trkpt lat="45.2002469" lon="9.1048128"><ele>79.0</ele><time>2026-04-26T07:56:26.637Z</time></trkpt><trkpt lat="45.2001464" lon="9.10489"><ele>79.0</ele><time>2026-04-26T07:56:28.631Z</time></trkpt><trkpt lat="45.2000519" lon="9.1049872"><ele>78.8</ele><time>2026-04-26T07:56:30.648Z</time></trkpt><trkpt lat="45.1999524" lon="9.1050825"><ele>78.60000000000001</ele><time>2026-04-26T07:56:32.641Z</time></trkpt><trkpt lat="45.1998564" lon="9.1051655"><ele>78.4</ele><time>2026-04-26T07:56:34.639Z</time></trkpt><trkpt lat="45.1997714" lon="9.1052609"><ele>78.2</ele><time>2026-04-26T07:56:36.643Z</time></trkpt><trkpt lat="45.1996825" lon="9.1053306"><ele>78.0</ele><time>2026-04-26T07:56:38.639Z</time></trkpt><trkpt lat="45.1995985" lon="9.1054078"><ele>77.6</ele><time>2026-04-26T07:56:40.636Z</time></trkpt><trkpt lat="45.199506" lon="9.1054949"><ele>77.19999999999999</ele><time>2026-04-26T07:56:42.643Z</time></trkpt><trkpt lat="45.1994164" lon="9.1055555"><ele>76.8</ele><time>2026-04-26T07:56:44.637Z</time></trkpt><trkpt lat="45.1993318" lon="9.1056171"><ele>76.39999999999999</ele><time>2026-04-26T07:56:46.64Z</time></trkpt><trkpt lat="45.1992445" lon="9.1056844"><ele>76.0</ele><time>2026-04-26T07:56:48.643Z</time></trkpt><trkpt lat="45.1991471" lon="9.1057644"><ele>76.0</ele><time>2026-04-26T07:56:50.64Z</time></trkpt><trkpt lat="45.199056" lon="9.1058371"><ele>76.0</ele><time>2026-04-26T07:56:52.639Z</time></trkpt><trkpt lat="45.1989663" lon="9.1059146"><ele>76.0</ele><time>2026-04-26T07:56:54.639Z</time></trkpt><trkpt lat="45.1988769" lon="9.1059917"><ele>76.0</ele><time>2026-04-26T07:56:56.637Z</time></trkpt><trkpt lat="45.1987937" lon="9.1060778"><ele>76.0</ele><time>2026-04-26T07:56:58.646Z</time></trkpt><trkpt lat="45.1987204" lon="9.1061712"><ele>74.5</ele><time>2026-04-26T07:57:00.638Z</time></trkpt><trkpt lat="45.1986557" lon="9.1062781"><ele>73.0</ele><time>2026-04-26T07:57:02.64Z</time></trkpt><trkpt lat="45.1986044" lon="9.1063868"><ele>71.5</ele><time>2026-04-26T07:57:04.637Z</time></trkpt><trkpt lat="45.1985488" lon="9.1064601"><ele>70.0</ele><time>2026-04-26T07:57:06.645Z</time></trkpt><trkpt lat="45.1984815" lon="9.1064839"><ele>68.5</ele><time>2026-04-26T07:57:08.634Z</time></trkpt><trkpt lat="45.1983997" lon="9.1064903"><ele>67.0</ele><time>2026-04-26T07:57:10.643Z</time></trkpt><trkpt lat="45.1983351" lon="9.1065277"><ele>66.66666666666666</ele><time>2026-04-26T07:57:12.649Z</time></trkpt><trkpt lat="45.1982812" lon="9.1065882"><ele>66.33333333333333</ele><time>2026-04-26T07:57:14.64Z</time></trkpt><trkpt lat="45.1982249" lon="9.106696"><ele>66.0</ele><time>2026-04-26T07:57:16.638Z</time></trkpt><trkpt lat="45.1981697" lon="9.1068239"><ele>65.66666666666667</ele><time>2026-04-26T07:57:18.636Z</time></trkpt><trkpt lat="45.1981303" lon="9.1069079"><ele>65.33333333333334</ele><time>2026-04-26T07:57:19.651Z</time></trkpt><trkpt lat="45.1980827" lon="9.10699"><ele>65.0</ele><time>2026-04-26T07:57:20.639Z</time></trkpt><trkpt lat="45.1980255" lon="9.1070608"><ele>65.0</ele><time>2026-04-26T07:57:21.639Z</time></trkpt><trkpt lat="45.1979655" lon="9.107138"><ele>65.0</ele><time>2026-04-26T07:57:22.632Z</time></trkpt><trkpt lat="45.1979199" lon="9.1072115"><ele>65.0</ele><time>2026-04-26T07:57:23.635Z</time></trkpt><trkpt lat="45.1978732" lon="9.1072793"><ele>65.0</ele><time>2026-04-26T07:57:24.633Z</time></trkpt><trkpt lat="45.1977656" lon="9.1073432"><ele>65.0</ele><time>2026-04-26T07:57:26.633Z</time></trkpt><trkpt lat="45.1976782" lon="9.1073306"><ele>65.0</ele><time>2026-04-26T07:57:28.632Z</time></trkpt><trkpt lat="45.1976322" lon="9.1072499"><ele>65.0</ele><time>2026-04-26T07:57:31.647Z</time></trkpt><trkpt lat="45.1975685" lon="9.1072038"><ele>65.0</ele><time>2026-04-26T07:57:35.645Z</time></trkpt><trkpt lat="45.1975014" lon="9.1071183"><ele>65.0</ele><time>2026-04-26T07:57:39.648Z</time></trkpt><trkpt lat="45.1974303" lon="9.1070396"><ele>65.0</ele><time>2026-04-26T07:57:42.642Z</time></trkpt><trkpt lat="45.1973618" lon="9.1069557"><ele>65.0</ele><time>2026-04-26T07:57:45.644Z</time></trkpt><trkpt lat="45.1972799" lon="9.1068614"><ele>65.0</ele><time>2026-04-26T07:57:48.647Z</time></trkpt><trkpt lat="45.1972188" lon="9.1067956"><ele>63.8</ele><time>2026-04-26T07:57:50.649Z</time></trkpt><trkpt lat="45.1971254" lon="9.1067137"><ele>62.6</ele><time>2026-04-26T07:57:52.64Z</time></trkpt><trkpt lat="45.1970564" lon="9.106644"><ele>61.400000000000006</ele><time>2026-04-26T07:57:54.641Z</time></trkpt><trkpt lat="45.196992" lon="9.1065685"><ele>60.2</ele><time>2026-04-26T07:57:56.638Z</time></trkpt><trkpt lat="45.196918" lon="9.1064847"><ele>59.0</ele><time>2026-04-26T07:57:58.638Z</time></trkpt><trkpt lat="45.1968487" lon="9.1063953"><ele>58.833333333333336</ele><time>2026-04-26T07:58:00.644Z</time></trkpt><trkpt lat="45.1967895" lon="9.10631"><ele>58.66666666666667</ele><time>2026-04-26T07:58:03.636Z</time></trkpt><trkpt lat="45.19673" lon="9.1062394"><ele>58.5</ele><time>2026-04-26T07:58:05.642Z</time></trkpt><trkpt lat="45.1966705" lon="9.1061652"><ele>58.33333333333333</ele><time>2026-04-26T07:58:07.632Z</time></trkpt><trkpt lat="45.1966062" lon="9.1061084"><ele>58.166666666666664</ele><time>2026-04-26T07:58:09.648Z</time></trkpt><trkpt lat="45.1965529" lon="9.1060525"><ele>58.0</ele><time>2026-04-26T07:58:11.64Z</time></trkpt><trkpt lat="45.196491" lon="9.1059787"><ele>58.49999999999999</ele><time>2026-04-26T07:58:13.631Z</time></trkpt><trkpt lat="45.1964263" lon="9.1059175"><ele>59.0</ele><time>2026-04-26T07:58:15.636Z</time></trkpt><trkpt lat="45.1963472" lon="9.1058777"><ele>59.5</ele><time>2026-04-26T07:58:17.635Z</time></trkpt><trkpt lat="45.196276" lon="9.1058363"><ele>60.0</ele><time>2026-04-26T07:58:19.65Z</time></trkpt><trkpt lat="45.1961966" lon="9.105763"><ele>60.49999999999999</ele><time>2026-04-26T07:58:21.718Z</time></trkpt><trkpt lat="45.1961155" lon="9.1057084"><ele>61.0</ele><time>2026-04-26T07:58:23.641Z</time></trkpt><trkpt lat="45.1960385" lon="9.1056675"><ele>60.99999999999999</ele><time>2026-04-26T07:58:25.632Z</time></trkpt><trkpt lat="45.1959593" lon="9.1056129"><ele>61.0</ele><time>2026-04-26T07:58:27.645Z</time></trkpt><trkpt lat="45.1958731" lon="9.1055532"><ele>61.0</ele><time>2026-04-26T07:58:29.662Z</time></trkpt><trkpt lat="45.1958054" lon="9.1055085"><ele>61.0</ele><time>2026-04-26T07:58:31.642Z</time></trkpt><trkpt lat="45.1957388" lon="9.1054679"><ele>60.99999999999999</ele><time>2026-04-26T07:58:33.643Z</time></trkpt><trkpt lat="45.1956611" lon="9.1054257"><ele>61.0</ele><time>2026-04-26T07:58:35.644Z</time></trkpt><trkpt lat="45.1955743" lon="9.1053767"><ele>61.428571428571416</ele><time>2026-04-26T07:58:37.643Z</time></trkpt><trkpt lat="45.1955094" lon="9.105335"><ele>61.857142857142854</ele><time>2026-04-26T07:58:39.627Z</time></trkpt><trkpt lat="45.1954431" lon="9.1052961"><ele>62.28571428571428</ele><time>2026-04-26T07:58:41.634Z</time></trkpt><trkpt lat="45.1953721" lon="9.105258"><ele>62.71428571428571</ele><time>2026-04-26T07:58:43.636Z</time></trkpt><trkpt lat="45.1953028" lon="9.1052144"><ele>63.14285714285714</ele><time>2026-04-26T07:58:45.654Z</time></trkpt><trkpt lat="45.1952442" lon="9.1051604"><ele>63.57142857142857</ele><time>2026-04-26T07:58:47.641Z</time></trkpt><trkpt lat="45.1951794" lon="9.1050975"><ele>64.0</ele><time>2026-04-26T07:58:49.639Z</time></trkpt><trkpt lat="45.1951237" lon="9.105037"><ele>64.0</ele><time>2026-04-26T07:58:51.642Z</time></trkpt><trkpt lat="45.1950632" lon="9.1049457"><ele>64.0</ele><time>2026-04-26T07:58:53.632Z</time></trkpt><trkpt lat="45.1949906" lon="9.1048587"><ele>64.0</ele><time>2026-04-26T07:58:55.639Z</time></trkpt><trkpt lat="45.1949211" lon="9.1047602"><ele>64.0</ele><time>2026-04-26T07:58:57.64Z</time></trkpt><trkpt lat="45.1948685" lon="9.1046541"><ele>64.0</ele><time>2026-04-26T07:58:59.646Z</time></trkpt><trkpt lat="45.1948019" lon="9.1045474"><ele>64.2</ele><time>2026-04-26T07:59:01.639Z</time></trkpt><trkpt lat="45.1947266" lon="9.1044391"><ele>64.4</ele><time>2026-04-26T07:59:03.637Z</time></trkpt><trkpt lat="45.1946555" lon="9.1043408"><ele>64.6</ele><time>2026-04-26T07:59:05.64Z</time></trkpt><trkpt lat="45.1945936" lon="9.1042486"><ele>64.8</ele><time>2026-04-26T07:59:07.65Z</time></trkpt><trkpt lat="45.1945269" lon="9.1041693"><ele>65.0</ele><time>2026-04-26T07:59:09.633Z</time></trkpt><trkpt lat="45.194464" lon="9.1040788"><ele>64.66666666666667</ele><time>2026-04-26T07:59:11.642Z</time></trkpt><trkpt lat="45.1944024" lon="9.1039919"><ele>64.33333333333334</ele><time>2026-04-26T07:59:13.633Z</time></trkpt><trkpt lat="45.1943358" lon="9.1038925"><ele>64.0</ele><time>2026-04-26T07:59:15.634Z</time></trkpt><trkpt lat="45.194269" lon="9.1038052"><ele>63.66666666666667</ele><time>2026-04-26T07:59:17.642Z</time></trkpt><trkpt lat="45.1942036" lon="9.1037242"><ele>63.333333333333336</ele><time>2026-04-26T07:59:19.651Z</time></trkpt><trkpt lat="45.1941421" lon="9.1036389"><ele>63.0</ele><time>2026-04-26T07:59:21.644Z</time></trkpt><trkpt lat="45.1940888" lon="9.1035628"><ele>63.0</ele><time>2026-04-26T07:59:23.634Z</time></trkpt><trkpt lat="45.1940211" lon="9.103482"><ele>63.0</ele><time>2026-04-26T07:59:26.645Z</time></trkpt><trkpt lat="45.1939828" lon="9.1034021"><ele>63.0</ele><time>2026-04-26T07:59:28.643Z</time></trkpt><trkpt lat="45.1939329" lon="9.1033364"><ele>63.0</ele><time>2026-04-26T07:59:30.639Z</time></trkpt><trkpt lat="45.193875" lon="9.1032515"><ele>63.0</ele><time>2026-04-26T07:59:32.641Z</time></trkpt><trkpt lat="45.1938063" lon="9.1031621"><ele>63.0</ele><time>2026-04-26T07:59:34.641Z</time></trkpt><trkpt lat="45.1937471" lon="9.1030792"><ele>62.5</ele><time>2026-04-26T07:59:36.641Z</time></trkpt><trkpt lat="45.1936942" lon="9.1029857"><ele>62.0</ele><time>2026-04-26T07:59:38.639Z</time></trkpt><trkpt lat="45.1936377" lon="9.1028928"><ele>61.5</ele><time>2026-04-26T07:59:40.719Z</time></trkpt><trkpt lat="45.1935752" lon="9.1028048"><ele>61.0</ele><time>2026-04-26T07:59:42.637Z</time></trkpt><trkpt lat="45.1935162" lon="9.1027126"><ele>60.5</ele><time>2026-04-26T07:59:44.633Z</time></trkpt><trkpt lat="45.1934378" lon="9.1026859"><ele>60.0</ele><time>2026-04-26T07:59:46.628Z</time></trkpt><trkpt lat="45.1933768" lon="9.102757"><ele>60.0</ele><time>2026-04-26T07:59:48.636Z</time></trkpt><trkpt lat="45.1933203" lon="9.1028634"><ele>60.0</ele><time>2026-04-26T07:59:50.645Z</time></trkpt><trkpt lat="45.193267" lon="9.1029659"><ele>60.0</ele><time>2026-04-26T07:59:52.638Z</time></trkpt><trkpt lat="45.1932133" lon="9.1030506"><ele>60.0</ele><time>2026-04-26T07:59:54.637Z</time></trkpt><trkpt lat="45.193162" lon="9.1031221"><ele>60.0</ele><time>2026-04-26T07:59:56.643Z</time></trkpt><trkpt lat="45.1931016" lon="9.1032078"><ele>60.0</ele><time>2026-04-26T07:59:58.641Z</time></trkpt><trkpt lat="45.1930364" lon="9.1032839"><ele>59.166666666666664</ele><time>2026-04-26T08:00:00.65Z</time></trkpt><trkpt lat="45.1929782" lon="9.1033693"><ele>58.33333333333333</ele><time>2026-04-26T08:00:02.641Z</time></trkpt><trkpt lat="45.1929122" lon="9.1034676"><ele>57.5</ele><time>2026-04-26T08:00:04.64Z</time></trkpt><trkpt lat="45.1928538" lon="9.1035576"><ele>56.666666666666664</ele><time>2026-04-26T08:00:06.723Z</time></trkpt><trkpt lat="45.1928126" lon="9.1036543"><ele>55.83333333333333</ele><time>2026-04-26T08:00:08.65Z</time></trkpt><trkpt lat="45.1927899" lon="9.1037696"><ele>55.0</ele><time>2026-04-26T08:00:10.65Z</time></trkpt><trkpt lat="45.1927807" lon="9.1038767"><ele>54.99999999999999</ele><time>2026-04-26T08:00:12.649Z</time></trkpt><trkpt lat="45.1927868" lon="9.1039762"><ele>55.0</ele><time>2026-04-26T08:00:14.643Z</time></trkpt><trkpt lat="45.1927834" lon="9.1040902"><ele>55.0</ele><time>2026-04-26T08:00:16.642Z</time></trkpt><trkpt lat="45.1927651" lon="9.1042099"><ele>55.0</ele><time>2026-04-26T08:00:18.644Z</time></trkpt><trkpt lat="45.1927342" lon="9.1043242"><ele>54.99999999999999</ele><time>2026-04-26T08:00:20.718Z</time></trkpt><trkpt lat="45.1926975" lon="9.1044051"><ele>55.0</ele><time>2026-04-26T08:00:22.643Z</time></trkpt><trkpt lat="45.1926396" lon="9.1044864"><ele>55.42857142857142</ele><time>2026-04-26T08:00:25.64Z</time></trkpt><trkpt lat="45.1926049" lon="9.104564"><ele>55.85714285714286</ele><time>2026-04-26T08:00:30.642Z</time></trkpt><trkpt lat="45.1926026" lon="9.1046563"><ele>56.28571428571429</ele><time>2026-04-26T08:00:33.632Z</time></trkpt><trkpt lat="45.1925939" lon="9.104766"><ele>56.714285714285715</ele><time>2026-04-26T08:00:36.64Z</time></trkpt><trkpt lat="45.1925863" lon="9.1048585"><ele>57.142857142857146</ele><time>2026-04-26T08:00:39.639Z</time></trkpt><trkpt lat="45.1925788" lon="9.1049486"><ele>57.57142857142858</ele><time>2026-04-26T08:00:43.636Z</time></trkpt><trkpt lat="45.192614" lon="9.1050302"><ele>58.00000000000001</ele><time>2026-04-26T08:00:49.655Z</time></trkpt><trkpt lat="45.1925885" lon="9.105131"><ele>58.166666666666664</ele><time>2026-04-26T08:00:53.64Z</time></trkpt><trkpt lat="45.1925457" lon="9.1052318"><ele>58.33333333333333</ele><time>2026-04-26T08:00:56.642Z</time></trkpt><trkpt lat="45.192535" lon="9.1053576"><ele>58.5</ele><time>2026-04-26T08:00:59.632Z</time></trkpt><trkpt lat="45.192512" lon="9.1054586"><ele>58.66666666666667</ele><time>2026-04-26T08:01:01.71Z</time></trkpt><trkpt lat="45.1925082" lon="9.1055587"><ele>58.833333333333336</ele><time>2026-04-26T08:01:03.662Z</time></trkpt><trkpt lat="45.1924992" lon="9.1056892"><ele>59.0</ele><time>2026-04-26T08:01:05.644Z</time></trkpt><trkpt lat="45.1924873" lon="9.1058077"><ele>59.285714285714285</ele><time>2026-04-26T08:01:07.643Z</time></trkpt><trkpt lat="45.1924758" lon="9.1058987"><ele>59.57142857142857</ele><time>2026-04-26T08:01:09.642Z</time></trkpt><trkpt lat="45.1924715" lon="9.1059964"><ele>59.857142857142854</ele><time>2026-04-26T08:01:11.636Z</time></trkpt><trkpt lat="45.1924808" lon="9.1060884"><ele>60.14285714285714</ele><time>2026-04-26T08:01:13.707Z</time></trkpt><trkpt lat="45.1924782" lon="9.1061781"><ele>60.42857142857143</ele><time>2026-04-26T08:01:15.662Z</time></trkpt><trkpt lat="45.192462" lon="9.1062767"><ele>60.71428571428571</ele><time>2026-04-26T08:01:17.636Z</time></trkpt><trkpt lat="45.1924439" lon="9.1063725"><ele>60.99999999999999</ele><time>2026-04-26T08:01:19.642Z</time></trkpt><trkpt lat="45.1924389" lon="9.1064767"><ele>60.99999999999999</ele><time>2026-04-26T08:01:21.646Z</time></trkpt><trkpt lat="45.1924476" lon="9.1065658"><ele>61.0</ele><time>2026-04-26T08:01:23.646Z</time></trkpt><trkpt lat="45.1924481" lon="9.1066632"><ele>61.0</ele><time>2026-04-26T08:01:25.656Z</time></trkpt><trkpt lat="45.1924146" lon="9.1067764"><ele>61.0</ele><time>2026-04-26T08:01:28.72Z</time></trkpt><trkpt lat="45.1924446" lon="9.1069095"><ele>60.99999999999999</ele><time>2026-04-26T08:01:31.643Z</time></trkpt><trkpt lat="45.1924624" lon="9.1070285"><ele>61.0</ele><time>2026-04-26T08:01:33.649Z</time></trkpt><trkpt lat="45.1924678" lon="9.107159"><ele>61.14285714285714</ele><time>2026-04-26T08:01:35.666Z</time></trkpt><trkpt lat="45.1924757" lon="9.1072782"><ele>61.285714285714285</ele><time>2026-04-26T08:01:37.642Z</time></trkpt><trkpt lat="45.1924657" lon="9.1073882"><ele>61.42857142857143</ele><time>2026-04-26T08:01:39.642Z</time></trkpt><trkpt lat="45.1924587" lon="9.1075076"><ele>61.57142857142857</ele><time>2026-04-26T08:01:41.642Z</time></trkpt><trkpt lat="45.1924541" lon="9.1075999"><ele>61.71428571428572</ele><time>2026-04-26T08:01:43.636Z</time></trkpt><trkpt lat="45.1924465" lon="9.1076911"><ele>61.85714285714286</ele><time>2026-04-26T08:01:45.645Z</time></trkpt><trkpt lat="45.1924468" lon="9.1077871"><ele>62.0</ele><time>2026-04-26T08:01:47.65Z</time></trkpt><trkpt lat="45.1924474" lon="9.1079018"><ele>62.00000000000001</ele><time>2026-04-26T08:01:49.639Z</time></trkpt><trkpt lat="45.1924596" lon="9.1080176"><ele>62.0</ele><time>2026-04-26T08:01:51.634Z</time></trkpt><trkpt lat="45.192462" lon="9.1081279"><ele>62.0</ele><time>2026-04-26T08:01:53.636Z</time></trkpt><trkpt lat="45.1924698" lon="9.1082275"><ele>62.0</ele><time>2026-04-26T08:01:55.641Z</time></trkpt><trkpt lat="45.1924744" lon="9.108348"><ele>62.00000000000001</ele><time>2026-04-26T08:01:57.644Z</time></trkpt><trkpt lat="45.1924831" lon="9.1084575"><ele>62.0</ele><time>2026-04-26T08:01:59.648Z</time></trkpt><trkpt lat="45.1924931" lon="9.1085692"><ele>62.00000000000001</ele><time>2026-04-26T08:02:01.635Z</time></trkpt><trkpt lat="45.1925036" lon="9.1086768"><ele>62.0</ele><time>2026-04-26T08:02:03.643Z</time></trkpt><trkpt lat="45.1925249" lon="9.1087784"><ele>62.0</ele><time>2026-04-26T08:02:05.664Z</time></trkpt><trkpt lat="45.192556" lon="9.108891"><ele>62.0</ele><time>2026-04-26T08:02:07.637Z</time></trkpt><trkpt lat="45.1925892" lon="9.1090015"><ele>62.00000000000001</ele><time>2026-04-26T08:02:09.647Z</time></trkpt><trkpt lat="45.1926191" lon="9.1091018"><ele>62.0</ele><time>2026-04-26T08:02:11.644Z</time></trkpt><trkpt lat="45.1926453" lon="9.1092166"><ele>62.00000000000001</ele><time>2026-04-26T08:02:13.656Z</time></trkpt><trkpt lat="45.1926698" lon="9.1093193"><ele>62.0</ele><time>2026-04-26T08:02:15.638Z</time></trkpt><trkpt lat="45.1927008" lon="9.10943"><ele>62.0</ele><time>2026-04-26T08:02:17.641Z</time></trkpt><trkpt lat="45.1927275" lon="9.1095364"><ele>62.0</ele><time>2026-04-26T08:02:19.647Z</time></trkpt><trkpt lat="45.1927618" lon="9.1096449"><ele>62.00000000000001</ele><time>2026-04-26T08:02:21.657Z</time></trkpt><trkpt lat="45.1927956" lon="9.1097508"><ele>62.0</ele><time>2026-04-26T08:02:23.629Z</time></trkpt><trkpt lat="45.1928351" lon="9.1098436"><ele>62.333333333333336</ele><time>2026-04-26T08:02:25.641Z</time></trkpt><trkpt lat="45.1928859" lon="9.1099341"><ele>62.66666666666667</ele><time>2026-04-26T08:02:27.64Z</time></trkpt><trkpt lat="45.1929125" lon="9.1100367"><ele>63.0</ele><time>2026-04-26T08:02:29.639Z</time></trkpt><trkpt lat="45.192953" lon="9.1101481"><ele>63.33333333333333</ele><time>2026-04-26T08:02:31.636Z</time></trkpt><trkpt lat="45.1929841" lon="9.1102663"><ele>63.666666666666664</ele><time>2026-04-26T08:02:33.634Z</time></trkpt><trkpt lat="45.1930191" lon="9.1103848"><ele>64.0</ele><time>2026-04-26T08:02:35.643Z</time></trkpt><trkpt lat="45.1930667" lon="9.1104809"><ele>63.99999999999999</ele><time>2026-04-26T08:02:37.646Z</time></trkpt><trkpt lat="45.1931058" lon="9.1106009"><ele>64.0</ele><time>2026-04-26T08:02:39.65Z</time></trkpt><trkpt lat="45.1930846" lon="9.1107196"><ele>64.0</ele><time>2026-04-26T08:02:42.64Z</time></trkpt><trkpt lat="45.1930226" lon="9.1107528"><ele>64.0</ele><time>2026-04-26T08:02:44.632Z</time></trkpt><trkpt lat="45.19294" lon="9.1107453"><ele>63.99999999999999</ele><time>2026-04-26T08:02:47.633Z</time></trkpt><trkpt lat="45.1928668" lon="9.1107412"><ele>64.0</ele><time>2026-04-26T08:02:49.634Z</time></trkpt><trkpt lat="45.1927769" lon="9.1107466"><ele>63.800000000000004</ele><time>2026-04-26T08:02:52.641Z</time></trkpt><trkpt lat="45.1926926" lon="9.1108055"><ele>63.60000000000001</ele><time>2026-04-26T08:02:55.633Z</time></trkpt><trkpt lat="45.1926743" lon="9.1109517"><ele>63.4</ele><time>2026-04-26T08:02:58.633Z</time></trkpt><trkpt lat="45.1926697" lon="9.1110783"><ele>63.2</ele><time>2026-04-26T08:03:00.716Z</time></trkpt><trkpt lat="45.1926533" lon="9.1111993"><ele>63.0</ele><time>2026-04-26T08:03:02.639Z</time></trkpt><trkpt lat="45.1926401" lon="9.1113133"><ele>63.0</ele><time>2026-04-26T08:03:04.641Z</time></trkpt><trkpt lat="45.1926319" lon="9.1114266"><ele>63.0</ele><time>2026-04-26T08:03:06.64Z</time></trkpt><trkpt lat="45.1926168" lon="9.1115317"><ele>63.0</ele><time>2026-04-26T08:03:08.641Z</time></trkpt><trkpt lat="45.1925921" lon="9.1116509"><ele>63.0</ele><time>2026-04-26T08:03:11.632Z</time></trkpt><trkpt lat="45.1925786" lon="9.1117803"><ele>63.0</ele><time>2026-04-26T08:03:14.637Z</time></trkpt><trkpt lat="45.1925749" lon="9.1118876"><ele>63.0</ele><time>2026-04-26T08:03:16.716Z</time></trkpt><trkpt lat="45.1925642" lon="9.1120109"><ele>63.0</ele><time>2026-04-26T08:03:19.632Z</time></trkpt><trkpt lat="45.1925583" lon="9.1121256"><ele>63.0</ele><time>2026-04-26T08:03:22.638Z</time></trkpt><trkpt lat="45.1925755" lon="9.1122219"><ele>63.0</ele><time>2026-04-26T08:03:24.641Z</time></trkpt><trkpt lat="45.1925894" lon="9.1123327"><ele>63.0</ele><time>2026-04-26T08:03:27.639Z</time></trkpt><trkpt lat="45.1926241" lon="9.11242"><ele>63.0</ele><time>2026-04-26T08:03:30.64Z</time></trkpt><trkpt lat="45.1926595" lon="9.1125455"><ele>63.0</ele><time>2026-04-26T08:03:33.643Z</time></trkpt><trkpt lat="45.1926903" lon="9.11267"><ele>63.0</ele><time>2026-04-26T08:03:36.642Z</time></trkpt><trkpt lat="45.1927215" lon="9.1127532"><ele>63.0</ele><time>2026-04-26T08:03:38.636Z</time></trkpt><trkpt lat="45.1927523" lon="9.1128603"><ele>63.0</ele><time>2026-04-26T08:03:40.645Z</time></trkpt><trkpt lat="45.1927974" lon="9.1129574"><ele>63.0</ele><time>2026-04-26T08:03:42.644Z</time></trkpt><trkpt lat="45.1928371" lon="9.1130634"><ele>63.0</ele><time>2026-04-26T08:03:44.638Z</time></trkpt><trkpt lat="45.1928755" lon="9.113165"><ele>63.0</ele><time>2026-04-26T08:03:46.641Z</time></trkpt><trkpt lat="45.1929147" lon="9.1132499"><ele>63.166666666666664</ele><time>2026-04-26T08:03:48.639Z</time></trkpt><trkpt lat="45.1929554" lon="9.1133365"><ele>63.33333333333333</ele><time>2026-04-26T08:03:50.645Z</time></trkpt><trkpt lat="45.1930061" lon="9.1134125"><ele>63.5</ele><time>2026-04-26T08:03:52.648Z</time></trkpt><trkpt lat="45.1930507" lon="9.1134971"><ele>63.666666666666664</ele><time>2026-04-26T08:03:54.641Z</time></trkpt><trkpt lat="45.1930986" lon="9.113585"><ele>63.83333333333333</ele><time>2026-04-26T08:03:56.631Z</time></trkpt><trkpt lat="45.1931601" lon="9.113692"><ele>64.0</ele><time>2026-04-26T08:03:58.636Z</time></trkpt><trkpt lat="45.193206" lon="9.1138048"><ele>63.99999999999999</ele><time>2026-04-26T08:04:00.638Z</time></trkpt><trkpt lat="45.193229" lon="9.1139088"><ele>64.0</ele><time>2026-04-26T08:04:02.64Z</time></trkpt><trkpt lat="45.1932722" lon="9.1139825"><ele>64.0</ele><time>2026-04-26T08:04:04.637Z</time></trkpt><trkpt lat="45.1933208" lon="9.1140727"><ele>64.0</ele><time>2026-04-26T08:04:06.639Z</time></trkpt><trkpt lat="45.1933776" lon="9.1141731"><ele>63.99999999999999</ele><time>2026-04-26T08:04:08.641Z</time></trkpt><trkpt lat="45.1934197" lon="9.1142767"><ele>64.0</ele><time>2026-04-26T08:04:10.641Z</time></trkpt><trkpt lat="45.193471" lon="9.114385"><ele>64.33333333333333</ele><time>2026-04-26T08:04:12.64Z</time></trkpt><trkpt lat="45.1935252" lon="9.1145054"><ele>64.66666666666666</ele><time>2026-04-26T08:04:14.635Z</time></trkpt><trkpt lat="45.1935554" lon="9.1146059"><ele>65.0</ele><time>2026-04-26T08:04:16.646Z</time></trkpt><trkpt lat="45.1935783" lon="9.1146994"><ele>65.33333333333333</ele><time>2026-04-26T08:04:18.636Z</time></trkpt><trkpt lat="45.1935911" lon="9.1147919"><ele>65.66666666666667</ele><time>2026-04-26T08:04:20.633Z</time></trkpt><trkpt lat="45.1935891" lon="9.114917"><ele>66.0</ele><time>2026-04-26T08:04:22.638Z</time></trkpt><trkpt lat="45.193574" lon="9.1150392"><ele>66.0</ele><time>2026-04-26T08:04:24.639Z</time></trkpt><trkpt lat="45.1935535" lon="9.1151464"><ele>66.0</ele><time>2026-04-26T08:04:26.64Z</time></trkpt><trkpt lat="45.193549" lon="9.1152525"><ele>66.0</ele><time>2026-04-26T08:04:28.639Z</time></trkpt><trkpt lat="45.193551" lon="9.1153734"><ele>66.0</ele><time>2026-04-26T08:04:30.634Z</time></trkpt><trkpt lat="45.1935649" lon="9.1154789"><ele>66.0</ele><time>2026-04-26T08:04:32.639Z</time></trkpt><trkpt lat="45.1935671" lon="9.1155998"><ele>66.0</ele><time>2026-04-26T08:04:34.713Z</time></trkpt><trkpt lat="45.1935784" lon="9.1157005"><ele>66.0</ele><time>2026-04-26T08:04:36.645Z</time></trkpt><trkpt lat="45.193597" lon="9.1157861"><ele>66.0</ele><time>2026-04-26T08:04:38.636Z</time></trkpt><trkpt lat="45.1936146" lon="9.1158968"><ele>66.0</ele><time>2026-04-26T08:04:40.631Z</time></trkpt><trkpt lat="45.1936375" lon="9.1159978"><ele>66.0</ele><time>2026-04-26T08:04:42.637Z</time></trkpt><trkpt lat="45.1936475" lon="9.1161003"><ele>66.0</ele><time>2026-04-26T08:04:44.633Z</time></trkpt><trkpt lat="45.193665" lon="9.1161907"><ele>66.0</ele><time>2026-04-26T08:04:46.642Z</time></trkpt><trkpt lat="45.1936835" lon="9.116293"><ele>66.0</ele><time>2026-04-26T08:04:48.706Z</time></trkpt><trkpt lat="45.1936961" lon="9.1163848"><ele>66.0</ele><time>2026-04-26T08:04:50.649Z</time></trkpt><trkpt lat="45.1937102" lon="9.1164911"><ele>66.0</ele><time>2026-04-26T08:04:52.634Z</time></trkpt><trkpt lat="45.193733" lon="9.1166031"><ele>66.0</ele><time>2026-04-26T08:04:54.638Z</time></trkpt><trkpt lat="45.1937277" lon="9.1167265"><ele>66.0</ele><time>2026-04-26T08:04:56.63Z</time></trkpt><trkpt lat="45.1936925" lon="9.1168425"><ele>66.0</ele><time>2026-04-26T08:04:58.632Z</time></trkpt><trkpt lat="45.1936512" lon="9.1169288"><ele>66.0</ele><time>2026-04-26T08:05:00.639Z</time></trkpt><trkpt lat="45.1936057" lon="9.1170158"><ele>65.85714285714286</ele><time>2026-04-26T08:05:02.64Z</time></trkpt><trkpt lat="45.1935556" lon="9.1170833"><ele>65.71428571428572</ele><time>2026-04-26T08:05:04.704Z</time></trkpt><trkpt lat="45.1934996" lon="9.1171326"><ele>65.57142857142858</ele><time>2026-04-26T08:05:06.632Z</time></trkpt><trkpt lat="45.1934413" lon="9.1171725"><ele>65.42857142857143</ele><time>2026-04-26T08:05:08.636Z</time></trkpt><trkpt lat="45.1933743" lon="9.1172229"><ele>65.28571428571429</ele><time>2026-04-26T08:05:10.635Z</time></trkpt><trkpt lat="45.1932941" lon="9.1172516"><ele>65.14285714285715</ele><time>2026-04-26T08:05:12.645Z</time></trkpt><trkpt lat="45.1932308" lon="9.1172789"><ele>65.0</ele><time>2026-04-26T08:05:14.642Z</time></trkpt><trkpt lat="45.1931734" lon="9.1173431"><ele>64.71428571428572</ele><time>2026-04-26T08:05:16.71Z</time></trkpt><trkpt lat="45.1931632" lon="9.1174749"><ele>64.42857142857143</ele><time>2026-04-26T08:05:18.639Z</time></trkpt><trkpt lat="45.1931791" lon="9.1175709"><ele>64.14285714285714</ele><time>2026-04-26T08:05:20.637Z</time></trkpt><trkpt lat="45.1932085" lon="9.1176602"><ele>63.85714285714286</ele><time>2026-04-26T08:05:22.632Z</time></trkpt><trkpt lat="45.1932232" lon="9.1177616"><ele>63.57142857142857</ele><time>2026-04-26T08:05:24.637Z</time></trkpt><trkpt lat="45.1932441" lon="9.1178557"><ele>63.285714285714285</ele><time>2026-04-26T08:05:26.633Z</time></trkpt><trkpt lat="45.1932648" lon="9.1179447"><ele>63.0</ele><time>2026-04-26T08:05:28.64Z</time></trkpt><trkpt lat="45.1932971" lon="9.1180462"><ele>63.0</ele><time>2026-04-26T08:05:30.641Z</time></trkpt><trkpt lat="45.1933313" lon="9.1181407"><ele>63.0</ele><time>2026-04-26T08:05:32.635Z</time></trkpt><trkpt lat="45.1933786" lon="9.1182533"><ele>63.0</ele><time>2026-04-26T08:05:34.635Z</time></trkpt><trkpt lat="45.1934089" lon="9.1183498"><ele>63.0</ele><time>2026-04-26T08:05:36.646Z</time></trkpt><trkpt lat="45.1934398" lon="9.1184623"><ele>63.0</ele><time>2026-04-26T08:05:38.632Z</time></trkpt><trkpt lat="45.1934728" lon="9.1185706"><ele>63.0</ele><time>2026-04-26T08:05:40.634Z</time></trkpt><trkpt lat="45.1935129" lon="9.1186754"><ele>62.599999999999994</ele><time>2026-04-26T08:05:42.641Z</time></trkpt><trkpt lat="45.1935333" lon="9.118816"><ele>62.199999999999996</ele><time>2026-04-26T08:05:45.627Z</time></trkpt><trkpt lat="45.1935475" lon="9.1189441"><ele>61.8</ele><time>2026-04-26T08:05:47.635Z</time></trkpt><trkpt lat="45.1935689" lon="9.1190657"><ele>61.4</ele><time>2026-04-26T08:05:49.635Z</time></trkpt><trkpt lat="45.1935862" lon="9.1192061"><ele>61.0</ele><time>2026-04-26T08:05:51.641Z</time></trkpt><trkpt lat="45.1936118" lon="9.1193098"><ele>60.666666666666664</ele><time>2026-04-26T08:05:53.629Z</time></trkpt><trkpt lat="45.1936237" lon="9.1193989"><ele>60.33333333333333</ele><time>2026-04-26T08:05:55.638Z</time></trkpt><trkpt lat="45.19358" lon="9.1195013"><ele>60.0</ele><time>2026-04-26T08:05:58.703Z</time></trkpt><trkpt lat="45.1935132" lon="9.1195638"><ele>59.66666666666667</ele><time>2026-04-26T08:06:01.629Z</time></trkpt><trkpt lat="45.1934503" lon="9.119649"><ele>59.333333333333336</ele><time>2026-04-26T08:06:04.642Z</time></trkpt><trkpt lat="45.1933944" lon="9.1197237"><ele>59.0</ele><time>2026-04-26T08:06:06.629Z</time></trkpt><trkpt lat="45.1933638" lon="9.1198288"><ele>58.833333333333336</ele><time>2026-04-26T08:06:08.643Z</time></trkpt><trkpt lat="45.1933587" lon="9.119939"><ele>58.66666666666667</ele><time>2026-04-26T08:06:10.643Z</time></trkpt><trkpt lat="45.1933531" lon="9.1200387"><ele>58.5</ele><time>2026-04-26T08:06:12.638Z</time></trkpt><trkpt lat="45.1933519" lon="9.1201381"><ele>58.33333333333333</ele><time>2026-04-26T08:06:14.639Z</time></trkpt><trkpt lat="45.1933597" lon="9.1202387"><ele>58.166666666666664</ele><time>2026-04-26T08:06:16.645Z</time></trkpt><trkpt lat="45.1933376" lon="9.1203625"><ele>58.0</ele><time>2026-04-26T08:06:18.643Z</time></trkpt><trkpt lat="45.1933433" lon="9.1204657"><ele>57.99999999999999</ele><time>2026-04-26T08:06:20.649Z</time></trkpt><trkpt lat="45.19337" lon="9.1205661"><ele>58.0</ele><time>2026-04-26T08:06:22.643Z</time></trkpt><trkpt lat="45.1933882" lon="9.1206676"><ele>58.0</ele><time>2026-04-26T08:06:24.64Z</time></trkpt><trkpt lat="45.1933979" lon="9.1207772"><ele>58.0</ele><time>2026-04-26T08:06:26.638Z</time></trkpt><trkpt lat="45.1934279" lon="9.1209067"><ele>57.99999999999999</ele><time>2026-04-26T08:06:28.643Z</time></trkpt><trkpt lat="45.1934677" lon="9.1209916"><ele>58.0</ele><time>2026-04-26T08:06:30.642Z</time></trkpt><trkpt lat="45.1935142" lon="9.1210651"><ele>57.99999999999999</ele><time>2026-04-26T08:06:32.638Z</time></trkpt><trkpt lat="45.1935408" lon="9.121187"><ele>58.0</ele><time>2026-04-26T08:06:35.637Z</time></trkpt><trkpt lat="45.1935869" lon="9.1212939"><ele>58.0</ele><time>2026-04-26T08:06:38.634Z</time></trkpt><trkpt lat="45.1936459" lon="9.1213534"><ele>58.0</ele><time>2026-04-26T08:06:40.643Z</time></trkpt><trkpt lat="45.1937039" lon="9.1214018"><ele>57.99999999999999</ele><time>2026-04-26T08:06:42.643Z</time></trkpt><trkpt lat="45.1937726" lon="9.121437"><ele>58.0</ele><time>2026-04-26T08:06:44.639Z</time></trkpt><trkpt lat="45.1938333" lon="9.1214897"><ele>57.666666666666664</ele><time>2026-04-26T08:06:46.636Z</time></trkpt><trkpt lat="45.1938657" lon="9.1216026"><ele>57.33333333333333</ele><time>2026-04-26T08:06:49.638Z</time></trkpt><trkpt lat="45.1938926" lon="9.1217022"><ele>57.0</ele><time>2026-04-26T08:06:52.634Z</time></trkpt><trkpt lat="45.193902" lon="9.1218197"><ele>56.66666666666667</ele><time>2026-04-26T08:06:55.631Z</time></trkpt><trkpt lat="45.1939225" lon="9.1219141"><ele>56.333333333333336</ele><time>2026-04-26T08:06:57.639Z</time></trkpt><trkpt lat="45.1939445" lon="9.1220197"><ele>56.0</ele><time>2026-04-26T08:06:59.638Z</time></trkpt><trkpt lat="45.1939574" lon="9.122142"><ele>56.00000000000001</ele><time>2026-04-26T08:07:01.635Z</time></trkpt><trkpt lat="45.193942" lon="9.1222746"><ele>56.0</ele><time>2026-04-26T08:07:03.635Z</time></trkpt><trkpt lat="45.1939162" lon="9.1223807"><ele>56.0</ele><time>2026-04-26T08:07:05.639Z</time></trkpt><trkpt lat="45.1938712" lon="9.1224632"><ele>56.0</ele><time>2026-04-26T08:07:07.641Z</time></trkpt><trkpt lat="45.1938352" lon="9.1225779"><ele>56.00000000000001</ele><time>2026-04-26T08:07:09.637Z</time></trkpt><trkpt lat="45.193801" lon="9.1227119"><ele>56.0</ele><time>2026-04-26T08:07:11.634Z</time></trkpt><trkpt lat="45.1937775" lon="9.1228388"><ele>56.16666666666667</ele><time>2026-04-26T08:07:13.633Z</time></trkpt><trkpt lat="45.1937564" lon="9.122977"><ele>56.333333333333336</ele><time>2026-04-26T08:07:15.642Z</time></trkpt><trkpt lat="45.1937434" lon="9.1231048"><ele>56.5</ele><time>2026-04-26T08:07:17.641Z</time></trkpt><trkpt lat="45.1937186" lon="9.1232211"><ele>56.66666666666667</ele><time>2026-04-26T08:07:19.639Z</time></trkpt><trkpt lat="45.1937166" lon="9.123337"><ele>56.833333333333336</ele><time>2026-04-26T08:07:21.637Z</time></trkpt><trkpt lat="45.19371" lon="9.1234572"><ele>57.0</ele><time>2026-04-26T08:07:23.643Z</time></trkpt><trkpt lat="45.1937031" lon="9.1235527"><ele>57.0</ele><time>2026-04-26T08:07:25.648Z</time></trkpt><trkpt lat="45.1936951" lon="9.1236588"><ele>57.0</ele><time>2026-04-26T08:07:27.633Z</time></trkpt><trkpt lat="45.1936813" lon="9.12377"><ele>57.0</ele><time>2026-04-26T08:07:29.637Z</time></trkpt><trkpt lat="45.193677" lon="9.1239007"><ele>57.0</ele><time>2026-04-26T08:07:32.634Z</time></trkpt><trkpt lat="45.1936675" lon="9.124015"><ele>57.0</ele><time>2026-04-26T08:07:34.64Z</time></trkpt><trkpt lat="45.193649" lon="9.1241366"><ele>57.0</ele><time>2026-04-26T08:07:36.644Z</time></trkpt><trkpt lat="45.1936392" lon="9.1242403"><ele>57.57142857142857</ele><time>2026-04-26T08:07:38.643Z</time></trkpt><trkpt lat="45.1936254" lon="9.1243468"><ele>58.14285714285714</ele><time>2026-04-26T08:07:40.645Z</time></trkpt><trkpt lat="45.1936033" lon="9.1244395"><ele>58.71428571428571</ele><time>2026-04-26T08:07:42.636Z</time></trkpt><trkpt lat="45.1935896" lon="9.1245278"><ele>59.28571428571428</ele><time>2026-04-26T08:07:44.642Z</time></trkpt><trkpt lat="45.1935815" lon="9.1246307"><ele>59.857142857142854</ele><time>2026-04-26T08:07:46.643Z</time></trkpt><trkpt lat="45.1935612" lon="9.1247382"><ele>60.428571428571416</ele><time>2026-04-26T08:07:48.648Z</time></trkpt><trkpt lat="45.1935458" lon="9.124856"><ele>60.99999999999999</ele><time>2026-04-26T08:07:50.64Z</time></trkpt><trkpt lat="45.19352" lon="9.1249731"><ele>60.99999999999999</ele><time>2026-04-26T08:07:52.64Z</time></trkpt><trkpt lat="45.1935162" lon="9.1250983"><ele>61.0</ele><time>2026-04-26T08:07:54.636Z</time></trkpt><trkpt lat="45.1935029" lon="9.1252185"><ele>61.0</ele><time>2026-04-26T08:07:56.648Z</time></trkpt><trkpt lat="45.1934947" lon="9.1253282"><ele>61.0</ele><time>2026-04-26T08:07:58.631Z</time></trkpt><trkpt lat="45.1934993" lon="9.1254368"><ele>60.99999999999999</ele><time>2026-04-26T08:08:00.633Z</time></trkpt><trkpt lat="45.1934891" lon="9.1255319"><ele>61.0</ele><time>2026-04-26T08:08:02.644Z</time></trkpt><trkpt lat="45.1934582" lon="9.1256483"><ele>60.83333333333333</ele><time>2026-04-26T08:08:05.642Z</time></trkpt><trkpt lat="45.1934247" lon="9.1257437"><ele>60.666666666666664</ele><time>2026-04-26T08:08:07.639Z</time></trkpt><trkpt lat="45.193396" lon="9.1258338"><ele>60.5</ele><time>2026-04-26T08:08:09.698Z</time></trkpt><trkpt lat="45.1933492" lon="9.1259925"><ele>60.33333333333333</ele><time>2026-04-26T08:08:13.638Z</time></trkpt><trkpt lat="45.1933182" lon="9.1260708"><ele>60.166666666666664</ele><time>2026-04-26T08:08:15.64Z</time></trkpt><trkpt lat="45.1932965" lon="9.1261888"><ele>60.0</ele><time>2026-04-26T08:08:18.638Z</time></trkpt><trkpt lat="45.1932725" lon="9.1262848"><ele>60.0</ele><time>2026-04-26T08:08:21.64Z</time></trkpt><trkpt lat="45.1932206" lon="9.1263961"><ele>60.0</ele><time>2026-04-26T08:08:24.638Z</time></trkpt><trkpt lat="45.193181" lon="9.1264672"><ele>60.0</ele><time>2026-04-26T08:08:26.641Z</time></trkpt><trkpt lat="45.1931332" lon="9.126545"><ele>60.0</ele><time>2026-04-26T08:08:28.639Z</time></trkpt><trkpt lat="45.1930808" lon="9.1266266"><ele>60.0</ele><time>2026-04-26T08:08:31.644Z</time></trkpt><trkpt lat="45.1930263" lon="9.1266911"><ele>60.0</ele><time>2026-04-26T08:08:35.654Z</time></trkpt><trkpt lat="45.1929595" lon="9.1267576"><ele>54.0</ele><time>2026-04-26T08:08:38.636Z</time></trkpt><trkpt lat="45.1925891" lon="9.127386"><ele>53.0</ele><time>2026-04-26T08:08:49.351Z</time></trkpt><trkpt lat="45.1923649" lon="9.1276915"><ele>52.0</ele><time>2026-04-26T08:08:58.288Z</time></trkpt><trkpt lat="45.1920007" lon="9.1281042"><ele>54.0</ele><time>2026-04-26T08:09:07.275Z</time></trkpt><trkpt lat="45.1916599" lon="9.1284066"><ele>56.0</ele><time>2026-04-26T08:09:16.275Z</time></trkpt><trkpt lat="45.191352" lon="9.1285782"><ele>56.0</ele><time>2026-04-26T08:09:25.383Z</time></trkpt><trkpt lat="45.1916526" lon="9.128372"><ele>56.0</ele><time>2026-04-26T08:09:34.272Z</time></trkpt><trkpt lat="45.19116" lon="9.1286882"><ele>63.0</ele><time>2026-04-26T08:09:36.903Z</time></trkpt><trkpt lat="45.190681" lon="9.1289327"><ele>61.5</ele><time>2026-04-26T08:09:43.287Z</time></trkpt><trkpt lat="45.190367" lon="9.1292254"><ele>60.0</ele><time>2026-04-26T08:09:52.348Z</time></trkpt><trkpt lat="45.1900132" lon="9.1295003"><ele>60.0</ele><time>2026-04-26T08:10:01.274Z</time></trkpt><trkpt lat="45.1896468" lon="9.1297162"><ele>60.0</ele><time>2026-04-26T08:10:10.292Z</time></trkpt><trkpt lat="45.1892434" lon="9.129903"><ele>57.5</ele><time>2026-04-26T08:10:19.276Z</time></trkpt><trkpt lat="45.1889184" lon="9.1301747"><ele>55.0</ele><time>2026-04-26T08:10:28.287Z</time></trkpt><trkpt lat="45.188589" lon="9.1303695"><ele>55.0</ele><time>2026-04-26T08:10:37.287Z</time></trkpt><trkpt lat="45.1882774" lon="9.1304967"><ele>55.0</ele><time>2026-04-26T08:10:46.288Z</time></trkpt><trkpt lat="45.1879351" lon="9.130694"><ele>55.5</ele><time>2026-04-26T08:10:55.278Z</time></trkpt><trkpt lat="45.1876016" lon="9.1308409"><ele>56.0</ele><time>2026-04-26T08:11:04.283Z</time></trkpt><trkpt lat="45.1871731" lon="9.131077"><ele>58.5</ele><time>2026-04-26T08:11:13.279Z</time></trkpt><trkpt lat="45.1869065" lon="9.1312283"><ele>61.0</ele><time>2026-04-26T08:11:22.294Z</time></trkpt><trkpt lat="45.1871837" lon="9.1310658"><ele>61.0</ele><time>2026-04-26T08:11:31.279Z</time></trkpt><trkpt lat="45.1868464" lon="9.1313282"><ele>61.0</ele><time>2026-04-26T08:11:49.439Z</time></trkpt><trkpt lat="45.1860626" lon="9.132316"><ele>59.5</ele><time>2026-04-26T08:11:58.285Z</time></trkpt><trkpt lat="45.1858279" lon="9.1326864"><ele>58.0</ele><time>2026-04-26T08:12:07.289Z</time></trkpt><trkpt lat="45.1855252" lon="9.133197"><ele>57.5</ele><time>2026-04-26T08:12:16.279Z</time></trkpt><trkpt lat="45.1853097" lon="9.1337078"><ele>57.0</ele><time>2026-04-26T08:12:25.279Z</time></trkpt><trkpt lat="45.1851023" lon="9.1341824"><ele>58.5</ele><time>2026-04-26T08:12:34.298Z</time></trkpt><trkpt lat="45.1849708" lon="9.1347347"><ele>60.0</ele><time>2026-04-26T08:12:43.288Z</time></trkpt><trkpt lat="45.1849398" lon="9.1352018"><ele>60.0</ele><time>2026-04-26T08:12:52.281Z</time></trkpt><trkpt lat="45.1849672" lon="9.135483"><ele>60.0</ele><time>2026-04-26T08:13:01.278Z</time></trkpt><trkpt lat="45.1849646" lon="9.1357113"><ele>60.0</ele><time>2026-04-26T08:13:10.29Z</time></trkpt><trkpt lat="45.1847046" lon="9.136117"><ele>61.0</ele><time>2026-04-26T08:13:19.277Z</time></trkpt><trkpt lat="45.1844354" lon="9.1364056"><ele>62.0</ele><time>2026-04-26T08:13:28.279Z</time></trkpt><trkpt lat="45.184145" lon="9.1368936"><ele>62.0</ele><time>2026-04-26T08:13:37.38Z</time></trkpt><trkpt lat="45.1840569" lon="9.1373488"><ele>62.0</ele><time>2026-04-26T08:13:46.287Z</time></trkpt><trkpt lat="45.183917" lon="9.1378814"><ele>59.0</ele><time>2026-04-26T08:13:55.381Z</time></trkpt><trkpt lat="45.183681" lon="9.1382998"><ele>56.0</ele><time>2026-04-26T08:14:04.279Z</time></trkpt><trkpt lat="45.1834617" lon="9.1388687"><ele>56.5</ele><time>2026-04-26T08:14:13.282Z</time></trkpt><trkpt lat="45.1832561" lon="9.1393342"><ele>57.0</ele><time>2026-04-26T08:14:22.282Z</time></trkpt><trkpt lat="45.1830914" lon="9.1398061"><ele>55.0</ele><time>2026-04-26T08:14:31.274Z</time></trkpt><trkpt lat="45.1829526" lon="9.140393"><ele>53.0</ele><time>2026-04-26T08:14:40.348Z</time></trkpt><trkpt lat="45.1828332" lon="9.1409348"><ele>53.0</ele><time>2026-04-26T08:14:49.274Z</time></trkpt><trkpt lat="45.1827133" lon="9.1414022"><ele>53.0</ele><time>2026-04-26T08:14:58.283Z</time></trkpt><trkpt lat="45.1824264" lon="9.1424581"><ele>54.0</ele><time>2026-04-26T08:15:16.274Z</time></trkpt><trkpt lat="45.1821675" lon="9.1429149"><ele>55.0</ele><time>2026-04-26T08:15:25.274Z</time></trkpt><trkpt lat="45.1820958" lon="9.1433816"><ele>55.5</ele><time>2026-04-26T08:15:34.285Z</time></trkpt><trkpt lat="45.1820714" lon="9.143875"><ele>56.0</ele><time>2026-04-26T08:15:43.28Z</time></trkpt><trkpt lat="45.1819761" lon="9.1441646"><ele>57.0</ele><time>2026-04-26T08:15:52.285Z</time></trkpt><trkpt lat="45.1819418" lon="9.1446958"><ele>58.0</ele><time>2026-04-26T08:16:01.279Z</time></trkpt><trkpt lat="45.182137" lon="9.1450501"><ele>59.666666666666664</ele><time>2026-04-26T08:16:10.287Z</time></trkpt><trkpt lat="45.1823352" lon="9.1451169"><ele>61.33333333333333</ele><time>2026-04-26T08:16:19.287Z</time></trkpt><trkpt lat="45.1823622" lon="9.1450024"><ele>63.0</ele><time>2026-04-26T08:16:28.279Z</time></trkpt><trkpt lat="45.1826003" lon="9.1455583"><ele>65.33333333333333</ele><time>2026-04-26T08:16:41.684Z</time></trkpt><trkpt lat="45.1827527" lon="9.145708"><ele>67.66666666666666</ele><time>2026-04-26T08:16:51.002Z</time></trkpt><trkpt lat="45.1825836" lon="9.1454696"><ele>70.0</ele><time>2026-04-26T08:16:55.284Z</time></trkpt><trkpt lat="45.1825164" lon="9.1451264"><ele>67.5</ele><time>2026-04-26T08:17:04.299Z</time></trkpt><trkpt lat="45.1824767" lon="9.1447594"><ele>65.0</ele><time>2026-04-26T08:17:22.275Z</time></trkpt><trkpt lat="45.1824822" lon="9.1444117"><ele>65.0</ele><time>2026-04-26T08:17:25.312Z</time></trkpt><trkpt lat="45.1825168" lon="9.1445638"><ele>65.0</ele><time>2026-04-26T08:17:31.284Z</time></trkpt><trkpt lat="45.1826921" lon="9.1432479"><ele>62.5</ele><time>2026-04-26T08:17:49.281Z</time></trkpt><trkpt lat="45.182845" lon="9.1427517"><ele>60.0</ele><time>2026-04-26T08:17:58.288Z</time></trkpt><trkpt lat="45.1828854" lon="9.1423596"><ele>58.0</ele><time>2026-04-26T08:18:07.284Z</time></trkpt><trkpt lat="45.1829973" lon="9.1419218"><ele>56.0</ele><time>2026-04-26T08:18:16.282Z</time></trkpt><trkpt lat="45.1831792" lon="9.1412997"><ele>57.0</ele><time>2026-04-26T08:18:25.387Z</time></trkpt><trkpt lat="45.1833438" lon="9.1407757"><ele>58.0</ele><time>2026-04-26T08:18:34.277Z</time></trkpt><trkpt lat="45.1834954" lon="9.1402926"><ele>57.5</ele><time>2026-04-26T08:18:43.39Z</time></trkpt><trkpt lat="45.1836094" lon="9.1398302"><ele>57.0</ele><time>2026-04-26T08:18:52.282Z</time></trkpt><trkpt lat="45.1837928" lon="9.1393327"><ele>56.5</ele><time>2026-04-26T08:19:01.393Z</time></trkpt><trkpt lat="45.1840096" lon="9.138886"><ele>56.0</ele><time>2026-04-26T08:19:10.286Z</time></trkpt><trkpt lat="45.1841571" lon="9.1384854"><ele>58.333333333333336</ele><time>2026-04-26T08:19:19.28Z</time></trkpt><trkpt lat="45.1841565" lon="9.1383955"><ele>60.66666666666667</ele><time>2026-04-26T08:19:22.167Z</time></trkpt><trkpt lat="45.1843218" lon="9.1380801"><ele>63.0</ele><time>2026-04-26T08:19:28.291Z</time></trkpt><trkpt lat="45.1841906" lon="9.1384278"><ele>63.0</ele><time>2026-04-26T08:19:37.287Z</time></trkpt><trkpt lat="45.1845108" lon="9.1376572"><ele>62.5</ele><time>2026-04-26T08:19:39.925Z</time></trkpt><trkpt lat="45.1847563" lon="9.1372058"><ele>62.0</ele><time>2026-04-26T08:19:46.341Z</time></trkpt><trkpt lat="45.1845478" lon="9.1370495"><ele>62.0</ele><time>2026-04-26T08:19:55.279Z</time></trkpt><trkpt lat="45.1843241" lon="9.1365916"><ele>62.0</ele><time>2026-04-26T08:20:04.346Z</time></trkpt><trkpt lat="45.1845482" lon="9.1362327"><ele>61.0</ele><time>2026-04-26T08:20:13.285Z</time></trkpt><trkpt lat="45.1848205" lon="9.1358968"><ele>60.0</ele><time>2026-04-26T08:20:22.269Z</time></trkpt><trkpt lat="45.1848826" lon="9.1353902"><ele>60.0</ele><time>2026-04-26T08:20:31.282Z</time></trkpt><trkpt lat="45.1847889" lon="9.1355923"><ele>60.0</ele><time>2026-04-26T08:20:40.293Z</time></trkpt><trkpt lat="45.1848871" lon="9.1351224"><ele>58.0</ele><time>2026-04-26T08:20:42.919Z</time></trkpt><trkpt lat="45.1847966" lon="9.1356074"><ele>56.0</ele><time>2026-04-26T08:20:49.287Z</time></trkpt><trkpt lat="45.1847967" lon="9.1347361"><ele>61.0</ele><time>2026-04-26T08:20:51.991Z</time></trkpt><trkpt lat="45.1850622" lon="9.1340585"><ele>57.0</ele><time>2026-04-26T08:20:58.278Z</time></trkpt><trkpt lat="45.1853102" lon="9.1335181"><ele>54.0</ele><time>2026-04-26T08:21:07.285Z</time></trkpt><trkpt lat="45.1855523" lon="9.1329677"><ele>56.0</ele><time>2026-04-26T08:21:16.277Z</time></trkpt><trkpt lat="45.1858056" lon="9.1325183"><ele>58.0</ele><time>2026-04-26T08:21:25.296Z</time></trkpt><trkpt lat="45.1860902" lon="9.1320611"><ele>58.0</ele><time>2026-04-26T08:21:34.279Z</time></trkpt><trkpt lat="45.186392" lon="9.131599"><ele>58.0</ele><time>2026-04-26T08:21:43.277Z</time></trkpt><trkpt lat="45.1867416" lon="9.131334"><ele>59.5</ele><time>2026-04-26T08:21:52.279Z</time></trkpt><trkpt lat="45.1870804" lon="9.1311343"><ele>61.0</ele><time>2026-04-26T08:22:01.28Z</time></trkpt><trkpt lat="45.18733" lon="9.1309664"><ele>58.5</ele><time>2026-04-26T08:22:10.287Z</time></trkpt><trkpt lat="45.1876604" lon="9.130849"><ele>56.0</ele><time>2026-04-26T08:22:19.283Z</time></trkpt><trkpt lat="45.1878796" lon="9.1306829"><ele>55.0</ele><time>2026-04-26T08:22:28.274Z</time></trkpt><trkpt lat="45.1882891" lon="9.1304157"><ele>55.0</ele><time>2026-04-26T08:22:37.388Z</time></trkpt><trkpt lat="45.1886451" lon="9.1302362"><ele>55.0</ele><time>2026-04-26T08:22:46.274Z</time></trkpt><trkpt lat="45.1889304" lon="9.1300871"><ele>57.5</ele><time>2026-04-26T08:22:55.28Z</time></trkpt><trkpt lat="45.1893193" lon="9.1298141"><ele>60.0</ele><time>2026-04-26T08:23:04.279Z</time></trkpt><trkpt lat="45.1895746" lon="9.1295898"><ele>60.0</ele><time>2026-04-26T08:23:13.279Z</time></trkpt><trkpt lat="45.1898902" lon="9.1295206"><ele>60.0</ele><time>2026-04-26T08:23:22.261Z</time></trkpt><trkpt lat="45.1902495" lon="9.1293372"><ele>60.5</ele><time>2026-04-26T08:23:31.277Z</time></trkpt><trkpt lat="45.1905437" lon="9.1289669"><ele>61.0</ele><time>2026-04-26T08:23:40.291Z</time></trkpt><trkpt lat="45.1907718" lon="9.128789"><ele>63.0</ele><time>2026-04-26T08:23:49.278Z</time></trkpt><trkpt lat="45.1913703" lon="9.128526"><ele>63.0</ele><time>2026-04-26T08:23:58.341Z</time></trkpt><trkpt lat="45.1914645" lon="9.1283785"><ele>63.0</ele><time>2026-04-26T08:24:07.278Z</time></trkpt><trkpt lat="45.1917863" lon="9.1281772"><ele>57.5</ele><time>2026-04-26T08:24:16.281Z</time></trkpt><trkpt lat="45.1920514" lon="9.1278838"><ele>52.0</ele><time>2026-04-26T08:24:25.264Z</time></trkpt><trkpt lat="45.1917915" lon="9.1281193"><ele>52.0</ele><time>2026-04-26T08:24:34.27Z</time></trkpt><trkpt lat="45.192305" lon="9.1276047"><ele>52.5</ele><time>2026-04-26T08:24:36.907Z</time></trkpt><trkpt lat="45.1924871" lon="9.1272699"><ele>53.0</ele><time>2026-04-26T08:24:43.277Z</time></trkpt><trkpt lat="45.1930558" lon="9.1265436"><ele>56.5</ele><time>2026-04-26T08:25:01.272Z</time></trkpt><trkpt lat="45.1932442" lon="9.1261311"><ele>60.0</ele><time>2026-04-26T08:25:10.283Z</time></trkpt><trkpt lat="45.1933575" lon="9.1257705"><ele>60.5</ele><time>2026-04-26T08:25:19.27Z</time></trkpt><trkpt lat="45.1934691" lon="9.1253685"><ele>61.0</ele><time>2026-04-26T08:25:28.28Z</time></trkpt><trkpt lat="45.1933685" lon="9.1255714"><ele>61.0</ele><time>2026-04-26T08:25:37.301Z</time></trkpt><trkpt lat="45.1935026" lon="9.124816"><ele>61.0</ele><time>2026-04-26T08:25:48.956Z</time></trkpt><trkpt lat="45.1934231" lon="9.1252497"><ele>61.0</ele><time>2026-04-26T08:25:55.278Z</time></trkpt><trkpt lat="45.1935467" lon="9.1242051"><ele>59.0</ele><time>2026-04-26T08:25:58.024Z</time></trkpt><trkpt lat="45.1935875" lon="9.1239305"><ele>57.0</ele><time>2026-04-26T08:26:04.267Z</time></trkpt><trkpt lat="45.1936153" lon="9.1233419"><ele>57.0</ele><time>2026-04-26T08:26:13.271Z</time></trkpt><trkpt lat="45.193698" lon="9.1229214"><ele>57.0</ele><time>2026-04-26T08:26:22.371Z</time></trkpt><trkpt lat="45.1937932" lon="9.1224893"><ele>62.5</ele><time>2026-04-26T08:26:31.279Z</time></trkpt><trkpt lat="45.194188" lon="9.1225273"><ele>68.0</ele><time>2026-04-26T08:26:40.379Z</time></trkpt><trkpt lat="45.1944183" lon="9.1227334"><ele>68.0</ele><time>2026-04-26T08:26:49.277Z</time></trkpt><trkpt lat="45.1941796" lon="9.1227824"><ele>68.0</ele><time>2026-04-26T08:26:58.273Z</time></trkpt><trkpt lat="45.1944578" lon="9.1226042"><ele>68.0</ele><time>2026-04-26T08:27:07.285Z</time></trkpt><trkpt lat="45.1946961" lon="9.122481"><ele>68.0</ele><time>2026-04-26T08:27:11.242Z</time></trkpt><trkpt lat="45.1945777" lon="9.1224941"><ele>68.0</ele><time>2026-04-26T08:27:16.274Z</time></trkpt><trkpt lat="45.1950238" lon="9.1221789"><ele>68.5</ele><time>2026-04-26T08:27:29.572Z</time></trkpt><trkpt lat="45.1947799" lon="9.1221665"><ele>69.0</ele><time>2026-04-26T08:27:34.268Z</time></trkpt><trkpt lat="45.1949374" lon="9.1218269"><ele>70.5</ele><time>2026-04-26T08:27:38.299Z</time></trkpt><trkpt lat="45.1949994" lon="9.1213232"><ele>72.0</ele><time>2026-04-26T08:27:47.343Z</time></trkpt><trkpt lat="45.1951937" lon="9.1203831"><ele>72.0</ele><time>2026-04-26T08:28:01.272Z</time></trkpt><trkpt lat="45.1952586" lon="9.119868"><ele>72.0</ele><time>2026-04-26T08:28:10.273Z</time></trkpt><trkpt lat="45.1952944" lon="9.1193962"><ele>72.5</ele><time>2026-04-26T08:28:19.278Z</time></trkpt><trkpt lat="45.1953831" lon="9.1188328"><ele>73.0</ele><time>2026-04-26T08:28:28.271Z</time></trkpt><trkpt lat="45.195514" lon="9.118398"><ele>74.0</ele><time>2026-04-26T08:28:37.275Z</time></trkpt><trkpt lat="45.1956457" lon="9.1177676"><ele>74.0</ele><time>2026-04-26T08:28:46.282Z</time></trkpt><trkpt lat="45.1957321" lon="9.1172392"><ele>74.0</ele><time>2026-04-26T08:28:55.277Z</time></trkpt><trkpt lat="45.1957346" lon="9.1166688"><ele>73.5</ele><time>2026-04-26T08:29:04.276Z</time></trkpt><trkpt lat="45.1958624" lon="9.1161389"><ele>73.0</ele><time>2026-04-26T08:29:13.28Z</time></trkpt><trkpt lat="45.1959219" lon="9.115583"><ele>73.0</ele><time>2026-04-26T08:29:22.275Z</time></trkpt><trkpt lat="45.1960615" lon="9.115035"><ele>73.0</ele><time>2026-04-26T08:29:31.278Z</time></trkpt><trkpt lat="45.1961825" lon="9.1144435"><ele>72.5</ele><time>2026-04-26T08:29:40.285Z</time></trkpt><trkpt lat="45.1963255" lon="9.1138661"><ele>72.0</ele><time>2026-04-26T08:29:49.27Z</time></trkpt><trkpt lat="45.1964584" lon="9.1133092"><ele>73.5</ele><time>2026-04-26T08:29:58.273Z</time></trkpt><trkpt lat="45.1966096" lon="9.1128001"><ele>75.0</ele><time>2026-04-26T08:30:07.277Z</time></trkpt><trkpt lat="45.196743" lon="9.1123061"><ele>75.0</ele><time>2026-04-26T08:30:16.279Z</time></trkpt><trkpt lat="45.1968751" lon="9.1117422"><ele>75.0</ele><time>2026-04-26T08:30:25.279Z</time></trkpt><trkpt lat="45.1969404" lon="9.1117247"><ele>74.5</ele><time>2026-04-26T08:30:29.628Z</time></trkpt><trkpt lat="45.197069" lon="9.1111939"><ele>74.0</ele><time>2026-04-26T08:30:34.272Z</time></trkpt><trkpt lat="45.1972787" lon="9.1106901"><ele>74.0</ele><time>2026-04-26T08:30:43.278Z</time></trkpt><trkpt lat="45.1974657" lon="9.1101233"><ele>74.0</ele><time>2026-04-26T08:30:52.276Z</time></trkpt><trkpt lat="45.1976494" lon="9.1095917"><ele>72.0</ele><time>2026-04-26T08:31:01.277Z</time></trkpt><trkpt lat="45.1978848" lon="9.1089854"><ele>72.0</ele><time>2026-04-26T08:31:10.279Z</time></trkpt><trkpt lat="45.1980643" lon="9.1083771"><ele>71.5</ele><time>2026-04-26T08:31:19.265Z</time></trkpt><trkpt lat="45.1982548" lon="9.1078177"><ele>71.0</ele><time>2026-04-26T08:31:28.329Z</time></trkpt><trkpt lat="45.1984053" lon="9.1072978"><ele>71.0</ele><time>2026-04-26T08:31:37.39Z</time></trkpt><trkpt lat="45.1985015" lon="9.106768"><ele>71.0</ele><time>2026-04-26T08:31:46.262Z</time></trkpt><trkpt lat="45.19866" lon="9.106125"><ele>71.0</ele><time>2026-04-26T08:31:55.277Z</time></trkpt><trkpt lat="45.1990424" lon="9.1058019"><ele>71.0</ele><time>2026-04-26T08:32:04.281Z</time></trkpt><trkpt lat="45.1994895" lon="9.1055523"><ele>71.0</ele><time>2026-04-26T08:32:13.274Z</time></trkpt><trkpt lat="45.1998017" lon="9.1052499"><ele>71.0</ele><time>2026-04-26T08:32:22.276Z</time></trkpt><trkpt lat="45.2001734" lon="9.1049088"><ele>75.0</ele><time>2026-04-26T08:32:31.284Z</time></trkpt><trkpt lat="45.2005237" lon="9.1045898"><ele>79.0</ele><time>2026-04-26T08:32:40.27Z</time></trkpt><trkpt lat="45.2008435" lon="9.1042223"><ele>79.5</ele><time>2026-04-26T08:32:49.282Z</time></trkpt><trkpt lat="45.2011829" lon="9.1039398"><ele>80.0</ele><time>2026-04-26T08:32:58.288Z</time></trkpt><trkpt lat="45.2014711" lon="9.1035642"><ele>75.5</ele><time>2026-04-26T08:33:07.28Z</time></trkpt><trkpt lat="45.2018146" lon="9.1032164"><ele>71.0</ele><time>2026-04-26T08:33:16.296Z</time></trkpt><trkpt lat="45.2021859" lon="9.1028794"><ele>75.0</ele><time>2026-04-26T08:33:25.279Z</time></trkpt><trkpt lat="45.2026247" lon="9.1024931"><ele>73.0</ele><time>2026-04-26T08:33:34.265Z</time></trkpt><trkpt lat="45.2028485" lon="9.1020565"><ele>71.0</ele><time>2026-04-26T08:33:43.338Z</time></trkpt><trkpt lat="45.2030747" lon="9.1016367"><ele>75.0</ele><time>2026-04-26T08:33:52.34Z</time></trkpt><trkpt lat="45.2033679" lon="9.1009573"><ele>71.5</ele><time>2026-04-26T08:34:01.33Z</time></trkpt><trkpt lat="45.2035362" lon="9.1006429"><ele>68.0</ele><time>2026-04-26T08:34:10.273Z</time></trkpt><trkpt lat="45.2037363" lon="9.100167"><ele>79.0</ele><time>2026-04-26T08:34:19.28Z</time></trkpt><trkpt lat="45.2040664" lon="9.0997045"><ele>79.0</ele><time>2026-04-26T08:34:28.293Z</time></trkpt><trkpt lat="45.2042544" lon="9.0993134"><ele>79.0</ele><time>2026-04-26T08:34:37.288Z</time></trkpt><trkpt lat="45.2041293" lon="9.0991246"><ele>70.0</ele><time>2026-04-26T08:34:46.259Z</time></trkpt><trkpt lat="45.203858" lon="9.0988631"><ele>61.0</ele><time>2026-04-26T08:34:55.352Z</time></trkpt><trkpt lat="45.2038787" lon="9.0982462"><ele>62.0</ele><time>2026-04-26T08:35:04.271Z</time></trkpt><trkpt lat="45.2041115" lon="9.0986784"><ele>63.0</ele><time>2026-04-26T08:35:13.267Z</time></trkpt><trkpt lat="45.2043904" lon="9.0974084"><ele>63.0</ele><time>2026-04-26T08:35:22.366Z</time></trkpt><trkpt lat="45.2046043" lon="9.0969296"><ele>63.0</ele><time>2026-04-26T08:35:31.269Z</time></trkpt><trkpt lat="45.2048467" lon="9.0964976"><ele>68.0</ele><time>2026-04-26T08:35:40.272Z</time></trkpt><trkpt lat="45.2050496" lon="9.0961628"><ele>73.0</ele><time>2026-04-26T08:35:49.336Z</time></trkpt><trkpt lat="45.2051623" lon="9.0956536"><ele>73.33333333333333</ele><time>2026-04-26T08:35:58.279Z</time></trkpt><trkpt lat="45.2049792" lon="9.0953914"><ele>73.66666666666667</ele><time>2026-04-26T08:36:07.272Z</time></trkpt><trkpt lat="45.2048562" lon="9.0954139"><ele>74.0</ele><time>2026-04-26T08:36:16.272Z</time></trkpt><trkpt lat="45.2047763" lon="9.0953853"><ele>70.0</ele><time>2026-04-26T08:36:25.264Z</time></trkpt><trkpt lat="45.2047808" lon="9.0951687"><ele>66.0</ele><time>2026-04-26T08:36:34.273Z</time></trkpt><trkpt lat="45.204644" lon="9.0936541"><ele>68.5</ele><time>2026-04-26T08:36:43.276Z</time></trkpt><trkpt lat="45.2043907" lon="9.0932052"><ele>71.0</ele><time>2026-04-26T08:36:52.276Z</time></trkpt><trkpt lat="45.2044479" lon="9.0926221"><ele>73.5</ele><time>2026-04-26T08:37:01.278Z</time></trkpt><trkpt lat="45.2044583" lon="9.0921668"><ele>76.0</ele><time>2026-04-26T08:37:10.273Z</time></trkpt><trkpt lat="45.2046168" lon="9.0919217"><ele>76.0</ele><time>2026-04-26T08:37:19.389Z</time></trkpt><trkpt lat="45.2048904" lon="9.0915464"><ele>76.0</ele><time>2026-04-26T08:37:28.276Z</time></trkpt><trkpt lat="45.2046806" lon="9.0918261"><ele>79.0</ele><time>2026-04-26T08:37:37.275Z</time></trkpt><trkpt lat="45.2053923" lon="9.0908111"><ele>79.0</ele><time>2026-04-26T08:37:46.271Z</time></trkpt><trkpt lat="45.2055363" lon="9.0903964"><ele>79.0</ele><time>2026-04-26T08:37:55.278Z</time></trkpt><trkpt lat="45.2056619" lon="9.0901479"><ele>77.5</ele><time>2026-04-26T08:38:04.269Z</time></trkpt><trkpt lat="45.2058947" lon="9.0898121"><ele>76.0</ele><time>2026-04-26T08:38:13.272Z</time></trkpt><trkpt lat="45.2061722" lon="9.0894837"><ele>76.0</ele><time>2026-04-26T08:38:22.276Z</time></trkpt><trkpt lat="45.206443" lon="9.0891437"><ele>76.0</ele><time>2026-04-26T08:38:31.385Z</time></trkpt><trkpt lat="45.20619" lon="9.089455"><ele>77.0</ele><time>2026-04-26T08:38:40.269Z</time></trkpt><trkpt lat="45.2069383" lon="9.0884891"><ele>78.0</ele><time>2026-04-26T08:38:49.273Z</time></trkpt><trkpt lat="45.2072465" lon="9.088185"><ele>79.0</ele><time>2026-04-26T08:38:58.328Z</time></trkpt><trkpt lat="45.2075202" lon="9.0879203"><ele>79.0</ele><time>2026-04-26T08:39:07.269Z</time></trkpt><trkpt lat="45.2078935" lon="9.0879385"><ele>79.0</ele><time>2026-04-26T08:39:16.266Z</time></trkpt><trkpt lat="45.2082776" lon="9.0880258"><ele>78.0</ele><time>2026-04-26T08:39:25.261Z</time></trkpt><trkpt lat="45.2085845" lon="9.0876518"><ele>77.0</ele><time>2026-04-26T08:39:34.322Z</time></trkpt><trkpt lat="45.2082759" lon="9.0878038"><ele>77.0</ele><time>2026-04-26T08:39:43.275Z</time></trkpt><trkpt lat="45.2084951" lon="9.0878594"><ele>77.0</ele><time>2026-04-26T08:39:52.264Z</time></trkpt><trkpt lat="45.2094879" lon="9.0879628"><ele>77.5</ele><time>2026-04-26T08:40:01.269Z</time></trkpt><trkpt lat="45.2097801" lon="9.0882983"><ele>78.0</ele><time>2026-04-26T08:40:10.262Z</time></trkpt><trkpt lat="45.2100442" lon="9.0885558"><ele>78.5</ele><time>2026-04-26T08:40:19.271Z</time></trkpt><trkpt lat="45.2102438" lon="9.0887785"><ele>79.0</ele><time>2026-04-26T08:40:28.27Z</time></trkpt><trkpt lat="45.2104574" lon="9.0884078"><ele>79.0</ele><time>2026-04-26T08:40:37.338Z</time></trkpt><trkpt lat="45.2107313" lon="9.0879957"><ele>79.0</ele><time>2026-04-26T08:40:46.28Z</time></trkpt><trkpt lat="45.2105122" lon="9.0881493"><ele>78.0</ele><time>2026-04-26T08:40:55.267Z</time></trkpt><trkpt lat="45.2112329" lon="9.0870857"><ele>79.0</ele><time>2026-04-26T08:41:04.271Z</time></trkpt><trkpt lat="45.2115181" lon="9.086574"><ele>79.0</ele><time>2026-04-26T08:41:13.276Z</time></trkpt><trkpt lat="45.2117762" lon="9.086095"><ele>79.0</ele><time>2026-04-26T08:41:22.268Z</time></trkpt><trkpt lat="45.2120576" lon="9.0856763"><ele>79.0</ele><time>2026-04-26T08:41:31.278Z</time></trkpt><trkpt lat="45.2123091" lon="9.0852308"><ele>79.0</ele><time>2026-04-26T08:41:40.274Z</time></trkpt><trkpt lat="45.2125417" lon="9.0847768"><ele>80.0</ele><time>2026-04-26T08:41:49.26Z</time></trkpt><trkpt lat="45.2127924" lon="9.084357"><ele>81.0</ele><time>2026-04-26T08:41:58.265Z</time></trkpt><trkpt lat="45.2130267" lon="9.0839189"><ele>81.0</ele><time>2026-04-26T08:42:07.28Z</time></trkpt><trkpt lat="45.2132727" lon="9.0834968"><ele>81.0</ele><time>2026-04-26T08:42:16.271Z</time></trkpt><trkpt lat="45.21353" lon="9.0831066"><ele>81.0</ele><time>2026-04-26T08:42:25.269Z</time></trkpt><trkpt lat="45.213779" lon="9.0826207"><ele>81.0</ele><time>2026-04-26T08:42:34.271Z</time></trkpt><trkpt lat="45.213992" lon="9.0822507"><ele>81.0</ele><time>2026-04-26T08:42:43.281Z</time></trkpt><trkpt lat="45.2142494" lon="9.0817679"><ele>81.0</ele><time>2026-04-26T08:42:52.267Z</time></trkpt><trkpt lat="45.2144753" lon="9.0812915"><ele>81.0</ele><time>2026-04-26T08:43:01.399Z</time></trkpt><trkpt lat="45.2147473" lon="9.0807845"><ele>81.0</ele><time>2026-04-26T08:43:10.269Z</time></trkpt><trkpt lat="45.2149155" lon="9.0803477"><ele>81.0</ele><time>2026-04-26T08:43:19.269Z</time></trkpt><trkpt lat="45.2147968" lon="9.0800586"><ele>81.0</ele><time>2026-04-26T08:43:28.263Z</time></trkpt><trkpt lat="45.2144958" lon="9.0798378"><ele>81.0</ele><time>2026-04-26T08:43:37.27Z</time></trkpt><trkpt lat="45.214432" lon="9.0798874"><ele>81.0</ele><time>2026-04-26T08:43:46.267Z</time></trkpt><trkpt lat="45.2143549" lon="9.0798643"><ele>81.0</ele><time>2026-04-26T08:43:55.267Z</time></trkpt><trkpt lat="45.213925" lon="9.0792765"><ele>81.0</ele><time>2026-04-26T08:43:57.916Z</time></trkpt><trkpt lat="45.214271" lon="9.0796893"><ele>74.0</ele><time>2026-04-26T08:44:04.281Z</time></trkpt><trkpt lat="45.2133382" lon="9.0786248"><ele>76.0</ele><time>2026-04-26T08:44:13.271Z</time></trkpt><trkpt lat="45.2131039" lon="9.0784074"><ele>78.0</ele><time>2026-04-26T08:44:22.275Z</time></trkpt><trkpt lat="45.2131045" lon="9.0779222"><ele>76.5</ele><time>2026-04-26T08:44:31.325Z</time></trkpt><trkpt lat="45.2131199" lon="9.0774104"><ele>75.0</ele><time>2026-04-26T08:44:40.267Z</time></trkpt><trkpt lat="45.2131565" lon="9.0769644"><ele>73.5</ele><time>2026-04-26T08:44:49.276Z</time></trkpt><trkpt lat="45.21331" lon="9.0764436"><ele>72.0</ele><time>2026-04-26T08:44:58.27Z</time></trkpt><trkpt lat="45.2134835" lon="9.0760033"><ele>70.0</ele><time>2026-04-26T08:45:07.285Z</time></trkpt><trkpt lat="45.2136899" lon="9.0755074"><ele>68.0</ele><time>2026-04-26T08:45:16.27Z</time></trkpt><trkpt lat="45.2139437" lon="9.0750717"><ele>71.5</ele><time>2026-04-26T08:45:25.269Z</time></trkpt><trkpt lat="45.2141578" lon="9.0745475"><ele>75.0</ele><time>2026-04-26T08:45:34.261Z</time></trkpt><trkpt lat="45.2144739" lon="9.0742955"><ele>74.0</ele><time>2026-04-26T08:45:43.272Z</time></trkpt><trkpt lat="45.2148664" lon="9.0740759"><ele>73.0</ele><time>2026-04-26T08:45:52.283Z</time></trkpt><trkpt lat="45.2150869" lon="9.0737388"><ele>73.0</ele><time>2026-04-26T08:46:01.273Z</time></trkpt><trkpt lat="45.2153835" lon="9.0733301"><ele>73.0</ele><time>2026-04-26T08:46:10.28Z</time></trkpt><trkpt lat="45.2156281" lon="9.0729949"><ele>73.5</ele><time>2026-04-26T08:46:19.272Z</time></trkpt><trkpt lat="45.2159406" lon="9.0725644"><ele>74.0</ele><time>2026-04-26T08:46:28.273Z</time></trkpt><trkpt lat="45.2162069" lon="9.0721801"><ele>73.5</ele><time>2026-04-26T08:46:37.276Z</time></trkpt><trkpt lat="45.2164215" lon="9.0717837"><ele>73.0</ele><time>2026-04-26T08:46:46.262Z</time></trkpt><trkpt lat="45.2166954" lon="9.0714022"><ele>73.0</ele><time>2026-04-26T08:46:55.272Z</time></trkpt><trkpt lat="45.2170903" lon="9.0712132"><ele>73.0</ele><time>2026-04-26T08:47:04.258Z</time></trkpt><trkpt lat="45.2174406" lon="9.0710016"><ele>74.0</ele><time>2026-04-26T08:47:13.268Z</time></trkpt><trkpt lat="45.2177524" lon="9.0705501"><ele>75.0</ele><time>2026-04-26T08:47:22.266Z</time></trkpt><trkpt lat="45.2179903" lon="9.070124"><ele>75.0</ele><time>2026-04-26T08:47:31.274Z</time></trkpt><trkpt lat="45.2181651" lon="9.0696512"><ele>75.0</ele><time>2026-04-26T08:47:40.272Z</time></trkpt><trkpt lat="45.2179825" lon="9.0701104"><ele>75.0</ele><time>2026-04-26T08:47:49.27Z</time></trkpt><trkpt lat="45.2181318" lon="9.0698478"><ele>75.0</ele><time>2026-04-26T08:47:58.333Z</time></trkpt><trkpt lat="45.2181276" lon="9.0699722"><ele>75.0</ele><time>2026-04-26T08:48:07.272Z</time></trkpt><trkpt lat="45.2179462" lon="9.069785"><ele>74.66666666666667</ele><time>2026-04-26T08:48:16.267Z</time></trkpt><trkpt lat="45.2179319" lon="9.0696281"><ele>74.33333333333334</ele><time>2026-04-26T08:48:25.272Z</time></trkpt><trkpt lat="45.2178105" lon="9.0693483"><ele>74.0</ele><time>2026-04-26T08:48:34.271Z</time></trkpt><trkpt lat="45.2174663" lon="9.0684117"><ele>74.0</ele><time>2026-04-26T08:48:51.289Z</time></trkpt><trkpt lat="45.2174322" lon="9.0679333"><ele>74.0</ele><time>2026-04-26T08:48:52.287Z</time></trkpt><trkpt lat="45.2173572" lon="9.0673731"><ele>73.5</ele><time>2026-04-26T08:49:01.271Z</time></trkpt><trkpt lat="45.2172755" lon="9.0668301"><ele>73.0</ele><time>2026-04-26T08:49:10.272Z</time></trkpt><trkpt lat="45.2175537" lon="9.0666431"><ele>74.5</ele><time>2026-04-26T08:49:19.281Z</time></trkpt><trkpt lat="45.2178693" lon="9.066351"><ele>76.0</ele><time>2026-04-26T08:49:28.26Z</time></trkpt><trkpt lat="45.2181654" lon="9.0660996"><ele>76.0</ele><time>2026-04-26T08:49:37.272Z</time></trkpt><trkpt lat="45.2179044" lon="9.0663402"><ele>76.0</ele><time>2026-04-26T08:49:46.265Z</time></trkpt><trkpt lat="45.2188137" lon="9.0655794"><ele>76.0</ele><time>2026-04-26T08:49:55.376Z</time></trkpt><trkpt lat="45.2191152" lon="9.0653263"><ele>76.0</ele><time>2026-04-26T08:50:04.271Z</time></trkpt><trkpt lat="45.219415" lon="9.0650584"><ele>76.0</ele><time>2026-04-26T08:50:13.268Z</time></trkpt><trkpt lat="45.2197101" lon="9.0647824"><ele>76.0</ele><time>2026-04-26T08:50:22.272Z</time></trkpt><trkpt lat="45.2200415" lon="9.0645226"><ele>76.0</ele><time>2026-04-26T08:50:31.28Z</time></trkpt><trkpt lat="45.220358" lon="9.0642597"><ele>76.0</ele><time>2026-04-26T08:50:40.282Z</time></trkpt><trkpt lat="45.2207208" lon="9.0639094"><ele>76.0</ele><time>2026-04-26T08:50:49.274Z</time></trkpt><trkpt lat="45.221015" lon="9.063585"><ele>76.0</ele><time>2026-04-26T08:50:58.267Z</time></trkpt><trkpt lat="45.2212837" lon="9.0632224"><ele>76.5</ele><time>2026-04-26T08:51:07.273Z</time></trkpt><trkpt lat="45.2211193" lon="9.0627507"><ele>77.0</ele><time>2026-04-26T08:51:16.264Z</time></trkpt><trkpt lat="45.2208529" lon="9.0622737"><ele>77.0</ele><time>2026-04-26T08:51:25.268Z</time></trkpt><trkpt lat="45.2206069" lon="9.06183"><ele>77.0</ele><time>2026-04-26T08:51:34.27Z</time></trkpt><trkpt lat="45.2208197" lon="9.0622664"><ele>77.0</ele><time>2026-04-26T08:51:43.274Z</time></trkpt><trkpt lat="45.2206487" lon="9.061881"><ele>77.0</ele><time>2026-04-26T08:51:52.261Z</time></trkpt><trkpt lat="45.2205747" lon="9.0617258"><ele>77.0</ele><time>2026-04-26T08:52:01.274Z</time></trkpt><trkpt lat="45.2205889" lon="9.0614979"><ele>77.0</ele><time>2026-04-26T08:52:10.268Z</time></trkpt><trkpt lat="45.2207204" lon="9.0612968"><ele>77.0</ele><time>2026-04-26T08:52:19.263Z</time></trkpt><trkpt lat="45.220894" lon="9.0610869"><ele>76.0</ele><time>2026-04-26T08:52:28.27Z</time></trkpt><trkpt lat="45.2212877" lon="9.0603571"><ele>76.0</ele><time>2026-04-26T08:52:37.389Z</time></trkpt><trkpt lat="45.2215342" lon="9.0600487"><ele>76.0</ele><time>2026-04-26T08:52:46.268Z</time></trkpt><trkpt lat="45.2218383" lon="9.0597157"><ele>74.0</ele><time>2026-04-26T08:52:55.336Z</time></trkpt><trkpt lat="45.2221017" lon="9.0594381"><ele>72.0</ele><time>2026-04-26T08:53:04.258Z</time></trkpt><trkpt lat="45.2223475" lon="9.0590907"><ele>71.5</ele><time>2026-04-26T08:53:13.267Z</time></trkpt><trkpt lat="45.2226197" lon="9.0589548"><ele>71.0</ele><time>2026-04-26T08:53:22.269Z</time></trkpt><trkpt lat="45.2225459" lon="9.0592792"><ele>73.5</ele><time>2026-04-26T08:53:31.262Z</time></trkpt><trkpt lat="45.2225328" lon="9.0594598"><ele>76.0</ele><time>2026-04-26T08:53:40.259Z</time></trkpt><trkpt lat="45.2233863" lon="9.059803"><ele>77.0</ele><time>2026-04-26T08:53:49.261Z</time></trkpt><trkpt lat="45.223665" lon="9.0600895"><ele>78.0</ele><time>2026-04-26T08:53:58.27Z</time></trkpt><trkpt lat="45.2239462" lon="9.0604036"><ele>77.5</ele><time>2026-04-26T08:54:07.267Z</time></trkpt><trkpt lat="45.2242699" lon="9.0606668"><ele>77.0</ele><time>2026-04-26T08:54:16.26Z</time></trkpt><trkpt lat="45.2245194" lon="9.0609362"><ele>76.5</ele><time>2026-04-26T08:54:25.264Z</time></trkpt><trkpt lat="45.2246964" lon="9.060501"><ele>76.0</ele><time>2026-04-26T08:54:34.266Z</time></trkpt><trkpt lat="45.2245827" lon="9.0602709"><ele>76.0</ele><time>2026-04-26T08:54:43.26Z</time></trkpt><trkpt lat="45.2246309" lon="9.0600514"><ele>76.0</ele><time>2026-04-26T08:54:52.264Z</time></trkpt><trkpt lat="45.224617" lon="9.0597769"><ele>76.0</ele><time>2026-04-26T08:55:01.259Z</time></trkpt><trkpt lat="45.2246867" lon="9.0587882"><ele>76.0</ele><time>2026-04-26T08:55:10.256Z</time></trkpt><trkpt lat="45.2250011" lon="9.058387"><ele>76.0</ele><time>2026-04-26T08:55:19.273Z</time></trkpt><trkpt lat="45.2252213" lon="9.0581006"><ele>75.5</ele><time>2026-04-26T08:55:28.257Z</time></trkpt><trkpt lat="45.2254472" lon="9.0576478"><ele>75.0</ele><time>2026-04-26T08:55:37.271Z</time></trkpt><trkpt lat="45.2256643" lon="9.0571788"><ele>76.0</ele><time>2026-04-26T08:55:46.273Z</time></trkpt><trkpt lat="45.2258805" lon="9.0567591"><ele>77.0</ele><time>2026-04-26T08:55:55.273Z</time></trkpt><trkpt lat="45.225708" lon="9.0572091"><ele>74.0</ele><time>2026-04-26T08:56:04.271Z</time></trkpt><trkpt lat="45.2261566" lon="9.0566179"><ele>74.0</ele><time>2026-04-26T08:56:06.979Z</time></trkpt><trkpt lat="45.2258258" lon="9.0569613"><ele>74.0</ele><time>2026-04-26T08:56:13.318Z</time></trkpt><trkpt lat="45.2262989" lon="9.0562644"><ele>77.0</ele><time>2026-04-26T08:56:15.971Z</time></trkpt><trkpt lat="45.2259431" lon="9.0567004"><ele>76.0</ele><time>2026-04-26T08:56:22.26Z</time></trkpt><trkpt lat="45.2266755" lon="9.0554034"><ele>75.5</ele><time>2026-04-26T08:56:31.268Z</time></trkpt><trkpt lat="45.2267985" lon="9.0549223"><ele>75.0</ele><time>2026-04-26T08:56:40.269Z</time></trkpt><trkpt lat="45.2269676" lon="9.0544786"><ele>72.5</ele><time>2026-04-26T08:56:49.269Z</time></trkpt><trkpt lat="45.2271432" lon="9.0539921"><ele>70.0</ele><time>2026-04-26T08:56:58.266Z</time></trkpt><trkpt lat="45.2272564" lon="9.0535983"><ele>73.5</ele><time>2026-04-26T08:57:07.367Z</time></trkpt><trkpt lat="45.2275742" lon="9.0535414"><ele>77.0</ele><time>2026-04-26T08:57:16.267Z</time></trkpt><trkpt lat="45.2275372" lon="9.0537465"><ele>79.0</ele><time>2026-04-26T08:57:25.323Z</time></trkpt><trkpt lat="45.2282719" lon="9.0539451"><ele>79.0</ele><time>2026-04-26T08:57:34.259Z</time></trkpt><trkpt lat="45.2284389" lon="9.0537343"><ele>79.0</ele><time>2026-04-26T08:57:43.256Z</time></trkpt><trkpt lat="45.228595" lon="9.0534398"><ele>77.5</ele><time>2026-04-26T08:57:52.261Z</time></trkpt><trkpt lat="45.2286623" lon="9.0528536"><ele>76.0</ele><time>2026-04-26T08:58:01.255Z</time></trkpt><trkpt lat="45.2286888" lon="9.0523859"><ele>76.0</ele><time>2026-04-26T08:58:10.26Z</time></trkpt><trkpt lat="45.2287552" lon="9.0519557"><ele>76.0</ele><time>2026-04-26T08:58:19.27Z</time></trkpt><trkpt lat="45.2286716" lon="9.0523509"><ele>76.0</ele><time>2026-04-26T08:58:28.268Z</time></trkpt><trkpt lat="45.2286369" lon="9.0520785"><ele>76.0</ele><time>2026-04-26T08:58:37.265Z</time></trkpt><trkpt lat="45.2285456" lon="9.0510994"><ele>76.0</ele><time>2026-04-26T08:58:39.896Z</time></trkpt><trkpt lat="45.2286448" lon="9.051767"><ele>79.0</ele><time>2026-04-26T08:58:46.265Z</time></trkpt><trkpt lat="45.2287027" lon="9.0501033"><ele>79.0</ele><time>2026-04-26T08:58:55.262Z</time></trkpt><trkpt lat="45.228401" lon="9.049997"><ele>79.0</ele><time>2026-04-26T08:59:04.301Z</time></trkpt><trkpt lat="45.2284179" lon="9.049414"><ele>79.0</ele><time>2026-04-26T08:59:13.253Z</time></trkpt><trkpt lat="45.2284984" lon="9.0488721"><ele>79.0</ele><time>2026-04-26T08:59:22.262Z</time></trkpt><trkpt lat="45.2285275" lon="9.0483769"><ele>77.5</ele><time>2026-04-26T08:59:31.313Z</time></trkpt><trkpt lat="45.2285973" lon="9.0478541"><ele>76.0</ele><time>2026-04-26T08:59:40.298Z</time></trkpt><trkpt lat="45.2286172" lon="9.0469348"><ele>77.0</ele><time>2026-04-26T08:59:58.259Z</time></trkpt><trkpt lat="45.2284729" lon="9.046515"><ele>78.0</ele><time>2026-04-26T09:00:07.266Z</time></trkpt><trkpt lat="45.2284748" lon="9.045982"><ele>78.0</ele><time>2026-04-26T09:00:16.252Z</time></trkpt><trkpt lat="45.228426" lon="9.0455043"><ele>78.0</ele><time>2026-04-26T09:00:25.258Z</time></trkpt><trkpt lat="45.2285215" lon="9.045"><ele>78.5</ele><time>2026-04-26T09:00:34.31Z</time></trkpt><trkpt lat="45.2287912" lon="9.0445041"><ele>79.0</ele><time>2026-04-26T09:00:43.268Z</time></trkpt><trkpt lat="45.2291134" lon="9.04407"><ele>79.0</ele><time>2026-04-26T09:00:52.268Z</time></trkpt><trkpt lat="45.2293501" lon="9.0436828"><ele>79.0</ele><time>2026-04-26T09:01:01.262Z</time></trkpt><trkpt lat="45.2296302" lon="9.0432932"><ele>78.5</ele><time>2026-04-26T09:01:10.258Z</time></trkpt><trkpt lat="45.2299108" lon="9.0429534"><ele>78.0</ele><time>2026-04-26T09:01:19.322Z</time></trkpt><trkpt lat="45.2302283" lon="9.04305"><ele>78.5</ele><time>2026-04-26T09:01:28.254Z</time></trkpt><trkpt lat="45.230522" lon="9.043419"><ele>79.0</ele><time>2026-04-26T09:01:37.267Z</time></trkpt><trkpt lat="45.230258" lon="9.0434632"><ele>79.0</ele><time>2026-04-26T09:01:46.265Z</time></trkpt><trkpt lat="45.2311055" lon="9.0441293"><ele>79.0</ele><time>2026-04-26T09:01:55.316Z</time></trkpt><trkpt lat="45.2313458" lon="9.0444756"><ele>79.0</ele><time>2026-04-26T09:02:04.261Z</time></trkpt><trkpt lat="45.2316139" lon="9.044828"><ele>78.0</ele><time>2026-04-26T09:02:13.262Z</time></trkpt><trkpt lat="45.2319291" lon="9.0452174"><ele>77.0</ele><time>2026-04-26T09:02:22.267Z</time></trkpt><trkpt lat="45.2322041" lon="9.0455735"><ele>79.0</ele><time>2026-04-26T09:02:31.261Z</time></trkpt><trkpt lat="45.2324719" lon="9.0459796"><ele>81.0</ele><time>2026-04-26T09:02:40.307Z</time></trkpt><trkpt lat="45.2327431" lon="9.0463557"><ele>81.0</ele><time>2026-04-26T09:02:49.256Z</time></trkpt><trkpt lat="45.2329857" lon="9.0460329"><ele>81.0</ele><time>2026-04-26T09:02:58.262Z</time></trkpt><trkpt lat="45.2331961" lon="9.045668"><ele>80.0</ele><time>2026-04-26T09:03:07.273Z</time></trkpt><trkpt lat="45.233509" lon="9.0459042"><ele>79.0</ele><time>2026-04-26T09:03:16.306Z</time></trkpt><trkpt lat="45.2338065" lon="9.0462028"><ele>78.5</ele><time>2026-04-26T09:03:25.262Z</time></trkpt><trkpt lat="45.2341289" lon="9.0464682"><ele>78.0</ele><time>2026-04-26T09:03:34.322Z</time></trkpt><trkpt lat="45.2344627" lon="9.0467458"><ele>79.0</ele><time>2026-04-26T09:03:43.253Z</time></trkpt><trkpt lat="45.2347585" lon="9.0470075"><ele>80.0</ele><time>2026-04-26T09:03:52.254Z</time></trkpt><trkpt lat="45.2349572" lon="9.0470802"><ele>82.0</ele><time>2026-04-26T09:04:01.302Z</time></trkpt><trkpt lat="45.2351101" lon="9.0473463"><ele>84.0</ele><time>2026-04-26T09:04:10.257Z</time></trkpt><trkpt lat="45.2353691" lon="9.0473503"><ele>87.0</ele><time>2026-04-26T09:04:19.262Z</time></trkpt><trkpt lat="45.2358218" lon="9.0476174"><ele>87.0</ele><time>2026-04-26T09:04:28.251Z</time></trkpt><trkpt lat="45.2361403" lon="9.0479486"><ele>87.0</ele><time>2026-04-26T09:04:37.263Z</time></trkpt><trkpt lat="45.2363711" lon="9.0483139"><ele>87.0</ele><time>2026-04-26T09:04:46.257Z</time></trkpt><trkpt lat="45.2364484" lon="9.0483225"><ele>87.0</ele><time>2026-04-26T09:04:48.873Z</time></trkpt><trkpt lat="45.2366257" lon="9.0486298"><ele>87.0</ele><time>2026-04-26T09:04:55.267Z</time></trkpt><trkpt lat="45.2368392" lon="9.0487093"><ele>87.0</ele><time>2026-04-26T09:05:04.276Z</time></trkpt><trkpt lat="45.2368645" lon="9.0484741"><ele>87.0</ele><time>2026-04-26T09:05:13.269Z</time></trkpt><trkpt lat="45.2368877" lon="9.0479321"><ele>89.0</ele><time>2026-04-26T09:05:22.264Z</time></trkpt><trkpt lat="45.2368593" lon="9.0469007"><ele>88.5</ele><time>2026-04-26T09:05:40.261Z</time></trkpt><trkpt lat="45.2368814" lon="9.0463626"><ele>88.0</ele><time>2026-04-26T09:05:49.27Z</time></trkpt><trkpt lat="45.2368639" lon="9.0458079"><ele>88.5</ele><time>2026-04-26T09:05:58.257Z</time></trkpt><trkpt lat="45.2368376" lon="9.0452285"><ele>89.0</ele><time>2026-04-26T09:06:07.263Z</time></trkpt><trkpt lat="45.236858" lon="9.044602"><ele>89.0</ele><time>2026-04-26T09:06:16.257Z</time></trkpt><trkpt lat="45.236991" lon="9.0441761"><ele>89.0</ele><time>2026-04-26T09:06:25.258Z</time></trkpt><trkpt lat="45.23694" lon="9.0446241"><ele>85.0</ele><time>2026-04-26T09:06:34.263Z</time></trkpt><trkpt lat="45.2372755" lon="9.0431853"><ele>85.5</ele><time>2026-04-26T09:06:43.272Z</time></trkpt><trkpt lat="45.2374651" lon="9.0426601"><ele>86.0</ele><time>2026-04-26T09:06:52.325Z</time></trkpt><trkpt lat="45.2377842" lon="9.0423018"><ele>86.0</ele><time>2026-04-26T09:07:01.36Z</time></trkpt><trkpt lat="45.2380764" lon="9.041888"><ele>86.0</ele><time>2026-04-26T09:07:10.256Z</time></trkpt><trkpt lat="45.2383418" lon="9.0414953"><ele>85.5</ele><time>2026-04-26T09:07:19.267Z</time></trkpt><trkpt lat="45.2386725" lon="9.0410996"><ele>85.0</ele><time>2026-04-26T09:07:28.316Z</time></trkpt><trkpt lat="45.2387349" lon="9.0409993"><ele>86.0</ele><time>2026-04-26T09:07:29.618Z</time></trkpt><trkpt lat="45.2390643" lon="9.0405897"><ele>87.0</ele><time>2026-04-26T09:07:38.254Z</time></trkpt><trkpt lat="45.2394373" lon="9.0401038"><ele>87.0</ele><time>2026-04-26T09:07:47.257Z</time></trkpt><trkpt lat="45.2396538" lon="9.0397522"><ele>87.0</ele><time>2026-04-26T09:07:56.358Z</time></trkpt><trkpt lat="45.2398934" lon="9.0394882"><ele>87.0</ele><time>2026-04-26T09:08:05.257Z</time></trkpt><trkpt lat="45.2398722" lon="9.0392482"><ele>87.0</ele><time>2026-04-26T09:08:15.26Z</time></trkpt><trkpt lat="45.2396823" lon="9.0387836"><ele>87.0</ele><time>2026-04-26T09:08:24.257Z</time></trkpt><trkpt lat="45.2396029" lon="9.0390679"><ele>87.0</ele><time>2026-04-26T09:08:34.26Z</time></trkpt><trkpt lat="45.2396376" lon="9.0375643"><ele>79.0</ele><time>2026-04-26T09:08:43.258Z</time></trkpt><trkpt lat="45.2391716" lon="9.0371735"><ele>72.0</ele><time>2026-04-26T09:08:52.252Z</time></trkpt><trkpt lat="45.2385306" lon="9.0365155"><ele>68.0</ele><time>2026-04-26T09:09:01.185Z</time></trkpt><trkpt lat="45.2377684" lon="9.0362593"><ele>68.0</ele><time>2026-04-26T09:09:09.999Z</time></trkpt><trkpt lat="45.2376961" lon="9.0361486"><ele>68.0</ele><time>2026-04-26T09:09:12.615Z</time></trkpt><trkpt lat="45.2376456" lon="9.0360864"><ele>68.0</ele><time>2026-04-26T09:09:13.616Z</time></trkpt><trkpt lat="45.2375984" lon="9.0360271"><ele>68.0</ele><time>2026-04-26T09:09:14.618Z</time></trkpt><trkpt lat="45.2375521" lon="9.0359261"><ele>68.0</ele><time>2026-04-26T09:09:16.615Z</time></trkpt><trkpt lat="45.2375098" lon="9.0358055"><ele>68.0</ele><time>2026-04-26T09:09:18.617Z</time></trkpt><trkpt lat="45.2374716" lon="9.0357241"><ele>68.16666666666667</ele><time>2026-04-26T09:09:20.617Z</time></trkpt><trkpt lat="45.2374265" lon="9.035636"><ele>68.33333333333334</ele><time>2026-04-26T09:09:22.618Z</time></trkpt><trkpt lat="45.2373823" lon="9.0355673"><ele>68.5</ele><time>2026-04-26T09:09:24.618Z</time></trkpt><trkpt lat="45.2373182" lon="9.0355049"><ele>68.66666666666667</ele><time>2026-04-26T09:09:26.626Z</time></trkpt><trkpt lat="45.2372519" lon="9.0354314"><ele>68.83333333333333</ele><time>2026-04-26T09:09:28.626Z</time></trkpt><trkpt lat="45.2371633" lon="9.0353968"><ele>69.0</ele><time>2026-04-26T09:09:30.622Z</time></trkpt><trkpt lat="45.2370678" lon="9.0353813"><ele>69.0</ele><time>2026-04-26T09:09:32.616Z</time></trkpt><trkpt lat="45.2369821" lon="9.0353651"><ele>69.0</ele><time>2026-04-26T09:09:34.622Z</time></trkpt><trkpt lat="45.2369082" lon="9.0353242"><ele>69.0</ele><time>2026-04-26T09:09:36.62Z</time></trkpt><trkpt lat="45.2368307" lon="9.035247"><ele>69.0</ele><time>2026-04-26T09:09:43.628Z</time></trkpt><trkpt lat="45.2367804" lon="9.0351701"><ele>69.0</ele><time>2026-04-26T09:09:45.628Z</time></trkpt><trkpt lat="45.2367045" lon="9.03509"><ele>69.0</ele><time>2026-04-26T09:09:48.692Z</time></trkpt><trkpt lat="45.2367044" lon="9.0349875"><ele>69.0</ele><time>2026-04-26T09:09:56.615Z</time></trkpt><trkpt lat="45.2367254" lon="9.0348828"><ele>69.0</ele><time>2026-04-26T09:09:59.615Z</time></trkpt><trkpt lat="45.2367605" lon="9.034795"><ele>69.0</ele><time>2026-04-26T09:10:01.614Z</time></trkpt><trkpt lat="45.236769" lon="9.0346895"><ele>69.0</ele><time>2026-04-26T09:10:04.606Z</time></trkpt><trkpt lat="45.2368029" lon="9.0345762"><ele>69.0</ele><time>2026-04-26T09:10:12.617Z</time></trkpt><trkpt lat="45.2368223" lon="9.0344743"><ele>69.0</ele><time>2026-04-26T09:10:14.615Z</time></trkpt><trkpt lat="45.2368443" lon="9.0343738"><ele>69.0</ele><time>2026-04-26T09:10:16.622Z</time></trkpt><trkpt lat="45.2369107" lon="9.0343326"><ele>69.0</ele><time>2026-04-26T09:10:19.628Z</time></trkpt><trkpt lat="45.2369887" lon="9.034369"><ele>69.0</ele><time>2026-04-26T09:10:23.613Z</time></trkpt><trkpt lat="45.2370702" lon="9.0344202"><ele>69.0</ele><time>2026-04-26T09:10:26.675Z</time></trkpt><trkpt lat="45.237156" lon="9.034443"><ele>69.0</ele><time>2026-04-26T09:10:29.626Z</time></trkpt><trkpt lat="45.2372514" lon="9.0344542"><ele>69.0</ele><time>2026-04-26T09:10:31.614Z</time></trkpt><trkpt lat="45.2373553" lon="9.0344412"><ele>69.0</ele><time>2026-04-26T09:10:33.622Z</time></trkpt><trkpt lat="45.2374404" lon="9.0344438"><ele>69.0</ele><time>2026-04-26T09:10:35.616Z</time></trkpt><trkpt lat="45.2375489" lon="9.0344655"><ele>69.0</ele><time>2026-04-26T09:10:37.622Z</time></trkpt><trkpt lat="45.2376466" lon="9.0344889"><ele>69.0</ele><time>2026-04-26T09:10:39.683Z</time></trkpt><trkpt lat="45.2377599" lon="9.0345202"><ele>69.0</ele><time>2026-04-26T09:10:41.628Z</time></trkpt><trkpt lat="45.2378633" lon="9.0345529"><ele>69.0</ele><time>2026-04-26T09:10:43.615Z</time></trkpt><trkpt lat="45.2379588" lon="9.0345932"><ele>69.0</ele><time>2026-04-26T09:10:45.621Z</time></trkpt><trkpt lat="45.2380588" lon="9.0346076"><ele>69.0</ele><time>2026-04-26T09:10:47.623Z</time></trkpt><trkpt lat="45.2381411" lon="9.0346352"><ele>69.0</ele><time>2026-04-26T09:10:49.632Z</time></trkpt><trkpt lat="45.2382208" lon="9.0346597"><ele>69.0</ele><time>2026-04-26T09:10:51.617Z</time></trkpt><trkpt lat="45.2382841" lon="9.0346856"><ele>69.0</ele><time>2026-04-26T09:10:53.625Z</time></trkpt><trkpt lat="45.2383506" lon="9.0347108"><ele>69.8</ele><time>2026-04-26T09:10:55.628Z</time></trkpt><trkpt lat="45.2384157" lon="9.0347187"><ele>70.60000000000001</ele><time>2026-04-26T09:10:57.619Z</time></trkpt><trkpt lat="45.2384907" lon="9.0347188"><ele>71.4</ele><time>2026-04-26T09:11:00.622Z</time></trkpt><trkpt lat="45.2385622" lon="9.0347703"><ele>72.2</ele><time>2026-04-26T09:11:03.622Z</time></trkpt><trkpt lat="45.2386516" lon="9.034814"><ele>73.0</ele><time>2026-04-26T09:11:06.612Z</time></trkpt><trkpt lat="45.2390231" lon="9.0348892"><ele>74.33333333333333</ele><time>2026-04-26T09:11:17.006Z</time></trkpt><trkpt lat="45.2391231" lon="9.0349036"><ele>75.66666666666666</ele><time>2026-04-26T09:11:18.621Z</time></trkpt><trkpt lat="45.2391615" lon="9.0349813"><ele>77.0</ele><time>2026-04-26T09:11:23.615Z</time></trkpt><trkpt lat="45.2392264" lon="9.0350024"><ele>78.33333333333333</ele><time>2026-04-26T09:11:26.616Z</time></trkpt><trkpt lat="45.2393125" lon="9.0350498"><ele>79.66666666666667</ele><time>2026-04-26T09:11:29.671Z</time></trkpt><trkpt lat="45.2393737" lon="9.0350809"><ele>81.0</ele><time>2026-04-26T09:11:31.626Z</time></trkpt><trkpt lat="45.2394533" lon="9.0351176"><ele>81.0</ele><time>2026-04-26T09:11:34.614Z</time></trkpt><trkpt lat="45.2395237" lon="9.0351393"><ele>81.0</ele><time>2026-04-26T09:11:37.617Z</time></trkpt><trkpt lat="45.2395985" lon="9.0351592"><ele>81.0</ele><time>2026-04-26T09:11:40.625Z</time></trkpt><trkpt lat="45.2396841" lon="9.035172"><ele>81.0</ele><time>2026-04-26T09:11:43.62Z</time></trkpt><trkpt lat="45.2397563" lon="9.0352027"><ele>81.0</ele><time>2026-04-26T09:11:46.622Z</time></trkpt><trkpt lat="45.2397285" lon="9.0351056"><ele>81.0</ele><time>2026-04-26T09:11:53.687Z</time></trkpt><trkpt lat="45.2396636" lon="9.0350652"><ele>81.0</ele><time>2026-04-26T09:11:56.617Z</time></trkpt><trkpt lat="45.2395933" lon="9.0350266"><ele>81.0</ele><time>2026-04-26T09:11:59.612Z</time></trkpt><trkpt lat="45.2395249" lon="9.0349744"><ele>81.0</ele><time>2026-04-26T09:12:02.626Z</time></trkpt><trkpt lat="45.2394587" lon="9.0349302"><ele>81.0</ele><time>2026-04-26T09:12:05.622Z</time></trkpt><trkpt lat="45.2393856" lon="9.0348766"><ele>81.0</ele><time>2026-04-26T09:12:08.617Z</time></trkpt><trkpt lat="45.2393229" lon="9.034814"><ele>81.0</ele><time>2026-04-26T09:12:11.612Z</time></trkpt><trkpt lat="45.2392587" lon="9.0347339"><ele>81.33333333333333</ele><time>2026-04-26T09:12:14.623Z</time></trkpt><trkpt lat="45.2391941" lon="9.0346528"><ele>81.66666666666667</ele><time>2026-04-26T09:12:17.62Z</time></trkpt><trkpt lat="45.2391305" lon="9.0345597"><ele>82.0</ele><time>2026-04-26T09:12:20.624Z</time></trkpt><trkpt lat="45.2390834" lon="9.0344937"><ele>82.33333333333334</ele><time>2026-04-26T09:12:22.63Z</time></trkpt><trkpt lat="45.23902" lon="9.0344122"><ele>82.66666666666667</ele><time>2026-04-26T09:12:25.623Z</time></trkpt><trkpt lat="45.2389538" lon="9.0343281"><ele>83.0</ele><time>2026-04-26T09:12:28.621Z</time></trkpt><trkpt lat="45.2389057" lon="9.034263"><ele>81.33333333333334</ele><time>2026-04-26T09:12:30.623Z</time></trkpt><trkpt lat="45.2388698" lon="9.0341452"><ele>79.66666666666667</ele><time>2026-04-26T09:12:33.612Z</time></trkpt><trkpt lat="45.2388679" lon="9.0340157"><ele>78.0</ele><time>2026-04-26T09:12:36.619Z</time></trkpt><trkpt lat="45.2388709" lon="9.0339187"><ele>76.33333333333333</ele><time>2026-04-26T09:12:38.622Z</time></trkpt><trkpt lat="45.2388763" lon="9.0338267"><ele>74.66666666666666</ele><time>2026-04-26T09:12:40.62Z</time></trkpt><trkpt lat="45.2388892" lon="9.0337197"><ele>73.0</ele><time>2026-04-26T09:12:43.631Z</time></trkpt><trkpt lat="45.2389386" lon="9.0336039"><ele>74.57142857142857</ele><time>2026-04-26T09:12:46.623Z</time></trkpt><trkpt lat="45.2389815" lon="9.0335373"><ele>76.14285714285714</ele><time>2026-04-26T09:12:48.614Z</time></trkpt><trkpt lat="45.239037" lon="9.0334795"><ele>77.71428571428572</ele><time>2026-04-26T09:12:50.618Z</time></trkpt><trkpt lat="45.2390908" lon="9.0333981"><ele>79.28571428571428</ele><time>2026-04-26T09:12:52.621Z</time></trkpt><trkpt lat="45.2391227" lon="9.0333031"><ele>80.85714285714286</ele><time>2026-04-26T09:12:54.623Z</time></trkpt><trkpt lat="45.2391358" lon="9.0331718"><ele>82.42857142857143</ele><time>2026-04-26T09:12:57.618Z</time></trkpt><trkpt lat="45.2391243" lon="9.033075"><ele>84.0</ele><time>2026-04-26T09:12:59.622Z</time></trkpt><trkpt lat="45.2390989" lon="9.03298"><ele>84.14285714285714</ele><time>2026-04-26T09:13:01.618Z</time></trkpt><trkpt lat="45.2390541" lon="9.0329119"><ele>84.28571428571428</ele><time>2026-04-26T09:13:03.619Z</time></trkpt><trkpt lat="45.2389901" lon="9.03289"><ele>84.42857142857143</ele><time>2026-04-26T09:13:05.622Z</time></trkpt><trkpt lat="45.2389122" lon="9.0328884"><ele>84.57142857142857</ele><time>2026-04-26T09:13:07.631Z</time></trkpt><trkpt lat="45.2388425" lon="9.0329028"><ele>84.71428571428571</ele><time>2026-04-26T09:13:09.621Z</time></trkpt><trkpt lat="45.2387677" lon="9.0328885"><ele>84.85714285714286</ele><time>2026-04-26T09:13:11.621Z</time></trkpt><trkpt lat="45.2387029" lon="9.0328494"><ele>85.0</ele><time>2026-04-26T09:13:13.617Z</time></trkpt><trkpt lat="45.2385457" lon="9.0322211"><ele>80.0</ele><time>2026-04-26T09:13:24.049Z</time></trkpt><trkpt lat="45.238594" lon="9.0318629"><ele>75.0</ele><time>2026-04-26T09:13:33.052Z</time></trkpt><trkpt lat="45.2388108" lon="9.0315413"><ele>79.0</ele><time>2026-04-26T09:13:41.999Z</time></trkpt><trkpt lat="45.239007" lon="9.0311665"><ele>83.0</ele><time>2026-04-26T09:13:51.051Z</time></trkpt><trkpt lat="45.2393597" lon="9.0309149"><ele>83.0</ele><time>2026-04-26T09:14:00.007Z</time></trkpt><trkpt lat="45.2392427" lon="9.0313005"><ele>83.0</ele><time>2026-04-26T09:14:09.007Z</time></trkpt><trkpt lat="45.2392142" lon="9.0314578"><ele>83.0</ele><time>2026-04-26T09:14:18.006Z</time></trkpt><trkpt lat="45.2398634" lon="9.031481"><ele>82.83333333333334</ele><time>2026-04-26T09:14:19.621Z</time></trkpt><trkpt lat="45.2399313" lon="9.0315081"><ele>82.66666666666667</ele><time>2026-04-26T09:14:21.613Z</time></trkpt><trkpt lat="45.2400187" lon="9.0315621"><ele>82.5</ele><time>2026-04-26T09:14:24.613Z</time></trkpt><trkpt lat="45.2400937" lon="9.0315866"><ele>82.33333333333333</ele><time>2026-04-26T09:14:26.613Z</time></trkpt><trkpt lat="45.240178" lon="9.031632"><ele>82.16666666666666</ele><time>2026-04-26T09:14:29.614Z</time></trkpt><trkpt lat="45.2402569" lon="9.0316795"><ele>82.0</ele><time>2026-04-26T09:14:32.614Z</time></trkpt><trkpt lat="45.24034" lon="9.0316572"><ele>82.0</ele><time>2026-04-26T09:14:35.617Z</time></trkpt><trkpt lat="45.240409" lon="9.0315589"><ele>82.0</ele><time>2026-04-26T09:14:38.619Z</time></trkpt><trkpt lat="45.2404525" lon="9.0314877"><ele>82.0</ele><time>2026-04-26T09:14:40.62Z</time></trkpt><trkpt lat="45.240494" lon="9.0314199"><ele>82.0</ele><time>2026-04-26T09:14:42.628Z</time></trkpt><trkpt lat="45.2405379" lon="9.031336"><ele>82.0</ele><time>2026-04-26T09:14:44.686Z</time></trkpt><trkpt lat="45.2405846" lon="9.0312519"><ele>82.0</ele><time>2026-04-26T09:14:46.622Z</time></trkpt><trkpt lat="45.2406226" lon="9.0311618"><ele>82.0</ele><time>2026-04-26T09:14:48.619Z</time></trkpt><trkpt lat="45.2406713" lon="9.0310831"><ele>82.0</ele><time>2026-04-26T09:14:50.619Z</time></trkpt><trkpt lat="45.2407467" lon="9.0309965"><ele>82.0</ele><time>2026-04-26T09:14:53.623Z</time></trkpt><trkpt lat="45.2408126" lon="9.0309331"><ele>82.0</ele><time>2026-04-26T09:14:55.614Z</time></trkpt><trkpt lat="45.2408789" lon="9.030877"><ele>82.0</ele><time>2026-04-26T09:14:57.611Z</time></trkpt><trkpt lat="45.2409582" lon="9.0308132"><ele>82.0</ele><time>2026-04-26T09:15:00.626Z</time></trkpt><trkpt lat="45.2410125" lon="9.0307648"><ele>80.99999999999999</ele><time>2026-04-26T09:15:02.623Z</time></trkpt><trkpt lat="45.2410746" lon="9.0307098"><ele>80.0</ele><time>2026-04-26T09:15:04.618Z</time></trkpt><trkpt lat="45.2411396" lon="9.0306604"><ele>79.0</ele><time>2026-04-26T09:15:06.623Z</time></trkpt><trkpt lat="45.2411942" lon="9.0305887"><ele>78.0</ele><time>2026-04-26T09:15:08.623Z</time></trkpt><trkpt lat="45.2412516" lon="9.0305114"><ele>77.0</ele><time>2026-04-26T09:15:10.623Z</time></trkpt><trkpt lat="45.2413024" lon="9.0304526"><ele>75.99999999999999</ele><time>2026-04-26T09:15:12.623Z</time></trkpt><trkpt lat="45.2413595" lon="9.0303822"><ele>75.0</ele><time>2026-04-26T09:15:14.618Z</time></trkpt><trkpt lat="45.2414203" lon="9.0303144"><ele>75.33333333333333</ele><time>2026-04-26T09:15:16.619Z</time></trkpt><trkpt lat="45.2414848" lon="9.0302332"><ele>75.66666666666667</ele><time>2026-04-26T09:15:18.617Z</time></trkpt><trkpt lat="45.2415428" lon="9.0301638"><ele>76.0</ele><time>2026-04-26T09:15:20.619Z</time></trkpt><trkpt lat="45.2416056" lon="9.0301149"><ele>76.33333333333334</ele><time>2026-04-26T09:15:22.619Z</time></trkpt><trkpt lat="45.2416601" lon="9.0300581"><ele>76.66666666666667</ele><time>2026-04-26T09:15:24.621Z</time></trkpt><trkpt lat="45.2417455" lon="9.030006"><ele>77.0</ele><time>2026-04-26T09:15:27.622Z</time></trkpt><trkpt lat="45.2418164" lon="9.0299675"><ele>76.16666666666667</ele><time>2026-04-26T09:15:29.621Z</time></trkpt><trkpt lat="45.2418815" lon="9.029927"><ele>75.33333333333334</ele><time>2026-04-26T09:15:31.622Z</time></trkpt><trkpt lat="45.2419666" lon="9.0298689"><ele>74.5</ele><time>2026-04-26T09:15:34.612Z</time></trkpt><trkpt lat="45.242028" lon="9.0298239"><ele>73.66666666666667</ele><time>2026-04-26T09:15:36.619Z</time></trkpt><trkpt lat="45.2420952" lon="9.0297742"><ele>72.83333333333333</ele><time>2026-04-26T09:15:38.62Z</time></trkpt><trkpt lat="45.2421684" lon="9.0297312"><ele>72.0</ele><time>2026-04-26T09:15:40.625Z</time></trkpt><trkpt lat="45.2422394" lon="9.0296872"><ele>72.0</ele><time>2026-04-26T09:15:42.623Z</time></trkpt><trkpt lat="45.2423095" lon="9.0296654"><ele>72.0</ele><time>2026-04-26T09:15:44.615Z</time></trkpt><trkpt lat="45.2423704" lon="9.0295703"><ele>72.0</ele><time>2026-04-26T09:15:47.686Z</time></trkpt><trkpt lat="45.2423217" lon="9.0294578"><ele>72.0</ele><time>2026-04-26T09:15:49.626Z</time></trkpt><trkpt lat="45.2422285" lon="9.0293709"><ele>72.0</ele><time>2026-04-26T09:15:51.622Z</time></trkpt><trkpt lat="45.2421726" lon="9.02931"><ele>72.0</ele><time>2026-04-26T09:15:52.619Z</time></trkpt><trkpt lat="45.2421187" lon="9.0292497"><ele>72.0</ele><time>2026-04-26T09:15:53.621Z</time></trkpt><trkpt lat="45.2420662" lon="9.0291849"><ele>72.0</ele><time>2026-04-26T09:15:54.616Z</time></trkpt><trkpt lat="45.2420106" lon="9.0291164"><ele>72.0</ele><time>2026-04-26T09:15:55.629Z</time></trkpt><trkpt lat="45.2419503" lon="9.0290439"><ele>72.0</ele><time>2026-04-26T09:15:56.63Z</time></trkpt><trkpt lat="45.2418798" lon="9.0289671"><ele>72.0</ele><time>2026-04-26T09:15:57.634Z</time></trkpt><trkpt lat="45.2418151" lon="9.0288844"><ele>72.0</ele><time>2026-04-26T09:15:58.622Z</time></trkpt><trkpt lat="45.2417532" lon="9.0287994"><ele>71.66666666666667</ele><time>2026-04-26T09:15:59.615Z</time></trkpt><trkpt lat="45.2416856" lon="9.0287167"><ele>71.33333333333333</ele><time>2026-04-26T09:16:00.62Z</time></trkpt><trkpt lat="45.2416216" lon="9.0286328"><ele>71.0</ele><time>2026-04-26T09:16:01.624Z</time></trkpt><trkpt lat="45.2415608" lon="9.0285445"><ele>70.66666666666666</ele><time>2026-04-26T09:16:02.623Z</time></trkpt><trkpt lat="45.2415027" lon="9.0284545"><ele>70.33333333333333</ele><time>2026-04-26T09:16:03.623Z</time></trkpt><trkpt lat="45.2414398" lon="9.0283665"><ele>70.0</ele><time>2026-04-26T09:16:04.627Z</time></trkpt><trkpt lat="45.2413769" lon="9.0282874"><ele>69.33333333333333</ele><time>2026-04-26T09:16:05.618Z</time></trkpt><trkpt lat="45.2413081" lon="9.0282182"><ele>68.66666666666666</ele><time>2026-04-26T09:16:06.625Z</time></trkpt><trkpt lat="45.2412412" lon="9.0281525"><ele>68.0</ele><time>2026-04-26T09:16:07.621Z</time></trkpt><trkpt lat="45.2411772" lon="9.0280845"><ele>67.33333333333333</ele><time>2026-04-26T09:16:08.633Z</time></trkpt><trkpt lat="45.2411171" lon="9.0280128"><ele>66.66666666666667</ele><time>2026-04-26T09:16:09.622Z</time></trkpt><trkpt lat="45.2410554" lon="9.0279487"><ele>66.0</ele><time>2026-04-26T09:16:10.628Z</time></trkpt><trkpt lat="45.2410001" lon="9.0278825"><ele>66.0</ele><time>2026-04-26T09:16:11.614Z</time></trkpt><trkpt lat="45.2409412" lon="9.0278234"><ele>66.0</ele><time>2026-04-26T09:16:12.622Z</time></trkpt><trkpt lat="45.2408868" lon="9.0277664"><ele>66.0</ele><time>2026-04-26T09:16:13.615Z</time></trkpt><trkpt lat="45.2408355" lon="9.0277121"><ele>66.0</ele><time>2026-04-26T09:16:14.621Z</time></trkpt><trkpt lat="45.2403534" lon="9.0273653"><ele>65.5</ele><time>2026-04-26T09:16:25.009Z</time></trkpt><trkpt lat="45.2402756" lon="9.027638"><ele>65.0</ele><time>2026-04-26T09:16:34.002Z</time></trkpt><trkpt lat="45.2400786" lon="9.0280407"><ele>64.5</ele><time>2026-04-26T09:16:43Z</time></trkpt><trkpt lat="45.2398458" lon="9.0283782"><ele>64.0</ele><time>2026-04-26T09:16:52.002Z</time></trkpt><trkpt lat="45.2395928" lon="9.0287384"><ele>64.0</ele><time>2026-04-26T09:17:01.004Z</time></trkpt><trkpt lat="45.2398292" lon="9.0283951"><ele>64.0</ele><time>2026-04-26T09:17:10.01Z</time></trkpt><trkpt lat="45.239722" lon="9.0286243"><ele>68.0</ele><time>2026-04-26T09:17:19Z</time></trkpt><trkpt lat="45.2392906" lon="9.029335"><ele>68.0</ele><time>2026-04-26T09:17:19.599Z</time></trkpt><trkpt lat="45.2391966" lon="9.0292382"><ele>68.0</ele><time>2026-04-26T09:17:22.618Z</time></trkpt><trkpt lat="45.2391534" lon="9.0291487"><ele>68.0</ele><time>2026-04-26T09:17:24.618Z</time></trkpt><trkpt lat="45.2390866" lon="9.0290778"><ele>68.0</ele><time>2026-04-26T09:17:27.611Z</time></trkpt><trkpt lat="45.2390202" lon="9.0291011"><ele>68.0</ele><time>2026-04-26T09:17:30.626Z</time></trkpt><trkpt lat="45.2389389" lon="9.0291604"><ele>68.0</ele><time>2026-04-26T09:17:33.621Z</time></trkpt><trkpt lat="45.2388675" lon="9.0292025"><ele>67.83333333333334</ele><time>2026-04-26T09:17:35.62Z</time></trkpt><trkpt lat="45.2388069" lon="9.0292338"><ele>67.66666666666667</ele><time>2026-04-26T09:17:37.613Z</time></trkpt><trkpt lat="45.2387399" lon="9.0292604"><ele>67.5</ele><time>2026-04-26T09:17:39.613Z</time></trkpt><trkpt lat="45.2386772" lon="9.029284"><ele>67.33333333333333</ele><time>2026-04-26T09:17:41.624Z</time></trkpt><trkpt lat="45.2386053" lon="9.0293064"><ele>67.16666666666666</ele><time>2026-04-26T09:17:43.635Z</time></trkpt><trkpt lat="45.2385222" lon="9.0293404"><ele>67.0</ele><time>2026-04-26T09:17:46.611Z</time></trkpt><trkpt lat="45.2384364" lon="9.0293911"><ele>67.0</ele><time>2026-04-26T09:17:49.622Z</time></trkpt><trkpt lat="45.2383796" lon="9.0294304"><ele>67.0</ele><time>2026-04-26T09:17:51.628Z</time></trkpt><trkpt lat="45.2383132" lon="9.0294608"><ele>67.0</ele><time>2026-04-26T09:17:53.62Z</time></trkpt><trkpt lat="45.2382323" lon="9.0294836"><ele>67.0</ele><time>2026-04-26T09:17:56.694Z</time></trkpt><trkpt lat="45.2381463" lon="9.0295118"><ele>67.0</ele><time>2026-04-26T09:17:59.626Z</time></trkpt><trkpt lat="45.238084" lon="9.0295256"><ele>67.0</ele><time>2026-04-26T09:18:01.623Z</time></trkpt><trkpt lat="45.238001" lon="9.0295537"><ele>67.33333333333333</ele><time>2026-04-26T09:18:04.621Z</time></trkpt><trkpt lat="45.2379127" lon="9.0295764"><ele>67.66666666666666</ele><time>2026-04-26T09:18:07.617Z</time></trkpt><trkpt lat="45.2378444" lon="9.0295971"><ele>68.0</ele><time>2026-04-26T09:18:09.612Z</time></trkpt><trkpt lat="45.2377764" lon="9.0296069"><ele>68.33333333333333</ele><time>2026-04-26T09:18:11.688Z</time></trkpt><trkpt lat="45.2376879" lon="9.0296239"><ele>68.66666666666667</ele><time>2026-04-26T09:18:14.618Z</time></trkpt><trkpt lat="45.2376186" lon="9.0296354"><ele>69.0</ele><time>2026-04-26T09:18:16.624Z</time></trkpt><trkpt lat="45.2375346" lon="9.0296724"><ele>69.0</ele><time>2026-04-26T09:18:19.618Z</time></trkpt><trkpt lat="45.2374875" lon="9.0297381"><ele>69.0</ele><time>2026-04-26T09:18:21.618Z</time></trkpt><trkpt lat="45.2374802" lon="9.0298647"><ele>69.0</ele><time>2026-04-26T09:18:24.632Z</time></trkpt><trkpt lat="45.2374724" lon="9.0300023"><ele>69.0</ele><time>2026-04-26T09:18:27.621Z</time></trkpt><trkpt lat="45.2374764" lon="9.0300928"><ele>69.0</ele><time>2026-04-26T09:18:29.621Z</time></trkpt><trkpt lat="45.2374814" lon="9.0301909"><ele>69.0</ele><time>2026-04-26T09:18:31.626Z</time></trkpt><trkpt lat="45.2374955" lon="9.0302785"><ele>69.0</ele><time>2026-04-26T09:18:33.62Z</time></trkpt><trkpt lat="45.2375197" lon="9.0303648"><ele>69.33333333333333</ele><time>2026-04-26T09:18:35.625Z</time></trkpt><trkpt lat="45.2375362" lon="9.0304579"><ele>69.66666666666667</ele><time>2026-04-26T09:18:37.682Z</time></trkpt><trkpt lat="45.2375478" lon="9.0305503"><ele>70.0</ele><time>2026-04-26T09:18:39.621Z</time></trkpt><trkpt lat="45.2375865" lon="9.0306759"><ele>70.33333333333334</ele><time>2026-04-26T09:18:42.639Z</time></trkpt><trkpt lat="45.2376485" lon="9.030742"><ele>70.66666666666667</ele><time>2026-04-26T09:18:44.616Z</time></trkpt><trkpt lat="45.2377148" lon="9.0307828"><ele>71.0</ele><time>2026-04-26T09:18:46.614Z</time></trkpt><trkpt lat="45.2377968" lon="9.0308056"><ele>70.5</ele><time>2026-04-26T09:18:48.62Z</time></trkpt><trkpt lat="45.2378742" lon="9.0308201"><ele>70.0</ele><time>2026-04-26T09:18:50.625Z</time></trkpt><trkpt lat="45.2379478" lon="9.0308413"><ele>69.5</ele><time>2026-04-26T09:18:52.628Z</time></trkpt><trkpt lat="45.2380211" lon="9.0309074"><ele>69.0</ele><time>2026-04-26T09:18:55.626Z</time></trkpt><trkpt lat="45.2380778" lon="9.0310072"><ele>68.5</ele><time>2026-04-26T09:18:58.623Z</time></trkpt><trkpt lat="45.2380939" lon="9.031098"><ele>68.0</ele><time>2026-04-26T09:19:00.622Z</time></trkpt><trkpt lat="45.2381116" lon="9.0311985"><ele>67.99999999999999</ele><time>2026-04-26T09:19:02.621Z</time></trkpt><trkpt lat="45.2381216" lon="9.0312899"><ele>68.0</ele><time>2026-04-26T09:19:04.639Z</time></trkpt><trkpt lat="45.2381317" lon="9.0313835"><ele>68.0</ele><time>2026-04-26T09:19:06.619Z</time></trkpt><trkpt lat="45.2381471" lon="9.0314714"><ele>68.0</ele><time>2026-04-26T09:19:08.617Z</time></trkpt><trkpt lat="45.2381677" lon="9.0315748"><ele>68.0</ele><time>2026-04-26T09:19:10.624Z</time></trkpt><trkpt lat="45.2381858" lon="9.0316702"><ele>67.99999999999999</ele><time>2026-04-26T09:19:12.636Z</time></trkpt><trkpt lat="45.2382072" lon="9.0317824"><ele>68.0</ele><time>2026-04-26T09:19:14.621Z</time></trkpt><trkpt lat="45.2382252" lon="9.0318822"><ele>70.5</ele><time>2026-04-26T09:19:16.619Z</time></trkpt><trkpt lat="45.2383575" lon="9.032365"><ele>73.0</ele><time>2026-04-26T09:19:25.995Z</time></trkpt><trkpt lat="45.238396" lon="9.0328108"><ele>72.5</ele><time>2026-04-26T09:19:34.997Z</time></trkpt><trkpt lat="45.2385185" lon="9.0333283"><ele>72.0</ele><time>2026-04-26T09:19:43.997Z</time></trkpt><trkpt lat="45.2385655" lon="9.0336574"><ele>72.0</ele><time>2026-04-26T09:19:53.026Z</time></trkpt><trkpt lat="45.2385854" lon="9.0341969"><ele>72.0</ele><time>2026-04-26T09:20:01.995Z</time></trkpt><trkpt lat="45.2385322" lon="9.0337747"><ele>72.0</ele><time>2026-04-26T09:20:11.027Z</time></trkpt><trkpt lat="45.2384689" lon="9.0339851"><ele>72.0</ele><time>2026-04-26T09:20:19.995Z</time></trkpt><trkpt lat="45.2382604" lon="9.0342965"><ele>69.0</ele><time>2026-04-26T09:20:28.997Z</time></trkpt><trkpt lat="45.237578" lon="9.03449"><ele>69.0</ele><time>2026-04-26T09:20:39.613Z</time></trkpt><trkpt lat="45.2375189" lon="9.0344434"><ele>69.0</ele><time>2026-04-26T09:20:42.614Z</time></trkpt><trkpt lat="45.2374567" lon="9.0344099"><ele>69.0</ele><time>2026-04-26T09:20:44.615Z</time></trkpt><trkpt lat="45.2373714" lon="9.0343981"><ele>69.0</ele><time>2026-04-26T09:20:46.609Z</time></trkpt><trkpt lat="45.2372988" lon="9.0343911"><ele>69.0</ele><time>2026-04-26T09:20:48.633Z</time></trkpt><trkpt lat="45.2372192" lon="9.0343498"><ele>69.0</ele><time>2026-04-26T09:20:51.619Z</time></trkpt><trkpt lat="45.2371356" lon="9.0342845"><ele>69.0</ele><time>2026-04-26T09:20:54.611Z</time></trkpt><trkpt lat="45.2370826" lon="9.0342288"><ele>69.0</ele><time>2026-04-26T09:20:56.615Z</time></trkpt><trkpt lat="45.2370155" lon="9.0341876"><ele>69.0</ele><time>2026-04-26T09:20:58.616Z</time></trkpt><trkpt lat="45.2369321" lon="9.0341651"><ele>69.0</ele><time>2026-04-26T09:21:01.62Z</time></trkpt><trkpt lat="45.2368635" lon="9.0342414"><ele>69.0</ele><time>2026-04-26T09:21:04.62Z</time></trkpt><trkpt lat="45.236844" lon="9.0343496"><ele>69.0</ele><time>2026-04-26T09:21:07.608Z</time></trkpt><trkpt lat="45.2368601" lon="9.0344507"><ele>69.0</ele><time>2026-04-26T09:21:09.613Z</time></trkpt><trkpt lat="45.2368079" lon="9.0345143"><ele>69.0</ele><time>2026-04-26T09:21:15.613Z</time></trkpt><trkpt lat="45.2367366" lon="9.0346272"><ele>69.0</ele><time>2026-04-26T09:21:17.608Z</time></trkpt><trkpt lat="45.23668" lon="9.0346862"><ele>69.0</ele><time>2026-04-26T09:21:19.619Z</time></trkpt><trkpt lat="45.2366048" lon="9.0347415"><ele>69.0</ele><time>2026-04-26T09:21:21.621Z</time></trkpt><trkpt lat="45.2365355" lon="9.0347865"><ele>69.0</ele><time>2026-04-26T09:21:23.619Z</time></trkpt><trkpt lat="45.2364638" lon="9.0348572"><ele>69.0</ele><time>2026-04-26T09:21:26.621Z</time></trkpt><trkpt lat="45.2364608" lon="9.0349616"><ele>69.0</ele><time>2026-04-26T09:21:30.68Z</time></trkpt><trkpt lat="45.2365033" lon="9.0350515"><ele>69.0</ele><time>2026-04-26T09:21:34.618Z</time></trkpt><trkpt lat="45.2365232" lon="9.0351407"><ele>69.0</ele><time>2026-04-26T09:21:38.621Z</time></trkpt><trkpt lat="45.2365272" lon="9.0352323"><ele>69.0</ele><time>2026-04-26T09:21:41.624Z</time></trkpt><trkpt lat="45.2365391" lon="9.0353508"><ele>69.0</ele><time>2026-04-26T09:21:45.618Z</time></trkpt><trkpt lat="45.2365421" lon="9.0354572"><ele>69.0</ele><time>2026-04-26T09:21:48.625Z</time></trkpt><trkpt lat="45.2365076" lon="9.0355734"><ele>69.0</ele><time>2026-04-26T09:21:51.624Z</time></trkpt><trkpt lat="45.2364759" lon="9.0356633"><ele>69.0</ele><time>2026-04-26T09:21:53.628Z</time></trkpt><trkpt lat="45.2364413" lon="9.0357535"><ele>69.0</ele><time>2026-04-26T09:21:55.615Z</time></trkpt><trkpt lat="45.2364058" lon="9.0358387"><ele>69.0</ele><time>2026-04-26T09:21:57.617Z</time></trkpt><trkpt lat="45.2363656" lon="9.0359125"><ele>69.0</ele><time>2026-04-26T09:21:59.618Z</time></trkpt><trkpt lat="45.2363278" lon="9.0360009"><ele>69.0</ele><time>2026-04-26T09:22:01.62Z</time></trkpt><trkpt lat="45.2362871" lon="9.0360841"><ele>69.0</ele><time>2026-04-26T09:22:03.624Z</time></trkpt><trkpt lat="45.2362464" lon="9.036163"><ele>68.66666666666667</ele><time>2026-04-26T09:22:05.615Z</time></trkpt><trkpt lat="45.2361892" lon="9.0362559"><ele>68.33333333333333</ele><time>2026-04-26T09:22:08.626Z</time></trkpt><trkpt lat="45.2361196" lon="9.0363604"><ele>68.0</ele><time>2026-04-26T09:22:11.62Z</time></trkpt><trkpt lat="45.2360678" lon="9.0364136"><ele>67.66666666666666</ele><time>2026-04-26T09:22:13.632Z</time></trkpt><trkpt lat="45.2360149" lon="9.036502"><ele>67.33333333333333</ele><time>2026-04-26T09:22:15.617Z</time></trkpt><trkpt lat="45.2359692" lon="9.0365901"><ele>67.0</ele><time>2026-04-26T09:22:17.615Z</time></trkpt><trkpt lat="45.2359252" lon="9.0366866"><ele>67.0</ele><time>2026-04-26T09:22:19.63Z</time></trkpt><trkpt lat="45.2358873" lon="9.0367729"><ele>67.0</ele><time>2026-04-26T09:22:21.689Z</time></trkpt><trkpt lat="45.2358487" lon="9.0368441"><ele>67.0</ele><time>2026-04-26T09:22:23.621Z</time></trkpt><trkpt lat="45.2357879" lon="9.0369427"><ele>67.0</ele><time>2026-04-26T09:22:26.625Z</time></trkpt><trkpt lat="45.2357416" lon="9.0370298"><ele>67.0</ele><time>2026-04-26T09:22:28.622Z</time></trkpt><trkpt lat="45.2356969" lon="9.0371008"><ele>67.0</ele><time>2026-04-26T09:22:30.621Z</time></trkpt><trkpt lat="45.2356338" lon="9.0371966"><ele>67.0</ele><time>2026-04-26T09:22:33.697Z</time></trkpt><trkpt lat="45.2355733" lon="9.0372238"><ele>67.0</ele><time>2026-04-26T09:22:39.965Z</time></trkpt><trkpt lat="45.2354572" lon="9.0372283"><ele>67.0</ele><time>2026-04-26T09:22:44.995Z</time></trkpt><trkpt lat="45.2353914" lon="9.0371411"><ele>67.0</ele><time>2026-04-26T09:22:54.006Z</time></trkpt><trkpt lat="45.2355124" lon="9.0371548"><ele>67.0</ele><time>2026-04-26T09:23:20.992Z</time></trkpt></trkseg></trk></gpx>